Darstellungsparameter: Aktuell verwendete Einstellungen:
Skalierung der Graphiken ... ?
xyx+y,   Skalierungsfaktor:      Skalierung: Modus: x, Faktor: 1
Darstellungszeitraum ... ?
Vom - - bis: - -   Zeitraum: 08.11.2019 - 07.11.2020
Min/Max/Avg-Anzeige ... ?
Zeige MMA aktuell
Zeige MMA Monat
Zeige MMA alles
Zeige --A aktuell
Zeige --A Monat
Zeige --A alles
Keine MMA-Anzeige
MMA:
Average (ber die Originaldaten)
MMA-Basis: 23.02.2003 - 03.08.2020
Quicknavigation für Darstellung... ?
Tage:      1T, 2T, 3T, 5T -1T -2T -3T -5T +1T +2T +3T +5T
Wochen: 1W, 2W, 3W -1W -2W -3W +1W +2W +3W
Monate: 1M, 3M, 6M -1M -3M -6M +1M +3M +6M
Jahre:    1J, 3J, 5J, 10J -1J -3J -5J -10J +1J +3J +5J +10J
Nutze für die Darstellung ... ?
Originaldaten oder ...
Mittelwerte Minima Maxima auf...
Stundenbasis Tagesbasis Wochenbasis
Monatsbasis Jahresbasis      Datenbasis: Mittelwerte auf Stundenbasis
Darstellen als:
Statistik (Auto) Statistik J:M      Darstellung:
Zur Graphik,    zurück zur Übersicht aller Sensoren.
 
Tabellarische Datenbersicht: ?
 
Sensor: Nr:Datum:Temp:Abs-Feuchte:Windchill:Wind:
Aussen-T/F 1 08-11-2019 00:00:00 4.675 C 6.38 g/m*3 4.68 C 0.26667 km/h
2 08-11-2019 01:00:00 4.24167 C 6.2 g/m*3 4.24 C 0.26667 km/h
3 08-11-2019 02:00:00 3.28333 C 5.82 g/m*3 3.28 C 0 km/h
4 08-11-2019 03:00:00 3.1 C 5.79 g/m*3 3.1 C 0 km/h
5 08-11-2019 04:00:00 2.75833 C 5.66 g/m*3 2.76 C 0 km/h
6 08-11-2019 05:00:00 2.34167 C 5.52 g/m*3 2.34 C 0 km/h
7 08-11-2019 06:00:00 2.31667 C 5.51 g/m*3 2.32 C 0 km/h
8 08-11-2019 07:00:00 2.35 C 5.52 g/m*3 2.35 C 0 km/h
9 08-11-2019 08:00:00 3.05 C 5.81 g/m*3 3.05 C 0 km/h
10 08-11-2019 09:00:00 3.78333 C 6.1 g/m*3 3.78 C 0.53333 km/h
11 08-11-2019 10:00:00 4.43333 C 6.4 g/m*3 4.43 C 0.4 km/h
12 08-11-2019 11:00:00 5.15833 C 6.73 g/m*3 5.16 C 0.8 km/h
13 08-11-2019 12:00:00 6 C 7.11 g/m*3 6 C 0.8 km/h
14 08-11-2019 13:00:00 6.8 C 7.44 g/m*3 6.8 C 0.13333 km/h
15 08-11-2019 14:00:00 7.44167 C 7.63 g/m*3 7.44 C 1.86667 km/h
16 08-11-2019 15:00:00 7.73333 C 7.71 g/m*3 7.73 C 0 km/h
17 08-11-2019 16:00:00 7.61667 C 7.63 g/m*3 7.62 C 0 km/h
18 08-11-2019 17:00:00 6.85833 C 7.29 g/m*3 6.86 C 0 km/h
19 08-11-2019 18:00:00 6.65 C 7.26 g/m*3 6.65 C 0 km/h
20 08-11-2019 19:00:00 6.475 C 7.19 g/m*3 6.48 C 0 km/h
21 08-11-2019 20:00:00 6.21667 C 7.07 g/m*3 6.22 C 0 km/h
22 08-11-2019 21:00:00 5.7 C 6.83 g/m*3 5.7 C 0 km/h
23 08-11-2019 22:00:00 5.39167 C 6.76 g/m*3 5.39 C 0.26667 km/h
24 08-11-2019 23:00:00 5.49167 C 6.81 g/m*3 5.49 C 2.53333 km/h
25 09-11-2019 00:00:00 5.34167 C 6.74 g/m*3 4.34 C 5.35 km/h
Sensor: Nr:Datum:Temp:Abs-Feuchte:Windchill:Wind:
Aussen-T/F 26 09-11-2019 01:00:00 5.15833 C 6.66 g/m*3 4.18 C 5.225 km/h
27 09-11-2019 02:00:00 5.1 C 6.63 g/m*3 3.79 C 6.15833 km/h
28 09-11-2019 03:00:00 5.125 C 6.65 g/m*3 5.13 C 3.33333 km/h
29 09-11-2019 04:00:00 4.96667 C 6.58 g/m*3 4.97 C 1.46667 km/h
30 09-11-2019 05:00:00 4.78333 C 6.51 g/m*3 4.78 C 3.075 km/h
31 09-11-2019 06:00:00 4.45 C 6.32 g/m*3 3.13 C 5.9 km/h
32 09-11-2019 07:00:00 3.44167 C 5.88 g/m*3 3.44 C 0.8 km/h
33 09-11-2019 08:00:00 3.29167 C 5.86 g/m*3 3.29 C 0.13333 km/h
34 09-11-2019 09:00:00 4.53333 C 6.37 g/m*3 3.46 C 5.25 km/h
35 09-11-2019 10:00:00 5.65833 C 6.55 g/m*3 3.11 C 11.7 km/h
36 09-11-2019 11:00:00 5.91667 C 6.56 g/m*3 3.82 C 9.68333 km/h
37 09-11-2019 12:00:00 6.375 C 6.66 g/m*3 4.51 C 9.00833 km/h
38 09-11-2019 13:00:00 7.04167 C 6.76 g/m*3 5.39 C 8.59167 km/h
39 09-11-2019 14:00:00 6.93333 C 6.77 g/m*3 5.67 C 6.96667 km/h
40 09-11-2019 15:00:00 6.68333 C 6.88 g/m*3 6.68 C 3.20833 km/h
41 09-11-2019 16:00:00 6.56667 C 6.94 g/m*3 6.57 C 1.33333 km/h
42 09-11-2019 17:00:00 6.175 C 6.83 g/m*3 6.18 C 0.26667 km/h
43 09-11-2019 18:00:00 5.375 C 6.48 g/m*3 5.38 C 0.13333 km/h
44 09-11-2019 19:00:00 4.875 C 6.35 g/m*3 4.88 C 2.00833 km/h
45 09-11-2019 20:00:00 4.03333 C 5.94 g/m*3 4.03 C 0 km/h
46 09-11-2019 21:00:00 3.25833 C 5.73 g/m*3 3.26 C 0 km/h
47 09-11-2019 22:00:00 2.725 C 5.56 g/m*3 2.73 C 0 km/h
48 09-11-2019 23:00:00 1.99167 C 5.28 g/m*3 1.99 C 0 km/h
49 10-11-2019 00:00:00 1.25833 C 5.05 g/m*3 1.26 C 0 km/h
50 10-11-2019 01:00:00 1.31667 C 5.11 g/m*3 1.32 C 0 km/h
Sensor: Nr:Datum:Temp:Abs-Feuchte:Windchill:Wind:
Aussen-T/F 51 10-11-2019 02:00:00 1.65833 C 5.24 g/m*3 1.66 C 0 km/h
52 10-11-2019 03:00:00 1.59167 C 5.24 g/m*3 1.59 C 0.53333 km/h
53 10-11-2019 04:00:00 1.28333 C 5.13 g/m*3 1.28 C 0.8 km/h
54 10-11-2019 05:00:00 1.38333 C 5.17 g/m*3 1.38 C 0 km/h
55 10-11-2019 06:00:00 1.70833 C 5.28 g/m*3 1.71 C 2.93333 km/h
56 10-11-2019 07:00:00 1.61667 C 5.25 g/m*3 1.62 C 1.86667 km/h
57 10-11-2019 08:00:00 1.81667 C 5.35 g/m*3 1.82 C 0.53333 km/h
58 10-11-2019 09:00:00 2.25 C 5.52 g/m*3 2.25 C 0.66667 km/h
59 10-11-2019 10:00:00 2.66667 C 5.7 g/m*3 2.67 C 0.93333 km/h
60 10-11-2019 11:00:00 3.2 C 5.91 g/m*3 3.2 C 2.26667 km/h
61 10-11-2019 12:00:00 3.4 C 5.91 g/m*3 2.24 C 5.075 km/h
62 10-11-2019 13:00:00 3.86667 C 5.99 g/m*3 3.87 C 4.26667 km/h
63 10-11-2019 14:00:00 4.29167 C 6.06 g/m*3 4.29 C 3.2 km/h
64 10-11-2019 15:00:00 4.65833 C 6.17 g/m*3 4.66 C 1.86667 km/h
65 10-11-2019 16:00:00 4.58333 C 6.08 g/m*3 4.58 C 1.46667 km/h
66 10-11-2019 17:00:00 4.35833 C 6.06 g/m*3 4.36 C 1.2 km/h
67 10-11-2019 18:00:00 4.275 C 6.07 g/m*3 4.28 C 1.2 km/h
68 10-11-2019 19:00:00 4.15 C 6.04 g/m*3 4.15 C 1.6 km/h
69 10-11-2019 20:00:00 4.25 C 6.14 g/m*3 4.25 C 0.26667 km/h
70 10-11-2019 21:00:00 4.3 C 6.16 g/m*3 4.3 C 0.26667 km/h
71 10-11-2019 22:00:00 4.275 C 6.15 g/m*3 4.28 C 0 km/h
72 10-11-2019 23:00:00 4.36667 C 6.14 g/m*3 4.37 C 0.53333 km/h
73 11-11-2019 00:00:00 4.25833 C 6.03 g/m*3 4.26 C 0.93333 km/h
74 11-11-2019 01:00:00 3.85 C 5.84 g/m*3 3.85 C 2.53333 km/h
75 11-11-2019 02:00:00 3.58333 C 5.75 g/m*3 3.58 C 0.4 km/h
Sensor: Nr:Datum:Temp:Abs-Feuchte:Windchill:Wind:
Aussen-T/F 76 11-11-2019 03:00:00 3.30833 C 5.65 g/m*3 3.31 C 2.4 km/h
77 11-11-2019 04:00:00 3.14167 C 5.58 g/m*3 3.14 C 1.06667 km/h
78 11-11-2019 05:00:00 3.23333 C 5.64 g/m*3 3.23 C 0.4 km/h
79 11-11-2019 06:00:00 3.3 C 5.66 g/m*3 3.3 C 0 km/h
80 11-11-2019 07:00:00 3.39167 C 5.74 g/m*3 3.39 C 0.53333 km/h
81 11-11-2019 08:00:00 4.16667 C 5.97 g/m*3 2.66 C 6.3 km/h
82 11-11-2019 09:00:00 4.98333 C 6.13 g/m*3 3.17 C 7.79167 km/h
83 11-11-2019 10:00:00 5.24167 C 6.15 g/m*3 3.62 C 7.24167 km/h
84 11-11-2019 11:00:00 5.54167 C 6.22 g/m*3 3.97 C 7.25 km/h
85 11-11-2019 12:00:00 6.025 C 6.32 g/m*3 4.57 C 7.11667 km/h
86 11-11-2019 13:00:00 6.425 C 6.42 g/m*3 5.48 C 5.625 km/h
87 11-11-2019 14:00:00 6.11667 C 6.33 g/m*3 4.76 C 6.83333 km/h
88 11-11-2019 15:00:00 5.61667 C 6.28 g/m*3 4.75 C 5.08333 km/h
89 11-11-2019 16:00:00 5.25833 C 6.22 g/m*3 4.1 C 5.75833 km/h
90 11-11-2019 17:00:00 5.09167 C 6.15 g/m*3 3.6 C 6.71667 km/h
91 11-11-2019 18:00:00 4.85833 C 6.1 g/m*3 4.86 C 4.14167 km/h
92 11-11-2019 19:00:00 4.83333 C 6.22 g/m*3 4.83 C 0.8 km/h
93 11-11-2019 20:00:00 4.8 C 6.3 g/m*3 4.8 C 0.13333 km/h
94 11-11-2019 21:00:00 4.975 C 6.44 g/m*3 4.97 C 1.06667 km/h
95 11-11-2019 22:00:00 5.13333 C 6.51 g/m*3 5.13 C 1.06667 km/h
96 11-11-2019 23:00:00 5.18333 C 6.6 g/m*3 5.18 C 0.13333 km/h
97 12-11-2019 00:00:00 5.05 C 6.53 g/m*3 5.05 C 0.13333 km/h
98 12-11-2019 01:00:00 5.05 C 6.54 g/m*3 4.05 C 5.23333 km/h
99 12-11-2019 02:00:00 5.375 C 6.55 g/m*3 5.38 C 3.21667 km/h
100 12-11-2019 03:00:00 5.475 C 6.47 g/m*3 5.48 C 3.48333 km/h
Sensor: Nr:Datum:Temp:Abs-Feuchte:Windchill:Wind:
Aussen-T/F 101 12-11-2019 04:00:00 5.6 C 6.45 g/m*3 5.6 C 2.275 km/h
102 12-11-2019 05:00:00 5.45833 C 6.41 g/m*3 5.46 C 1.06667 km/h
103 12-11-2019 06:00:00 5.375 C 6.4 g/m*3 5.38 C 2.26667 km/h
104 12-11-2019 07:00:00 5.7 C 6.39 g/m*3 5.7 C 2.4 km/h
105 12-11-2019 08:00:00 5.88333 C 6.42 g/m*3 5.88 C 2 km/h
106 12-11-2019 09:00:00 6.58333 C 6.53 g/m*3 6.58 C 2.94167 km/h
107 12-11-2019 10:00:00 7.66667 C 6.68 g/m*3 6.7 C 6.3 km/h
108 12-11-2019 11:00:00 8.03333 C 6.79 g/m*3 6.34 C 9.7 km/h
109 12-11-2019 12:00:00 7.91667 C 6.89 g/m*3 5.25 C 15.7 km/h
110 12-11-2019 13:00:00 7.73333 C 6.67 g/m*3 4.97 C 16.1 km/h
111 12-11-2019 14:00:00 7.76667 C 6.55 g/m*3 5.68 C 11.55833 km/h
112 12-11-2019 15:00:00 7.75833 C 6.52 g/m*3 5.99 C 9.81667 km/h
113 12-11-2019 16:00:00 7.31667 C 6.41 g/m*3 5.6 C 9.14167 km/h
114 12-11-2019 17:00:00 6.60833 C 6.23 g/m*3 5.78 C 5.35833 km/h
115 12-11-2019 18:00:00 5.85 C 6.26 g/m*3 5.85 C 0.53333 km/h
116 12-11-2019 19:00:00 4.65833 C 5.93 g/m*3 4.66 C 0 km/h
117 12-11-2019 20:00:00 3.29167 C 5.55 g/m*3 3.29 C 0.13333 km/h
118 12-11-2019 21:00:00 3.23333 C 5.65 g/m*3 3.23 C 0.4 km/h
119 12-11-2019 22:00:00 3.85 C 5.94 g/m*3 3.85 C 2.4 km/h
120 12-11-2019 23:00:00 4.66667 C 6.06 g/m*3 4.67 C 3.21667 km/h
121 13-11-2019 00:00:00 4.89167 C 5.98 g/m*3 4.89 C 1.6 km/h
122 13-11-2019 01:00:00 4.65833 C 5.91 g/m*3 4.66 C 0.26667 km/h
123 13-11-2019 02:00:00 3.33333 C 5.52 g/m*3 3.33 C 0.8 km/h
124 13-11-2019 03:00:00 4.14167 C 5.76 g/m*3 4.14 C 2.81667 km/h
125 13-11-2019 04:00:00 4.48333 C 5.82 g/m*3 4.48 C 0.93333 km/h
Sensor: Nr:Datum:Temp:Abs-Feuchte:Windchill:Wind:
Aussen-T/F 126 13-11-2019 05:00:00 4.53333 C 5.87 g/m*3 4.53 C 0.66667 km/h
127 13-11-2019 06:00:00 4.50833 C 5.89 g/m*3 4.51 C 0.53333 km/h
128 13-11-2019 07:00:00 4.16667 C 5.82 g/m*3 4.17 C 0 km/h
129 13-11-2019 08:00:00 4.58333 C 5.99 g/m*3 4.58 C 0.4 km/h
130 13-11-2019 09:00:00 5.43333 C 6.19 g/m*3 4 C 6.725 km/h
131 13-11-2019 10:00:00 6.01667 C 6.27 g/m*3 4.97 C 5.75833 km/h
132 13-11-2019 11:00:00 6.30833 C 6.36 g/m*3 4.37 C 9.28333 km/h
133 13-11-2019 12:00:00 6.81667 C 6.46 g/m*3 4.73 C 10.48333 km/h
134 13-11-2019 13:00:00 6.775 C 6.44 g/m*3 5.17 C 8.20833 km/h
135 13-11-2019 14:00:00 6.65 C 6.48 g/m*3 4.69 C 9.68333 km/h
136 13-11-2019 15:00:00 6.69167 C 6.52 g/m*3 5.11 C 8.04167 km/h
137 13-11-2019 16:00:00 6.6 C 6.52 g/m*3 5.68 C 5.625 km/h
138 13-11-2019 17:00:00 6.41667 C 6.49 g/m*3 6.42 C 1.33333 km/h
139 13-11-2019 18:00:00 6.35 C 6.51 g/m*3 6.35 C 0.26667 km/h
140 13-11-2019 19:00:00 6.225 C 6.53 g/m*3 6.23 C 2.53333 km/h
141 13-11-2019 20:00:00 6.26667 C 6.51 g/m*3 6.27 C 4.15 km/h
142 13-11-2019 21:00:00 5.9 C 6.44 g/m*3 5.9 C 0 km/h
143 13-11-2019 22:00:00 5.025 C 6.18 g/m*3 5.03 C 0.53333 km/h
144 13-11-2019 23:00:00 4.60833 C 6.09 g/m*3 4.61 C 0.26667 km/h
145 14-11-2019 00:00:00 4.95 C 6.32 g/m*3 4.95 C 0.26667 km/h
146 14-11-2019 01:00:00 4.81667 C 6.23 g/m*3 4.82 C 1.06667 km/h
147 14-11-2019 02:00:00 4.8 C 6.32 g/m*3 4.8 C 0.26667 km/h
148 14-11-2019 03:00:00 5.425 C 6.56 g/m*3 5.43 C 1.73333 km/h
149 14-11-2019 04:00:00 5.69167 C 6.56 g/m*3 5.69 C 1.46667 km/h
150 14-11-2019 05:00:00 4.84167 C 6.26 g/m*3 4.84 C 0 km/h
Sensor: Nr:Datum:Temp:Abs-Feuchte:Windchill:Wind:
Aussen-T/F 151 14-11-2019 06:00:00 4.70833 C 6.28 g/m*3 4.71 C 0.8 km/h
152 14-11-2019 07:00:00 5.25833 C 6.3 g/m*3 4.34 C 5.09167 km/h
153 14-11-2019 08:00:00 5.28333 C 6.17 g/m*3 5.28 C 3.46667 km/h
154 14-11-2019 09:00:00 5.64167 C 6.2 g/m*3 5.64 C 4 km/h
155 14-11-2019 10:00:00 6.68333 C 6.33 g/m*3 6.68 C 4.55 km/h
156 14-11-2019 11:00:00 7.86667 C 6.26 g/m*3 7.17 C 5.49167 km/h
157 14-11-2019 12:00:00 8.725 C 6.09 g/m*3 7.78 C 6.84167 km/h
158 14-11-2019 13:00:00 8.68333 C 6.07 g/m*3 8.68 C 4.53333 km/h
159 14-11-2019 14:00:00 9.01667 C 5.98 g/m*3 9.02 C 4.825 km/h
160 14-11-2019 15:00:00 8.2 C 6.17 g/m*3 8.2 C 1.2 km/h
161 14-11-2019 16:00:00 6.66667 C 6.05 g/m*3 6.67 C 0 km/h
162 14-11-2019 17:00:00 4.96667 C 5.66 g/m*3 4.97 C 0.53333 km/h
163 14-11-2019 18:00:00 4.48333 C 5.6 g/m*3 4.48 C 0.66667 km/h
164 14-11-2019 19:00:00 3.86667 C 5.46 g/m*3 3.87 C 0 km/h
165 14-11-2019 20:00:00 3.45 C 5.44 g/m*3 3.45 C 0.13333 km/h
166 14-11-2019 21:00:00 2.86667 C 5.32 g/m*3 2.87 C 0 km/h
167 14-11-2019 22:00:00 2.55833 C 5.32 g/m*3 2.56 C 0 km/h
168 14-11-2019 23:00:00 2.725 C 5.44 g/m*3 2.73 C 0 km/h
169 15-11-2019 00:00:00 2.975 C 5.57 g/m*3 2.98 C 0 km/h
170 15-11-2019 01:00:00 3.43333 C 5.73 g/m*3 3.43 C 0 km/h
171 15-11-2019 02:00:00 3.43333 C 5.69 g/m*3 3.43 C 0.13333 km/h
172 15-11-2019 03:00:00 3.4 C 5.63 g/m*3 3.4 C 0.4 km/h
173 15-11-2019 04:00:00 3.36667 C 5.59 g/m*3 3.37 C 2.4 km/h
174 15-11-2019 05:00:00 3.53333 C 5.56 g/m*3 3.53 C 0.8 km/h
175 15-11-2019 06:00:00 3.89167 C 5.55 g/m*3 3.89 C 4.29167 km/h
Sensor: Nr:Datum:Temp:Abs-Feuchte:Windchill:Wind:
Aussen-T/F 176 15-11-2019 07:00:00 3.88333 C 5.52 g/m*3 3.88 C 2.66667 km/h
177 15-11-2019 08:00:00 4.05833 C 5.58 g/m*3 4.06 C 1.88333 km/h
178 15-11-2019 09:00:00 4.275 C 5.67 g/m*3 4.28 C 1.74167 km/h
179 15-11-2019 10:00:00 5.38333 C 5.82 g/m*3 5.38 C 3.2 km/h
180 15-11-2019 11:00:00 5.86667 C 5.88 g/m*3 5.03 C 5.1 km/h
181 15-11-2019 12:00:00 6.55 C 6.08 g/m*3 6.55 C 3.35 km/h
182 15-11-2019 13:00:00 7.05 C 6.26 g/m*3 7.05 C 1.06667 km/h
183 15-11-2019 14:00:00 7.68333 C 6.42 g/m*3 7.68 C 2.13333 km/h
184 15-11-2019 15:00:00 7.875 C 6.45 g/m*3 7.88 C 2.26667 km/h
185 15-11-2019 16:00:00 6.54167 C 6.22 g/m*3 6.54 C 0.13333 km/h
186 15-11-2019 17:00:00 4.75833 C 5.93 g/m*3 4.76 C 0 km/h
187 15-11-2019 18:00:00 4.63333 C 6.01 g/m*3 4.63 C 0.26667 km/h
188 15-11-2019 19:00:00 4.50833 C 6.02 g/m*3 4.51 C 0 km/h
189 15-11-2019 20:00:00 4.2 C 5.93 g/m*3 4.2 C 0 km/h
190 15-11-2019 21:00:00 4.05 C 5.93 g/m*3 4.05 C 0 km/h
191 15-11-2019 22:00:00 3.70833 C 5.81 g/m*3 3.71 C 0 km/h
192 15-11-2019 23:00:00 3.49167 C 5.77 g/m*3 3.49 C 0 km/h
193 16-11-2019 00:00:00 3.30833 C 5.71 g/m*3 3.31 C 0 km/h
194 16-11-2019 01:00:00 3.225 C 5.73 g/m*3 3.23 C 0.13333 km/h
195 16-11-2019 02:00:00 3.11667 C 5.69 g/m*3 3.12 C 0.13333 km/h
196 16-11-2019 03:00:00 2.63333 C 5.5 g/m*3 2.63 C 0 km/h
197 16-11-2019 04:00:00 1.85 C 5.2 g/m*3 1.85 C 0 km/h
198 16-11-2019 05:00:00 0.85 C 4.88 g/m*3 0.85 C 0 km/h
199 16-11-2019 06:00:00 0.08333 C 4.63 g/m*3 0.08 C 0 km/h
200 16-11-2019 07:00:00 -0.30833 C 4.52 g/m*3 -0.31 C 0.26667 km/h
Sensor: Nr:Datum:Temp:Abs-Feuchte:Windchill:Wind:
Aussen-T/F 201 16-11-2019 08:00:00 0.24167 C 4.73 g/m*3 0.24 C 2.13333 km/h
202 16-11-2019 09:00:00 0.31667 C 4.77 g/m*3 0.32 C 4.53333 km/h
203 16-11-2019 10:00:00 0.74167 C 4.95 g/m*3 0.74 C 2.8 km/h
204 16-11-2019 11:00:00 1.425 C 5.18 g/m*3 1.43 C 2.53333 km/h
205 16-11-2019 12:00:00 2.25833 C 5.49 g/m*3 2.26 C 0 km/h
206 16-11-2019 13:00:00 3.375 C 5.91 g/m*3 3.38 C 0 km/h
207 16-11-2019 14:00:00 4.20833 C 6.25 g/m*3 4.21 C 0.13333 km/h
208 16-11-2019 15:00:00 4.66667 C 6.39 g/m*3 4.67 C 0.4 km/h
209 16-11-2019 16:00:00 4.58333 C 6.18 g/m*3 4.58 C 0.26667 km/h
210 16-11-2019 17:00:00 3.94167 C 5.92 g/m*3 3.94 C 0.26667 km/h
211 16-11-2019 18:00:00 3.20833 C 5.7 g/m*3 3.21 C 0.4 km/h
212 16-11-2019 19:00:00 2.55833 C 5.48 g/m*3 2.56 C 0.13333 km/h
213 16-11-2019 20:00:00 1.94167 C 5.29 g/m*3 1.94 C 0 km/h
214 16-11-2019 21:00:00 1.55833 C 5.17 g/m*3 1.56 C 0 km/h
215 16-11-2019 22:00:00 0.79167 C 4.91 g/m*3 0.79 C 0.13333 km/h
216 16-11-2019 23:00:00 0.15833 C 4.7 g/m*3 0.16 C 0 km/h
217 17-11-2019 00:00:00 -0.3 C 4.56 g/m*3 -0.3 C 0 km/h
218 17-11-2019 01:00:00 -0.69167 C 4.44 g/m*3 -0.69 C 0 km/h
219 17-11-2019 02:00:00 -0.11667 C 4.65 g/m*3 -0.12 C 0 km/h
220 17-11-2019 03:00:00 0.8 C 4.97 g/m*3 0.8 C 0 km/h
221 17-11-2019 04:00:00 1.475 C 5.2 g/m*3 1.48 C 0 km/h
222 17-11-2019 05:00:00 1.65833 C 5.27 g/m*3 1.66 C 0 km/h
223 17-11-2019 06:00:00 1.7 C 5.28 g/m*3 1.7 C 0 km/h
224 17-11-2019 07:00:00 1.825 C 5.33 g/m*3 1.83 C 0 km/h
225 17-11-2019 08:00:00 1.96667 C 5.38 g/m*3 1.97 C 0 km/h
Sensor: Nr:Datum:Temp:Abs-Feuchte:Windchill:Wind:
Aussen-T/F 226 17-11-2019 09:00:00 2.475 C 5.58 g/m*3 2.48 C 0 km/h
227 17-11-2019 10:00:00 3.15 C 5.89 g/m*3 3.15 C 0.26667 km/h
228 17-11-2019 11:00:00 3.91667 C 6.2 g/m*3 3.92 C 0.13333 km/h
229 17-11-2019 12:00:00 4.31667 C 6.36 g/m*3 4.32 C 0 km/h
230 17-11-2019 13:00:00 4.90833 C 6.62 g/m*3 4.91 C 0 km/h
231 17-11-2019 14:00:00 5.1 C 6.69 g/m*3 5.1 C 0.93333 km/h
232 17-11-2019 15:00:00 4.88333 C 6.54 g/m*3 4.88 C 1.33333 km/h
233 17-11-2019 16:00:00 4.65 C 6.44 g/m*3 4.65 C 2.66667 km/h
234 17-11-2019 17:00:00 4.43333 C 6.35 g/m*3 4.43 C 2.13333 km/h
235 17-11-2019 18:00:00 4.63333 C 6.43 g/m*3 4.63 C 1.6 km/h
236 17-11-2019 19:00:00 4.7 C 6.46 g/m*3 3.15 C 6.70833 km/h
237 17-11-2019 20:00:00 4.71667 C 6.47 g/m*3 4.72 C 3.74167 km/h
238 17-11-2019 21:00:00 4.7 C 6.46 g/m*3 3.51 C 5.625 km/h
239 17-11-2019 22:00:00 4.7 C 6.46 g/m*3 4.7 C 1.2 km/h
240 17-11-2019 23:00:00 4.625 C 6.43 g/m*3 4.63 C 2.95 km/h
241 18-11-2019 00:00:00 4.375 C 6.32 g/m*3 3.18 C 5.5 km/h
242 18-11-2019 01:00:00 4.2 C 6.25 g/m*3 2.71 C 6.29167 km/h
243 18-11-2019 02:00:00 4.2 C 6.25 g/m*3 4.2 C 4.41667 km/h
244 18-11-2019 03:00:00 4.2 C 6.25 g/m*3 4.2 C 2.93333 km/h
245 18-11-2019 04:00:00 4.2 C 6.25 g/m*3 4.2 C 4.00833 km/h
246 18-11-2019 05:00:00 4.175 C 6.24 g/m*3 4.18 C 1.73333 km/h
247 18-11-2019 06:00:00 4.1 C 6.21 g/m*3 4.1 C 0.53333 km/h
248 18-11-2019 07:00:00 4.08333 C 6.2 g/m*3 4.08 C 0.4 km/h
249 18-11-2019 08:00:00 4.14167 C 6.23 g/m*3 4.14 C 0 km/h
250 18-11-2019 09:00:00 4.40833 C 6.34 g/m*3 4.41 C 0.13333 km/h
Sensor: Nr:Datum:Temp:Abs-Feuchte:Windchill:Wind:
Aussen-T/F 251 18-11-2019 10:00:00 4.86667 C 6.58 g/m*3 4.87 C 0.26667 km/h
252 18-11-2019 11:00:00 5.025 C 6.6 g/m*3 5.03 C 0.93333 km/h
253 18-11-2019 12:00:00 5.30833 C 6.7 g/m*3 5.31 C 3.46667 km/h
254 18-11-2019 13:00:00 5.33333 C 6.67 g/m*3 5.33 C 3.46667 km/h
255 18-11-2019 14:00:00 5.35833 C 6.63 g/m*3 5.36 C 4 km/h
256 18-11-2019 15:00:00 5.19167 C 6.54 g/m*3 5.19 C 3.6 km/h
257 18-11-2019 16:00:00 4.86667 C 6.4 g/m*3 4.87 C 4.29167 km/h
258 18-11-2019 17:00:00 4.78333 C 6.36 g/m*3 4.78 C 4.55 km/h
259 18-11-2019 18:00:00 4.65833 C 6.31 g/m*3 4.66 C 4.01667 km/h
260 18-11-2019 19:00:00 4.08333 C 6.07 g/m*3 2.01 C 8.19167 km/h
261 18-11-2019 20:00:00 3.23333 C 5.74 g/m*3 0.59 C 9.81667 km/h
262 18-11-2019 21:00:00 2.55833 C 5.51 g/m*3 -0.5 C 11.03333 km/h
263 18-11-2019 22:00:00 2.88333 C 5.66 g/m*3 0.08 C 10.23333 km/h
264 18-11-2019 23:00:00 3.25 C 5.8 g/m*3 0.22 C 11.56667 km/h
265 19-11-2019 00:00:00 3.7 C 5.98 g/m*3 1.02 C 10.35833 km/h
266 19-11-2019 01:00:00 4.01667 C 6.11 g/m*3 2.19 C 7.25833 km/h
267 19-11-2019 02:00:00 4.2 C 6.19 g/m*3 2.84 C 5.89167 km/h
268 19-11-2019 03:00:00 4.25833 C 6.21 g/m*3 4.26 C 3.2 km/h
269 19-11-2019 04:00:00 4.325 C 6.24 g/m*3 2.67 C 6.85833 km/h
270 19-11-2019 05:00:00 3.475 C 5.88 g/m*3 3.48 C 0.8 km/h
271 19-11-2019 06:00:00 2.85 C 5.66 g/m*3 2.85 C 2.66667 km/h
272 19-11-2019 07:00:00 2.93333 C 5.72 g/m*3 2.93 C 0.53333 km/h
273 19-11-2019 08:00:00 3.18333 C 5.84 g/m*3 3.18 C 2.13333 km/h
274 19-11-2019 09:00:00 4.025 C 6.17 g/m*3 2.79 C 5.48333 km/h
275 19-11-2019 10:00:00 4.00833 C 6.14 g/m*3 4.01 C 2 km/h
Sensor: Nr:Datum:Temp:Abs-Feuchte:Windchill:Wind:
Aussen-T/F 276 19-11-2019 11:00:00 4.65833 C 6.44 g/m*3 4.66 C 3.89167 km/h
277 19-11-2019 12:00:00 6.175 C 6.72 g/m*3 4.71 C 7.24167 km/h
278 19-11-2019 13:00:00 6.35 C 6.55 g/m*3 5.18 C 6.30833 km/h
279 19-11-2019 14:00:00 6.63333 C 6.58 g/m*3 5.72 C 5.61667 km/h
280 19-11-2019 15:00:00 6.55 C 6.77 g/m*3 6.55 C 0.93333 km/h
281 19-11-2019 16:00:00 5.54167 C 6.53 g/m*3 5.54 C 2.53333 km/h
282 19-11-2019 17:00:00 4.175 C 6.03 g/m*3 4.18 C 1.33333 km/h
283 19-11-2019 18:00:00 3.325 C 5.77 g/m*3 3.33 C 0.26667 km/h
284 19-11-2019 19:00:00 2.74167 C 5.56 g/m*3 2.74 C 0.13333 km/h
285 19-11-2019 20:00:00 2.3 C 5.45 g/m*3 2.3 C 0.4 km/h
286 19-11-2019 21:00:00 2.80833 C 5.67 g/m*3 2.81 C 2.14167 km/h
287 19-11-2019 22:00:00 2.45 C 5.51 g/m*3 2.45 C 0.4 km/h
288 19-11-2019 23:00:00 1.10833 C 5.02 g/m*3 1.11 C 0 km/h
289 20-11-2019 00:00:00 0.60833 C 4.85 g/m*3 0.61 C 0.13333 km/h
290 20-11-2019 01:00:00 0.23333 C 4.73 g/m*3 0.23 C 0 km/h
291 20-11-2019 02:00:00 0.35833 C 4.82 g/m*3 0.36 C 0 km/h
292 20-11-2019 03:00:00 0.55833 C 4.88 g/m*3 0.56 C 2.14167 km/h
293 20-11-2019 04:00:00 0.39167 C 4.83 g/m*3 0.39 C 2.80833 km/h
294 20-11-2019 05:00:00 0.675 C 4.92 g/m*3 0.68 C 2.66667 km/h
295 20-11-2019 06:00:00 0.75833 C 4.95 g/m*3 0.76 C 0.13333 km/h
296 20-11-2019 07:00:00 1.01667 C 5.04 g/m*3 1.02 C 0.26667 km/h
297 20-11-2019 08:00:00 1.275 C 5.15 g/m*3 1.27 C 0 km/h
298 20-11-2019 09:00:00 1.85 C 5.39 g/m*3 1.85 C 0.26667 km/h
299 20-11-2019 10:00:00 2.61667 C 5.68 g/m*3 2.62 C 0.26667 km/h
300 20-11-2019 11:00:00 3.025 C 5.82 g/m*3 3.03 C 1.46667 km/h
Sensor: Nr:Datum:Temp:Abs-Feuchte:Windchill:Wind:
Aussen-T/F 301 20-11-2019 12:00:00 4.16667 C 6.22 g/m*3 4.17 C 4.54167 km/h
302 20-11-2019 13:00:00 4.9 C 6.09 g/m*3 2.97 C 8.19167 km/h
303 20-11-2019 14:00:00 5.275 C 5.97 g/m*3 5.28 C 4.15 km/h
304 20-11-2019 15:00:00 5.225 C 5.87 g/m*3 5.23 C 1.33333 km/h
305 20-11-2019 16:00:00 3.54167 C 5.45 g/m*3 3.54 C 0.26667 km/h
306 20-11-2019 17:00:00 2.34167 C 5.25 g/m*3 2.34 C 0 km/h
307 20-11-2019 18:00:00 1.31667 C 4.96 g/m*3 1.32 C 0.13333 km/h
308 20-11-2019 19:00:00 0.4 C 4.7 g/m*3 0.4 C 0 km/h
309 20-11-2019 20:00:00 -0.19167 C 4.54 g/m*3 -0.19 C 0 km/h
310 20-11-2019 21:00:00 -0.59167 C 4.45 g/m*3 -0.59 C 0 km/h
311 20-11-2019 22:00:00 -0.85 C 4.39 g/m*3 -0.85 C 0.26667 km/h
312 20-11-2019 23:00:00 -0.6 C 4.47 g/m*3 -0.6 C 0 km/h
313 21-11-2019 00:00:00 -0.6 C 4.48 g/m*3 -0.6 C 0 km/h
314 21-11-2019 01:00:00 -1.19167 C 4.28 g/m*3 -1.19 C 0 km/h
315 21-11-2019 02:00:00 -1.4 C 4.22 g/m*3 -1.4 C 0 km/h
316 21-11-2019 03:00:00 -1.23333 C 4.31 g/m*3 -1.23 C 0 km/h
317 21-11-2019 04:00:00 -0.40833 C 4.57 g/m*3 -0.41 C 0 km/h
318 21-11-2019 05:00:00 0.16667 C 4.75 g/m*3 0.17 C 0 km/h
319 21-11-2019 06:00:00 0.65 C 4.92 g/m*3 0.65 C 0.13333 km/h
320 21-11-2019 07:00:00 0.775 C 4.96 g/m*3 0.78 C 0 km/h
321 21-11-2019 08:00:00 0.85 C 4.98 g/m*3 0.85 C 0.4 km/h
322 21-11-2019 09:00:00 1.225 C 5.11 g/m*3 1.23 C 0.26667 km/h
323 21-11-2019 10:00:00 1.775 C 5.31 g/m*3 1.78 C 0 km/h
324 21-11-2019 11:00:00 2.53333 C 5.59 g/m*3 2.53 C 0.53333 km/h
325 21-11-2019 12:00:00 2.925 C 5.68 g/m*3 2.93 C 1.6 km/h
Sensor: Nr:Datum:Temp:Abs-Feuchte:Windchill:Wind:
Aussen-T/F 326 21-11-2019 13:00:00 3.6 C 5.92 g/m*3 3.6 C 1.6 km/h
327 21-11-2019 14:00:00 4.33333 C 6.13 g/m*3 4.33 C 0.53333 km/h
328 21-11-2019 15:00:00 4.78333 C 6.29 g/m*3 4.78 C 0 km/h
329 21-11-2019 16:00:00 4.975 C 6.38 g/m*3 4.97 C 0 km/h
330 21-11-2019 17:00:00 4.48333 C 6.23 g/m*3 4.48 C 0 km/h
331 21-11-2019 18:00:00 4.18333 C 6.12 g/m*3 4.18 C 0 km/h
332 21-11-2019 19:00:00 3.975 C 6.06 g/m*3 3.98 C 0 km/h
333 21-11-2019 20:00:00 3.10833 C 5.7 g/m*3 3.11 C 0.4 km/h
334 21-11-2019 21:00:00 2.35 C 5.46 g/m*3 2.35 C 0.4 km/h
335 21-11-2019 22:00:00 1.89167 C 5.3 g/m*3 1.89 C 0.13333 km/h
336 21-11-2019 23:00:00 2.05 C 5.41 g/m*3 2.05 C 0.13333 km/h
337 22-11-2019 00:00:00 2.24167 C 5.48 g/m*3 2.24 C 0.13333 km/h
338 22-11-2019 01:00:00 2 C 5.39 g/m*3 2 C 0.13333 km/h
339 22-11-2019 02:00:00 1.6 C 5.24 g/m*3 1.6 C 0.26667 km/h
340 22-11-2019 03:00:00 1.725 C 5.29 g/m*3 1.73 C 0.13333 km/h
341 22-11-2019 04:00:00 2.11667 C 5.43 g/m*3 2.12 C 0 km/h
342 22-11-2019 05:00:00 2.69167 C 5.68 g/m*3 2.69 C 0.13333 km/h
343 22-11-2019 06:00:00 3.55833 C 6.05 g/m*3 3.56 C 0 km/h
344 22-11-2019 07:00:00 3.99167 C 6.23 g/m*3 3.99 C 0.13333 km/h
345 22-11-2019 08:00:00 4.55833 C 6.47 g/m*3 4.56 C 3.06667 km/h
346 22-11-2019 09:00:00 4.65833 C 6.48 g/m*3 4.66 C 3.88333 km/h
347 22-11-2019 10:00:00 4.50833 C 6.39 g/m*3 4.51 C 2.26667 km/h
348 22-11-2019 11:00:00 5.18333 C 6.68 g/m*3 5.18 C 4.93333 km/h
349 22-11-2019 12:00:00 5.7 C 6.86 g/m*3 4.39 C 6.45 km/h
350 22-11-2019 13:00:00 5.88333 C 6.79 g/m*3 4.82 C 5.75 km/h
Sensor: Nr:Datum:Temp:Abs-Feuchte:Windchill:Wind:
Aussen-T/F 351 22-11-2019 14:00:00 6.06667 C 6.78 g/m*3 4.41 C 7.91667 km/h
352 22-11-2019 15:00:00 6.16667 C 6.75 g/m*3 6.17 C 4.00833 km/h
353 22-11-2019 16:00:00 5.90833 C 6.66 g/m*3 5.91 C 1.73333 km/h
354 22-11-2019 17:00:00 5.73333 C 6.66 g/m*3 5.73 C 1.46667 km/h
355 22-11-2019 18:00:00 5.63333 C 6.64 g/m*3 5.63 C 1.46667 km/h
356 22-11-2019 19:00:00 5.49167 C 6.55 g/m*3 5.49 C 2.26667 km/h
357 22-11-2019 20:00:00 5.275 C 6.43 g/m*3 5.28 C 3.48333 km/h
358 22-11-2019 21:00:00 5.08333 C 6.35 g/m*3 5.08 C 1.33333 km/h
359 22-11-2019 22:00:00 4.88333 C 6.25 g/m*3 4.88 C 2.26667 km/h
360 22-11-2019 23:00:00 4.725 C 6.16 g/m*3 4.72 C 2.13333 km/h
361 23-11-2019 00:00:00 4.725 C 6.16 g/m*3 4.72 C 2.53333 km/h
362 23-11-2019 01:00:00 4.83333 C 6.15 g/m*3 4.83 C 3.88333 km/h
363 23-11-2019 02:00:00 4.775 C 6.13 g/m*3 4.78 C 1.06667 km/h
364 23-11-2019 03:00:00 4.425 C 6.08 g/m*3 4.43 C 1.86667 km/h
365 23-11-2019 04:00:00 4 C 5.96 g/m*3 4 C 0.26667 km/h
366 23-11-2019 05:00:00 3.69167 C 5.9 g/m*3 3.69 C 0.8 km/h
367 23-11-2019 06:00:00 3.68333 C 5.94 g/m*3 3.68 C 0.4 km/h
368 23-11-2019 07:00:00 3.94167 C 6.08 g/m*3 3.94 C 0.53333 km/h
369 23-11-2019 08:00:00 4.15 C 6.17 g/m*3 4.15 C 1.60833 km/h
370 23-11-2019 09:00:00 5.00833 C 6.52 g/m*3 5.01 C 1.86667 km/h
371 23-11-2019 10:00:00 6.15833 C 6.75 g/m*3 6.16 C 3.74167 km/h
372 23-11-2019 11:00:00 7.225 C 6.91 g/m*3 7.23 C 4.14167 km/h
373 23-11-2019 12:00:00 7.35833 C 7.14 g/m*3 7.36 C 1.33333 km/h
374 23-11-2019 13:00:00 7.65 C 7.27 g/m*3 7.65 C 2 km/h
375 23-11-2019 14:00:00 7.53333 C 7.39 g/m*3 7.53 C 2.53333 km/h
Sensor: Nr:Datum:Temp:Abs-Feuchte:Windchill:Wind:
Aussen-T/F 376 23-11-2019 15:00:00 8.36667 C 7.53 g/m*3 7.83 C 5.225 km/h
377 23-11-2019 16:00:00 7.625 C 7.15 g/m*3 7.63 C 2.275 km/h
378 23-11-2019 17:00:00 6.25833 C 6.81 g/m*3 6.26 C 2.53333 km/h
379 23-11-2019 18:00:00 5.76667 C 6.7 g/m*3 5.77 C 0.8 km/h
380 23-11-2019 19:00:00 5.56667 C 6.69 g/m*3 5.57 C 1.46667 km/h
381 23-11-2019 20:00:00 5.00833 C 6.46 g/m*3 5.01 C 0.26667 km/h
382 23-11-2019 21:00:00 4.41667 C 6.22 g/m*3 4.42 C 0.13333 km/h
383 23-11-2019 22:00:00 3.85833 C 6.04 g/m*3 3.86 C 0.4 km/h
384 23-11-2019 23:00:00 3.28333 C 5.82 g/m*3 3.28 C 0.13333 km/h
385 24-11-2019 00:00:00 2.8 C 5.63 g/m*3 2.8 C 0.13333 km/h
386 24-11-2019 01:00:00 2.38333 C 5.49 g/m*3 2.38 C 0 km/h
387 24-11-2019 02:00:00 2.16667 C 5.45 g/m*3 2.17 C 0 km/h
388 24-11-2019 03:00:00 2.1 C 5.43 g/m*3 2.1 C 0 km/h
389 24-11-2019 04:00:00 1.7 C 5.28 g/m*3 1.7 C 0 km/h
390 24-11-2019 05:00:00 1.825 C 5.33 g/m*3 1.83 C 0.26667 km/h
391 24-11-2019 06:00:00 1.48333 C 5.2 g/m*3 1.48 C 0 km/h
392 24-11-2019 07:00:00 1.14167 C 5.08 g/m*3 1.14 C 0.13333 km/h
393 24-11-2019 08:00:00 1.15 C 5.09 g/m*3 1.15 C 0 km/h
394 24-11-2019 09:00:00 1.525 C 5.23 g/m*3 1.53 C 0.26667 km/h
395 24-11-2019 10:00:00 2.25833 C 5.54 g/m*3 2.26 C 0.53333 km/h
396 24-11-2019 11:00:00 3.01667 C 5.83 g/m*3 3.02 C 0.13333 km/h
397 24-11-2019 12:00:00 3.81667 C 6.15 g/m*3 3.82 C 0 km/h
398 24-11-2019 13:00:00 4.81667 C 6.58 g/m*3 4.82 C 0 km/h
399 24-11-2019 14:00:00 5.39167 C 6.83 g/m*3 5.39 C 0 km/h
400 24-11-2019 15:00:00 5.39167 C 6.83 g/m*3 5.39 C 0 km/h
Sensor: Nr:Datum:Temp:Abs-Feuchte:Windchill:Wind:
Aussen-T/F 401 24-11-2019 16:00:00 4.71667 C 6.47 g/m*3 4.72 C 0 km/h
402 24-11-2019 17:00:00 3.95 C 6.15 g/m*3 3.95 C 0 km/h
403 24-11-2019 18:00:00 3.625 C 6.01 g/m*3 3.63 C 0 km/h
404 24-11-2019 19:00:00 3.55 C 5.98 g/m*3 3.55 C 0 km/h
405 24-11-2019 20:00:00 3.21667 C 5.85 g/m*3 3.22 C 0 km/h
406 24-11-2019 21:00:00 3 C 5.77 g/m*3 3 C 0 km/h
407 24-11-2019 22:00:00 2.48333 C 5.57 g/m*3 2.48 C 0 km/h
408 24-11-2019 23:00:00 2.11667 C 5.44 g/m*3 2.12 C 0 km/h
409 25-11-2019 00:00:00 2.06667 C 5.43 g/m*3 2.07 C 0 km/h
410 25-11-2019 01:00:00 2.41667 C 5.6 g/m*3 2.42 C 0 km/h
411 25-11-2019 02:00:00 2.26667 C 5.54 g/m*3 2.27 C 0 km/h
412 25-11-2019 03:00:00 2.40833 C 5.6 g/m*3 2.41 C 0 km/h
413 25-11-2019 04:00:00 2.7 C 5.71 g/m*3 2.7 C 0 km/h
414 25-11-2019 05:00:00 3.06667 C 5.85 g/m*3 3.07 C 0 km/h
415 25-11-2019 06:00:00 3.31667 C 5.95 g/m*3 3.32 C 0 km/h
416 25-11-2019 07:00:00 3.575 C 6.06 g/m*3 3.58 C 0 km/h
417 25-11-2019 08:00:00 3.80833 C 6.15 g/m*3 3.81 C 0 km/h
418 25-11-2019 09:00:00 4.26667 C 6.34 g/m*3 4.27 C 0 km/h
419 25-11-2019 10:00:00 4.73333 C 6.54 g/m*3 4.73 C 0 km/h
420 25-11-2019 11:00:00 5.41667 C 6.85 g/m*3 5.42 C 0.13333 km/h
421 25-11-2019 12:00:00 6.05 C 7.13 g/m*3 6.05 C 0.13333 km/h
422 25-11-2019 13:00:00 6.675 C 7.35 g/m*3 6.68 C 0 km/h
423 25-11-2019 14:00:00 7.08333 C 7.48 g/m*3 7.08 C 0.26667 km/h
424 25-11-2019 15:00:00 7.225 C 7.48 g/m*3 7.23 C 0 km/h
425 25-11-2019 16:00:00 7.15833 C 7.49 g/m*3 7.16 C 0 km/h
Sensor: Nr:Datum:Temp:Abs-Feuchte:Windchill:Wind:
Aussen-T/F 426 25-11-2019 17:00:00 6.8 C 7.34 g/m*3 6.8 C 0 km/h
427 25-11-2019 18:00:00 6.68333 C 7.29 g/m*3 6.68 C 0 km/h
428 25-11-2019 19:00:00 6.19167 C 7.06 g/m*3 6.19 C 0 km/h
429 25-11-2019 20:00:00 6.125 C 7.1 g/m*3 6.13 C 0.13333 km/h
430 25-11-2019 21:00:00 5.86667 C 6.94 g/m*3 5.87 C 0 km/h
431 25-11-2019 22:00:00 5.21667 C 6.63 g/m*3 5.22 C 0 km/h
432 25-11-2019 23:00:00 4.28333 C 6.22 g/m*3 4.28 C 0 km/h
433 26-11-2019 00:00:00 3.66667 C 6.02 g/m*3 3.67 C 0 km/h
434 26-11-2019 01:00:00 4.225 C 6.26 g/m*3 4.22 C 0 km/h
435 26-11-2019 02:00:00 4.71667 C 6.5 g/m*3 4.72 C 0.13333 km/h
436 26-11-2019 03:00:00 5.25833 C 6.76 g/m*3 5.26 C 0.13333 km/h
437 26-11-2019 04:00:00 5.88333 C 7.06 g/m*3 5.88 C 0 km/h
438 26-11-2019 05:00:00 6.50833 C 7.35 g/m*3 6.51 C 0 km/h
439 26-11-2019 06:00:00 6.75833 C 7.47 g/m*3 6.76 C 0.4 km/h
440 26-11-2019 07:00:00 7.25 C 7.72 g/m*3 7.25 C 0.26667 km/h
441 26-11-2019 08:00:00 7.45833 C 7.82 g/m*3 7.46 C 1.2 km/h
442 26-11-2019 09:00:00 8.05833 C 8.13 g/m*3 8.06 C 2.66667 km/h
443 26-11-2019 10:00:00 9.175 C 8.62 g/m*3 9.18 C 1.73333 km/h
444 26-11-2019 11:00:00 10.38333 C 8.91 g/m*3 10.38 C 3.61667 km/h
445 26-11-2019 12:00:00 10.98333 C 9.07 g/m*3 10.98 C 1.2 km/h
446 26-11-2019 13:00:00 11.175 C 9.13 g/m*3 11.18 C 1.875 km/h
447 26-11-2019 14:00:00 11.10833 C 9.19 g/m*3 11.11 C 0.66667 km/h
448 26-11-2019 15:00:00 11.24167 C 9.17 g/m*3 11.24 C 1.2 km/h
449 26-11-2019 16:00:00 10.69167 C 8.97 g/m*3 10.69 C 0.53333 km/h
450 26-11-2019 17:00:00 10.01667 C 8.69 g/m*3 10.02 C 0.13333 km/h
Sensor: Nr:Datum:Temp:Abs-Feuchte:Windchill:Wind:
Aussen-T/F 451 26-11-2019 18:00:00 9.73333 C 8.67 g/m*3 9.73 C 2 km/h
452 26-11-2019 19:00:00 10.16667 C 8.78 g/m*3 10.17 C 2.93333 km/h
453 26-11-2019 20:00:00 9.75 C 8.48 g/m*3 9.75 C 0.53333 km/h
454 26-11-2019 21:00:00 9.15 C 8.43 g/m*3 9.15 C 0 km/h
455 26-11-2019 22:00:00 9.225 C 8.43 g/m*3 9.23 C 0.4 km/h
456 26-11-2019 23:00:00 8.66667 C 8.19 g/m*3 8.67 C 0.13333 km/h
457 27-11-2019 00:00:00 8.46667 C 8.14 g/m*3 8.47 C 0.53333 km/h
458 27-11-2019 01:00:00 8.38333 C 8.12 g/m*3 8.38 C 0.4 km/h
459 27-11-2019 02:00:00 8.73333 C 8.36 g/m*3 8.73 C 0 km/h
460 27-11-2019 03:00:00 8.21667 C 8.06 g/m*3 8.22 C 0 km/h
461 27-11-2019 04:00:00 8.25833 C 8.15 g/m*3 8.26 C 3.06667 km/h
462 27-11-2019 05:00:00 8.39167 C 8.15 g/m*3 7.82 C 5.34167 km/h
463 27-11-2019 06:00:00 8.64167 C 8.21 g/m*3 8.64 C 1.46667 km/h
464 27-11-2019 07:00:00 8.725 C 8.28 g/m*3 8.73 C 3.74167 km/h
465 27-11-2019 08:00:00 9.13333 C 8.45 g/m*3 9.13 C 2.66667 km/h
466 27-11-2019 09:00:00 9.60833 C 8.71 g/m*3 9.61 C 1.33333 km/h
467 27-11-2019 10:00:00 10.00833 C 8.91 g/m*3 10.01 C 2.40833 km/h
468 27-11-2019 11:00:00 11.66667 C 8.92 g/m*3 11.67 C 6.15833 km/h
469 27-11-2019 12:00:00 12.65 C 8.78 g/m*3 12.65 C 12.625 km/h
470 27-11-2019 13:00:00 12.775 C 8.66 g/m*3 12.78 C 10.61667 km/h
471 27-11-2019 14:00:00 12.96667 C 8.63 g/m*3 12.97 C 7.375 km/h
472 27-11-2019 15:00:00 12.8 C 8.56 g/m*3 12.8 C 12.21667 km/h
473 27-11-2019 16:00:00 11.73333 C 8.77 g/m*3 11.73 C 4.95 km/h
474 27-11-2019 17:00:00 10.73333 C 8.89 g/m*3 10.73 C 4.275 km/h
475 27-11-2019 18:00:00 10.70833 C 8.97 g/m*3 10.49 C 5.225 km/h
Sensor: Nr:Datum:Temp:Abs-Feuchte:Windchill:Wind:
Aussen-T/F 476 27-11-2019 19:00:00 10.75 C 9.05 g/m*3 9.96 C 7.65 km/h
477 27-11-2019 20:00:00 11.26667 C 8.94 g/m*3 11.27 C 8.99167 km/h
478 27-11-2019 21:00:00 10.76667 C 9.02 g/m*3 9.7 C 9.125 km/h
479 27-11-2019 22:00:00 11.29167 C 8.86 g/m*3 11.29 C 16.375 km/h
480 27-11-2019 23:00:00 11.6 C 8.61 g/m*3 11.6 C 17.175 km/h
481 28-11-2019 00:00:00 11.575 C 8.47 g/m*3 11.58 C 19.7 km/h
482 28-11-2019 01:00:00 11.61667 C 8.43 g/m*3 11.62 C 23.46667 km/h
483 28-11-2019 02:00:00 11.20833 C 8.36 g/m*3 11.21 C 21.19167 km/h
484 28-11-2019 03:00:00 11.05 C 8.04 g/m*3 11.05 C 19.70833 km/h
485 28-11-2019 04:00:00 10.96667 C 7.93 g/m*3 8.7 C 18.9 km/h
486 28-11-2019 05:00:00 10.66667 C 7.96 g/m*3 8.31 C 19.04167 km/h
487 28-11-2019 06:00:00 10.66667 C 8.14 g/m*3 8.57 C 16.5 km/h
488 28-11-2019 07:00:00 10.60833 C 7.98 g/m*3 8.38 C 17.56667 km/h
489 28-11-2019 08:00:00 10.58333 C 7.94 g/m*3 8.28 C 18.24167 km/h
490 28-11-2019 09:00:00 11.025 C 8.03 g/m*3 11.03 C 16.23333 km/h
491 28-11-2019 10:00:00 11.58333 C 8.06 g/m*3 11.58 C 17.7 km/h
492 28-11-2019 11:00:00 11.95833 C 8.23 g/m*3 11.96 C 20.76667 km/h
493 28-11-2019 12:00:00 11.49167 C 8.53 g/m*3 11.49 C 19.16667 km/h
494 28-11-2019 13:00:00 11.7 C 8.66 g/m*3 11.7 C 17.7 km/h
495 28-11-2019 14:00:00 11.45 C 8.57 g/m*3 11.45 C 15.03333 km/h
496 28-11-2019 15:00:00 11.16667 C 8.46 g/m*3 11.17 C 15.03333 km/h
497 28-11-2019 16:00:00 10.83333 C 8.42 g/m*3 8.89 C 15.44167 km/h
498 28-11-2019 17:00:00 10.41667 C 8.55 g/m*3 8.64 C 13.3 km/h
499 28-11-2019 18:00:00 10.43333 C 8.46 g/m*3 8.56 C 14.1 km/h
500 28-11-2019 19:00:00 10.41667 C 8.44 g/m*3 8.92 C 11.29167 km/h
Sensor: Nr:Datum:Temp:Abs-Feuchte:Windchill:Wind:
Aussen-T/F 501 28-11-2019 20:00:00 10.31667 C 8.51 g/m*3 8.84 C 11.03333 km/h
502 28-11-2019 21:00:00 10.33333 C 8.49 g/m*3 8.69 C 12.23333 km/h
503 28-11-2019 22:00:00 10.19167 C 8.54 g/m*3 8.63 C 11.425 km/h
504 28-11-2019 23:00:00 10.00833 C 8.53 g/m*3 9.12 C 7.50833 km/h
505 29-11-2019 00:00:00 9.44167 C 8.49 g/m*3 8.86 C 5.89167 km/h
506 29-11-2019 01:00:00 9.05 C 8.36 g/m*3 9.05 C 2.93333 km/h
507 29-11-2019 02:00:00 8.825 C 8.3 g/m*3 8.82 C 0 km/h
508 29-11-2019 03:00:00 8.58333 C 8.23 g/m*3 8.58 C 0.26667 km/h
509 29-11-2019 04:00:00 8.21667 C 8.04 g/m*3 8.22 C 2.15 km/h
510 29-11-2019 05:00:00 7.15 C 7.34 g/m*3 7.15 C 4.55 km/h
511 29-11-2019 06:00:00 6.79167 C 7.26 g/m*3 6.79 C 2.80833 km/h
512 29-11-2019 07:00:00 6.38333 C 7.01 g/m*3 6.38 C 2.00833 km/h
513 29-11-2019 08:00:00 5.95833 C 6.88 g/m*3 5.96 C 0.4 km/h
514 29-11-2019 09:00:00 5.525 C 6.68 g/m*3 5.53 C 1.73333 km/h
515 29-11-2019 10:00:00 5.73333 C 6.69 g/m*3 5.73 C 3.06667 km/h
516 29-11-2019 11:00:00 6.45833 C 6.76 g/m*3 6.46 C 4.00833 km/h
517 29-11-2019 12:00:00 7.34167 C 6.65 g/m*3 5.26 C 11.01667 km/h
518 29-11-2019 13:00:00 6.99167 C 6.45 g/m*3 6 C 6.04167 km/h
519 29-11-2019 14:00:00 7.49167 C 6.11 g/m*3 6.08 C 7.925 km/h
520 29-11-2019 15:00:00 7.675 C 5.92 g/m*3 5.94 C 9.55 km/h
521 29-11-2019 16:00:00 6.63333 C 5.89 g/m*3 6.63 C 4.00833 km/h
522 29-11-2019 17:00:00 4.95833 C 5.73 g/m*3 4.96 C 3.33333 km/h
523 29-11-2019 18:00:00 4.88333 C 5.86 g/m*3 4.88 C 1.46667 km/h
524 29-11-2019 19:00:00 5.13333 C 5.83 g/m*3 5.13 C 2.53333 km/h
525 29-11-2019 20:00:00 4.80833 C 5.8 g/m*3 4.81 C 3.46667 km/h
Sensor: Nr:Datum:Temp:Abs-Feuchte:Windchill:Wind:
Aussen-T/F 526 29-11-2019 21:00:00 4.55833 C 5.8 g/m*3 4.56 C 2.8 km/h
527 29-11-2019 22:00:00 3.55 C 5.55 g/m*3 3.55 C 0.93333 km/h
528 29-11-2019 23:00:00 2.56667 C 5.34 g/m*3 2.57 C 1.2 km/h
529 30-11-2019 00:00:00 2.60833 C 5.44 g/m*3 2.61 C 1.33333 km/h
530 30-11-2019 01:00:00 1.975 C 5.21 g/m*3 1.98 C 0.66667 km/h
531 30-11-2019 02:00:00 1.725 C 5.18 g/m*3 1.73 C 0.4 km/h
532 30-11-2019 03:00:00 1.51667 C 5.11 g/m*3 1.52 C 0.93333 km/h
533 30-11-2019 04:00:00 1.93333 C 5.29 g/m*3 1.93 C 2.93333 km/h
534 30-11-2019 05:00:00 1.35 C 5.05 g/m*3 1.35 C 0.93333 km/h
535 30-11-2019 06:00:00 0.18333 C 4.66 g/m*3 0.18 C 0.13333 km/h
536 30-11-2019 07:00:00 -0.19167 C 4.57 g/m*3 -0.19 C 0.26667 km/h
537 30-11-2019 08:00:00 0.14167 C 4.7 g/m*3 0.14 C 0 km/h
538 30-11-2019 09:00:00 0.18333 C 4.71 g/m*3 0.18 C 0.53333 km/h
539 30-11-2019 10:00:00 0.55 C 4.88 g/m*3 0.55 C 1.6 km/h
540 30-11-2019 11:00:00 0.89167 C 5 g/m*3 0.89 C 2.26667 km/h
541 30-11-2019 12:00:00 1.35 C 5.16 g/m*3 1.35 C 0.66667 km/h
542 30-11-2019 13:00:00 2.11667 C 5.43 g/m*3 2.12 C 0.93333 km/h
543 30-11-2019 14:00:00 2.26667 C 5.49 g/m*3 2.27 C 2.13333 km/h
544 30-11-2019 15:00:00 2.19167 C 5.46 g/m*3 2.19 C 1.2 km/h
545 30-11-2019 16:00:00 1.99167 C 5.39 g/m*3 1.99 C 0 km/h
546 30-11-2019 17:00:00 1.525 C 5.22 g/m*3 1.53 C 0 km/h
547 30-11-2019 18:00:00 1.05833 C 5.05 g/m*3 1.06 C 0 km/h
548 30-11-2019 19:00:00 0.79167 C 4.96 g/m*3 0.79 C 0 km/h
549 30-11-2019 20:00:00 0.65 C 4.92 g/m*3 0.65 C 0 km/h
550 30-11-2019 21:00:00 0.58333 C 4.89 g/m*3 0.58 C 0.26667 km/h
Sensor: Nr:Datum:Temp:Abs-Feuchte:Windchill:Wind:
Aussen-T/F 551 30-11-2019 22:00:00 0.66667 C 4.92 g/m*3 0.67 C 0.53333 km/h
552 30-11-2019 23:00:00 0.63333 C 4.91 g/m*3 0.63 C 1.2 km/h
553 01-12-2019 00:00:00 0.6 C 4.91 g/m*3 0.6 C 0.26667 km/h
554 01-12-2019 01:00:00 0.75833 C 5 g/m*3 0.76 C 0.26667 km/h
555 01-12-2019 02:00:00 0.63333 C 4.95 g/m*3 0.63 C 0.53333 km/h
556 01-12-2019 03:00:00 0.5 C 4.86 g/m*3 0.5 C 0.93333 km/h
557 01-12-2019 04:00:00 0.10833 C 4.76 g/m*3 0.11 C 0 km/h
558 01-12-2019 05:00:00 0.1 C 4.78 g/m*3 0.1 C 0.13333 km/h
559 01-12-2019 06:00:00 -0.025 C 4.71 g/m*3 -0.03 C 0.4 km/h
560 01-12-2019 07:00:00 0.35 C 4.86 g/m*3 0.35 C 2.53333 km/h
561 01-12-2019 08:00:00 0.70833 C 4.99 g/m*3 0.71 C 1.06667 km/h
562 01-12-2019 09:00:00 0.84167 C 5.03 g/m*3 0.84 C 0.26667 km/h
563 01-12-2019 10:00:00 1.275 C 5.18 g/m*3 1.27 C 0.13333 km/h
564 01-12-2019 11:00:00 2.1 C 5.48 g/m*3 2.1 C 3.075 km/h
565 01-12-2019 12:00:00 2.975 C 5.48 g/m*3 1.69 C 5.23333 km/h
566 01-12-2019 13:00:00 3.75833 C 5.24 g/m*3 3.76 C 2.13333 km/h
567 01-12-2019 14:00:00 4.20833 C 5.11 g/m*3 4.21 C 0.93333 km/h
568 01-12-2019 15:00:00 3.98333 C 5.33 g/m*3 3.98 C 0 km/h
569 01-12-2019 16:00:00 3.16667 C 5.21 g/m*3 3.17 C 0 km/h
570 01-12-2019 17:00:00 2.81667 C 5.2 g/m*3 2.82 C 0 km/h
571 01-12-2019 18:00:00 2.8 C 5.19 g/m*3 2.8 C 0 km/h
572 01-12-2019 19:00:00 2.86667 C 5.2 g/m*3 2.87 C 0 km/h
573 01-12-2019 20:00:00 2.725 C 5.14 g/m*3 2.73 C 0 km/h
574 01-12-2019 21:00:00 2.45 C 5.06 g/m*3 2.45 C 0.13333 km/h
575 01-12-2019 22:00:00 1.99167 C 4.95 g/m*3 1.99 C 0 km/h
Sensor: Nr:Datum:Temp:Abs-Feuchte:Windchill:Wind:
Aussen-T/F 576 01-12-2019 23:00:00 1.33333 C 4.8 g/m*3 1.33 C 0.26667 km/h
577 02-12-2019 00:00:00 0.775 C 4.7 g/m*3 0.78 C 0.66667 km/h
578 02-12-2019 01:00:00 0.63333 C 4.71 g/m*3 0.63 C 0.4 km/h
579 02-12-2019 02:00:00 0.09167 C 4.53 g/m*3 0.09 C 1.6 km/h
580 02-12-2019 03:00:00 -0.36667 C 4.41 g/m*3 -0.37 C 2.13333 km/h
581 02-12-2019 04:00:00 -0.44167 C 4.44 g/m*3 -0.44 C 0.53333 km/h
582 02-12-2019 05:00:00 -0.35 C 4.48 g/m*3 -0.35 C 0.26667 km/h
583 02-12-2019 06:00:00 -0.6 C 4.42 g/m*3 -0.6 C 1.06667 km/h
584 02-12-2019 07:00:00 -1.15833 C 4.24 g/m*3 -1.16 C 0.26667 km/h
585 02-12-2019 08:00:00 -0.65 C 4.43 g/m*3 -0.65 C 1.06667 km/h
586 02-12-2019 09:00:00 0.26667 C 4.71 g/m*3 0.27 C 4.26667 km/h
587 02-12-2019 10:00:00 0.85 C 4.84 g/m*3 -0.66 C 5.08333 km/h
588 02-12-2019 11:00:00 1.58333 C 4.99 g/m*3 1.58 C 4.41667 km/h
589 02-12-2019 12:00:00 2.78333 C 5.31 g/m*3 2.78 C 4.69167 km/h
590 02-12-2019 13:00:00 3.95 C 5.54 g/m*3 2.76 C 5.34167 km/h
591 02-12-2019 14:00:00 4.725 C 5.91 g/m*3 4.72 C 4.55 km/h
592 02-12-2019 15:00:00 5.19167 C 6.12 g/m*3 5.19 C 1.2 km/h
593 02-12-2019 16:00:00 4.675 C 6.12 g/m*3 4.68 C 2.8 km/h
594 02-12-2019 17:00:00 4.20833 C 6 g/m*3 4.21 C 1.6 km/h
595 02-12-2019 18:00:00 3.875 C 5.88 g/m*3 3.88 C 0.53333 km/h
596 02-12-2019 19:00:00 3.425 C 5.78 g/m*3 3.43 C 0.93333 km/h
597 02-12-2019 20:00:00 3.7 C 5.92 g/m*3 3.7 C 1.73333 km/h
598 02-12-2019 21:00:00 3.63333 C 5.89 g/m*3 3.63 C 4.825 km/h
599 02-12-2019 22:00:00 3.475 C 5.89 g/m*3 3.48 C 4.40833 km/h
600 02-12-2019 23:00:00 3.4 C 5.86 g/m*3 3.4 C 3.475 km/h
Sensor: Nr:Datum:Temp:Abs-Feuchte:Windchill:Wind:
Aussen-T/F 601 03-12-2019 00:00:00 3.40833 C 5.87 g/m*3 1.52 C 7.11667 km/h
602 03-12-2019 01:00:00 3.55833 C 5.93 g/m*3 3.56 C 4.80833 km/h
603 03-12-2019 02:00:00 3.71667 C 5.99 g/m*3 3.72 C 2.00833 km/h
604 03-12-2019 03:00:00 3.8 C 6.04 g/m*3 2.63 C 5.21667 km/h
605 03-12-2019 04:00:00 3.89167 C 6.11 g/m*3 2.26 C 6.56667 km/h
606 03-12-2019 05:00:00 4.01667 C 6.17 g/m*3 4.02 C 4.275 km/h
607 03-12-2019 06:00:00 4.1 C 6.21 g/m*3 4.1 C 1.73333 km/h
608 03-12-2019 07:00:00 4.19167 C 6.25 g/m*3 4.19 C 4.00833 km/h
609 03-12-2019 08:00:00 4.23333 C 6.26 g/m*3 2.97 C 5.625 km/h
610 03-12-2019 09:00:00 4.35 C 6.31 g/m*3 4.35 C 4.94167 km/h
611 03-12-2019 10:00:00 4.61667 C 6.43 g/m*3 3.46 C 5.49167 km/h
612 03-12-2019 11:00:00 5.11667 C 6.64 g/m*3 5.12 C 3.2 km/h
613 03-12-2019 12:00:00 5.6 C 6.86 g/m*3 5.6 C 3.46667 km/h
614 03-12-2019 13:00:00 6.06667 C 7 g/m*3 6.07 C 4.26667 km/h
615 03-12-2019 14:00:00 6.51667 C 7.13 g/m*3 6.52 C 1.06667 km/h
616 03-12-2019 15:00:00 6.675 C 7.13 g/m*3 6.68 C 0 km/h
617 03-12-2019 16:00:00 6.46667 C 7.07 g/m*3 6.47 C 0 km/h
618 03-12-2019 17:00:00 5.98333 C 6.89 g/m*3 5.98 C 0 km/h
619 03-12-2019 18:00:00 5.56667 C 6.71 g/m*3 5.57 C 0 km/h
620 03-12-2019 19:00:00 5.29167 C 6.62 g/m*3 5.29 C 0.66667 km/h
621 03-12-2019 20:00:00 4.93333 C 6.48 g/m*3 4.93 C 0 km/h
622 03-12-2019 21:00:00 4.6 C 6.34 g/m*3 4.6 C 0 km/h
623 03-12-2019 22:00:00 4.00833 C 6.09 g/m*3 4.01 C 2.4 km/h
624 03-12-2019 23:00:00 3.46667 C 5.87 g/m*3 3.47 C 2.93333 km/h
625 04-12-2019 00:00:00 2.41667 C 5.43 g/m*3 2.42 C 0.4 km/h
Sensor: Nr:Datum:Temp:Abs-Feuchte:Windchill:Wind:
Aussen-T/F 626 04-12-2019 01:00:00 1.24167 C 5.04 g/m*3 1.24 C 0 km/h
627 04-12-2019 02:00:00 0.90833 C 4.95 g/m*3 0.91 C 0 km/h
628 04-12-2019 03:00:00 1.64167 C 5.26 g/m*3 1.64 C 0 km/h
629 04-12-2019 04:00:00 1.74167 C 5.3 g/m*3 1.74 C 0 km/h
630 04-12-2019 05:00:00 1.74167 C 5.3 g/m*3 1.74 C 0 km/h
631 04-12-2019 06:00:00 1.93333 C 5.37 g/m*3 1.93 C 0.26667 km/h
632 04-12-2019 07:00:00 1.81667 C 5.32 g/m*3 1.82 C 0.26667 km/h
633 04-12-2019 08:00:00 1.725 C 5.29 g/m*3 1.73 C 0.13333 km/h
634 04-12-2019 09:00:00 1.8 C 5.32 g/m*3 1.8 C 1.06667 km/h
635 04-12-2019 10:00:00 1.83333 C 5.33 g/m*3 1.83 C 1.33333 km/h
636 04-12-2019 11:00:00 1.83333 C 5.32 g/m*3 1.83 C 0 km/h
637 04-12-2019 12:00:00 2.15 C 5.45 g/m*3 2.15 C 0.4 km/h
638 04-12-2019 13:00:00 2.51667 C 5.58 g/m*3 2.52 C 1.46667 km/h
639 04-12-2019 14:00:00 2.825 C 5.68 g/m*3 2.83 C 2.26667 km/h
640 04-12-2019 15:00:00 2.58333 C 5.55 g/m*3 2.58 C 0 km/h
641 04-12-2019 16:00:00 2.025 C 5.32 g/m*3 2.03 C 1.06667 km/h
642 04-12-2019 17:00:00 1.43333 C 5.12 g/m*3 1.43 C 0 km/h
643 04-12-2019 18:00:00 1.10833 C 5.01 g/m*3 1.11 C 0 km/h
644 04-12-2019 19:00:00 0.41667 C 4.77 g/m*3 0.42 C 0 km/h
645 04-12-2019 20:00:00 -0.08333 C 4.62 g/m*3 -0.08 C 0.4 km/h
646 04-12-2019 21:00:00 -0.58333 C 4.47 g/m*3 -0.58 C 0.26667 km/h
647 04-12-2019 22:00:00 -1.23333 C 4.27 g/m*3 -1.23 C 0 km/h
648 04-12-2019 23:00:00 -1.54167 C 4.18 g/m*3 -1.54 C 0 km/h
649 05-12-2019 00:00:00 -1.775 C 4.11 g/m*3 -1.78 C 0.13333 km/h
650 05-12-2019 01:00:00 -1.78333 C 4.13 g/m*3 -1.78 C 0.13333 km/h
Sensor: Nr:Datum:Temp:Abs-Feuchte:Windchill:Wind:
Aussen-T/F 651 05-12-2019 02:00:00 -1.86667 C 4.12 g/m*3 -1.87 C 0 km/h
652 05-12-2019 03:00:00 -2.225 C 4 g/m*3 -2.23 C 0.66667 km/h
653 05-12-2019 04:00:00 -1.84167 C 4.13 g/m*3 -1.84 C 1.06667 km/h
654 05-12-2019 05:00:00 -1.75833 C 4.16 g/m*3 -1.76 C 0.4 km/h
655 05-12-2019 06:00:00 -1.83333 C 4.14 g/m*3 -1.83 C 0.13333 km/h
656 05-12-2019 07:00:00 -2.03333 C 4.08 g/m*3 -2.03 C 0.26667 km/h
657 05-12-2019 08:00:00 -2.075 C 4.07 g/m*3 -2.08 C 0.13333 km/h
658 05-12-2019 09:00:00 -1.81667 C 4.14 g/m*3 -1.82 C 1.2 km/h
659 05-12-2019 10:00:00 -1.575 C 4.21 g/m*3 -1.58 C 1.06667 km/h
660 05-12-2019 11:00:00 -0.94167 C 4.4 g/m*3 -0.94 C 2.13333 km/h
661 05-12-2019 12:00:00 -0.44167 C 4.56 g/m*3 -0.44 C 1.46667 km/h
662 05-12-2019 13:00:00 0 C 4.7 g/m*3 0 C 3.06667 km/h
663 05-12-2019 14:00:00 0.6 C 4.9 g/m*3 0.6 C 2.4 km/h
664 05-12-2019 15:00:00 0.675 C 4.92 g/m*3 0.68 C 1.6 km/h
665 05-12-2019 16:00:00 0.29167 C 4.8 g/m*3 0.29 C 0 km/h
666 05-12-2019 17:00:00 -0.225 C 4.63 g/m*3 -0.23 C 0 km/h
667 05-12-2019 18:00:00 -0.825 C 4.44 g/m*3 -0.83 C 0.26667 km/h
668 05-12-2019 19:00:00 -1.25833 C 4.31 g/m*3 -1.26 C 1.46667 km/h
669 05-12-2019 20:00:00 -0.65833 C 4.5 g/m*3 -0.66 C 3.75 km/h
670 05-12-2019 21:00:00 -1.16667 C 4.33 g/m*3 -1.17 C 1.86667 km/h
671 05-12-2019 22:00:00 -1.39167 C 4.27 g/m*3 -1.39 C 1.73333 km/h
672 05-12-2019 23:00:00 -1.825 C 4.14 g/m*3 -1.83 C 0.8 km/h
673 06-12-2019 00:00:00 -2.28333 C 4.01 g/m*3 -2.28 C 0.8 km/h
674 06-12-2019 01:00:00 -1.125 C 4.36 g/m*3 -1.13 C 2.66667 km/h
675 06-12-2019 02:00:00 -0.575 C 4.52 g/m*3 -2.41 C 5.35833 km/h
Sensor: Nr:Datum:Temp:Abs-Feuchte:Windchill:Wind:
Aussen-T/F 676 06-12-2019 03:00:00 -0.225 C 4.6 g/m*3 -1.89 C 5.09167 km/h
677 06-12-2019 04:00:00 -0.10833 C 4.6 g/m*3 -0.11 C 3.75 km/h
678 06-12-2019 05:00:00 0.13333 C 4.65 g/m*3 0.13 C 3.475 km/h
679 06-12-2019 06:00:00 0.36667 C 4.7 g/m*3 0.37 C 3.48333 km/h
680 06-12-2019 07:00:00 0.725 C 4.79 g/m*3 0.73 C 4.41667 km/h
681 06-12-2019 08:00:00 1.31667 C 4.89 g/m*3 1.32 C 4.3 km/h
682 06-12-2019 09:00:00 1.89167 C 5.11 g/m*3 0.3 C 5.625 km/h
683 06-12-2019 10:00:00 2.65 C 5.43 g/m*3 2.65 C 2 km/h
684 06-12-2019 11:00:00 3.86667 C 5.92 g/m*3 2.55 C 5.63333 km/h
685 06-12-2019 12:00:00 4.7 C 6.23 g/m*3 3.32 C 6.16667 km/h
686 06-12-2019 13:00:00 4.95833 C 6.44 g/m*3 3.49 C 6.56667 km/h
687 06-12-2019 14:00:00 5.25833 C 6.57 g/m*3 5.26 C 2.53333 km/h
688 06-12-2019 15:00:00 5.44167 C 6.65 g/m*3 4.4 C 5.5 km/h
689 06-12-2019 16:00:00 5.95833 C 6.77 g/m*3 3.76 C 10.20833 km/h
690 06-12-2019 17:00:00 6.225 C 6.7 g/m*3 4.59 C 7.925 km/h
691 06-12-2019 18:00:00 6.65 C 6.82 g/m*3 4.51 C 10.61667 km/h
692 06-12-2019 19:00:00 6.91667 C 6.95 g/m*3 4.01 C 15.7 km/h
693 06-12-2019 20:00:00 7.28333 C 7.02 g/m*3 3.97 C 19.84167 km/h
694 06-12-2019 21:00:00 7.19167 C 7.02 g/m*3 3.73 C 20.90833 km/h
695 06-12-2019 22:00:00 7.25 C 7.03 g/m*3 4.03 C 18.91667 km/h
696 06-12-2019 23:00:00 7.44167 C 7.12 g/m*3 5.18 C 12.23333 km/h
697 07-12-2019 00:00:00 7.65 C 7.27 g/m*3 4.92 C 15.70833 km/h
698 07-12-2019 01:00:00 8.09167 C 7.49 g/m*3 6.03 C 11.83333 km/h
699 07-12-2019 02:00:00 8.14167 C 7.7 g/m*3 6.81 C 8.05833 km/h
700 07-12-2019 03:00:00 8.68333 C 7.9 g/m*3 6.68 C 12.225 km/h
Sensor: Nr:Datum:Temp:Abs-Feuchte:Windchill:Wind:
Aussen-T/F 701 07-12-2019 04:00:00 8.85833 C 7.8 g/m*3 7.65 C 8.05833 km/h
702 07-12-2019 05:00:00 8.40833 C 7.74 g/m*3 7.41 C 6.85833 km/h
703 07-12-2019 06:00:00 8.46667 C 7.51 g/m*3 6.89 C 9.53333 km/h
704 07-12-2019 07:00:00 7.675 C 7.26 g/m*3 6.6 C 6.69167 km/h
705 07-12-2019 08:00:00 8.35 C 7.6 g/m*3 7.15 C 7.65833 km/h
706 07-12-2019 09:00:00 8.70833 C 7.77 g/m*3 8.71 C 3.75 km/h
707 07-12-2019 10:00:00 9.19167 C 7.85 g/m*3 7.93 C 8.6 km/h
708 07-12-2019 11:00:00 9.38333 C 8.12 g/m*3 8.95 C 5.35 km/h
709 07-12-2019 12:00:00 9.5 C 7.87 g/m*3 8.21 C 9.025 km/h
710 07-12-2019 13:00:00 10.025 C 7.76 g/m*3 8.65 C 10.08333 km/h
711 07-12-2019 14:00:00 10.15 C 7.79 g/m*3 9.44 C 6.84167 km/h
712 07-12-2019 15:00:00 10.06667 C 7.83 g/m*3 10.07 C 4.00833 km/h
713 07-12-2019 16:00:00 9.39167 C 7.74 g/m*3 9.39 C 1.33333 km/h
714 07-12-2019 17:00:00 8.74167 C 7.68 g/m*3 8.74 C 1.2 km/h
715 07-12-2019 18:00:00 8.40833 C 7.58 g/m*3 8.41 C 1.46667 km/h
716 07-12-2019 19:00:00 8.25 C 7.65 g/m*3 8.25 C 1.33333 km/h
717 07-12-2019 20:00:00 8.01667 C 7.53 g/m*3 8.02 C 0.53333 km/h
718 07-12-2019 21:00:00 8.26667 C 7.6 g/m*3 8.27 C 4.00833 km/h
719 07-12-2019 22:00:00 8.39167 C 7.63 g/m*3 8.39 C 1.34167 km/h
720 07-12-2019 23:00:00 8.2 C 7.65 g/m*3 8.2 C 2.54167 km/h
721 08-12-2019 00:00:00 8.9 C 7.51 g/m*3 7.7 C 8.05 km/h
722 08-12-2019 01:00:00 9.15833 C 7.55 g/m*3 8.35 C 6.575 km/h
723 08-12-2019 02:00:00 9.44167 C 7.31 g/m*3 8.12 C 9.13333 km/h
724 08-12-2019 03:00:00 9.55 C 7.36 g/m*3 7.9 C 11.14167 km/h
725 08-12-2019 04:00:00 9.91667 C 7.7 g/m*3 7.68 C 16.1 km/h
Sensor: Nr:Datum:Temp:Abs-Feuchte:Windchill:Wind:
Aussen-T/F 726 08-12-2019 05:00:00 9.89167 C 7.88 g/m*3 7.67 C 15.96667 km/h
727 08-12-2019 06:00:00 10.08333 C 8.01 g/m*3 7.37 C 21.18333 km/h
728 08-12-2019 07:00:00 10.425 C 8.05 g/m*3 8.22 C 16.9 km/h
729 08-12-2019 08:00:00 10.56667 C 8.15 g/m*3 8 C 21.05 km/h
730 08-12-2019 09:00:00 10.65 C 8.27 g/m*3 7.65 C 26.69167 km/h
731 08-12-2019 10:00:00 10.75833 C 8.45 g/m*3 7.76 C 27.06667 km/h
732 08-12-2019 11:00:00 11.01667 C 8.55 g/m*3 11.02 C 22.39167 km/h
733 08-12-2019 12:00:00 11.54167 C 8.79 g/m*3 11.54 C 21.975 km/h
734 08-12-2019 13:00:00 11.70833 C 9.05 g/m*3 11.71 C 18.375 km/h
735 08-12-2019 14:00:00 11.9 C 9.21 g/m*3 11.9 C 16.23333 km/h
736 08-12-2019 15:00:00 12.09167 C 9.32 g/m*3 12.09 C 15.03333 km/h
737 08-12-2019 16:00:00 11.79167 C 9.27 g/m*3 11.79 C 15.16667 km/h
738 08-12-2019 17:00:00 9.35 C 8.27 g/m*3 8.51 C 6.84167 km/h
739 08-12-2019 18:00:00 8.775 C 8.05 g/m*3 7.78 C 7.09167 km/h
740 08-12-2019 19:00:00 8.75 C 7.87 g/m*3 7.88 C 6.575 km/h
741 08-12-2019 20:00:00 8.48333 C 7.78 g/m*3 7.04 C 8.85833 km/h
742 08-12-2019 21:00:00 8.83333 C 7.59 g/m*3 7.01 C 11.3 km/h
743 08-12-2019 22:00:00 8.80833 C 7.59 g/m*3 6.49 C 14.625 km/h
744 08-12-2019 23:00:00 9.025 C 7.48 g/m*3 6.51 C 16.63333 km/h
745 09-12-2019 00:00:00 8.75833 C 7.16 g/m*3 6.23 C 16.23333 km/h
746 09-12-2019 01:00:00 8.575 C 6.96 g/m*3 5.58 C 19.96667 km/h
747 09-12-2019 02:00:00 7.975 C 6.84 g/m*3 5.34 C 15.56667 km/h
748 09-12-2019 03:00:00 7.95833 C 6.8 g/m*3 5.27 C 15.96667 km/h
749 09-12-2019 04:00:00 8.15 C 6.91 g/m*3 5.06 C 19.85 km/h
750 09-12-2019 05:00:00 7.85833 C 6.54 g/m*3 4.92 C 17.83333 km/h
Sensor: Nr:Datum:Temp:Abs-Feuchte:Windchill:Wind:
Aussen-T/F 751 09-12-2019 06:00:00 7.99167 C 6.62 g/m*3 5.07 C 17.96667 km/h
752 09-12-2019 07:00:00 8.04167 C 6.83 g/m*3 5.31 C 16.49167 km/h
753 09-12-2019 08:00:00 8.26667 C 6.83 g/m*3 5.41 C 17.96667 km/h
754 09-12-2019 09:00:00 8.20833 C 7 g/m*3 5.34 C 17.96667 km/h
755 09-12-2019 10:00:00 8.30833 C 7.11 g/m*3 5.86 C 14.76667 km/h
756 09-12-2019 11:00:00 8.54167 C 7.08 g/m*3 6.2 C 14.36667 km/h
757 09-12-2019 12:00:00 8.5 C 7.09 g/m*3 6.53 C 11.825 km/h
758 09-12-2019 13:00:00 8.63333 C 7.17 g/m*3 6.42 C 13.56667 km/h
759 09-12-2019 14:00:00 8.85 C 7.11 g/m*3 6.95 C 11.83333 km/h
760 09-12-2019 15:00:00 8.15 C 7.08 g/m*3 6.94 C 7.525 km/h
761 09-12-2019 16:00:00 7.75833 C 6.76 g/m*3 6.24 C 8.60833 km/h
762 09-12-2019 17:00:00 7.425 C 6.89 g/m*3 7.43 C 4.80833 km/h
763 09-12-2019 18:00:00 6.84167 C 6.97 g/m*3 5.91 C 5.76667 km/h
764 09-12-2019 19:00:00 6.58333 C 6.98 g/m*3 4.76 C 8.99167 km/h
765 09-12-2019 20:00:00 6.575 C 6.88 g/m*3 3.76 C 14.5 km/h
766 09-12-2019 21:00:00 6.24167 C 6.67 g/m*3 4.07 C 10.35 km/h
767 09-12-2019 22:00:00 5.75 C 6.35 g/m*3 3.43 C 10.61667 km/h
768 09-12-2019 23:00:00 5.39167 C 6.13 g/m*3 3.26 C 9.40833 km/h
769 10-12-2019 00:00:00 4.79167 C 5.85 g/m*3 3.43 C 6.16667 km/h
770 10-12-2019 01:00:00 3.8 C 5.61 g/m*3 3.8 C 3.33333 km/h
771 10-12-2019 02:00:00 3.38333 C 5.49 g/m*3 3.38 C 3.60833 km/h
772 10-12-2019 03:00:00 2.64167 C 5.37 g/m*3 2.64 C 2 km/h
773 10-12-2019 04:00:00 2.025 C 5.21 g/m*3 2.03 C 1.33333 km/h
774 10-12-2019 05:00:00 2.275 C 5.35 g/m*3 2.28 C 2.8 km/h
775 10-12-2019 06:00:00 2.05833 C 5.24 g/m*3 2.06 C 2.93333 km/h
Sensor: Nr:Datum:Temp:Abs-Feuchte:Windchill:Wind:
Aussen-T/F 776 10-12-2019 07:00:00 2.075 C 5.28 g/m*3 2.08 C 2.66667 km/h
777 10-12-2019 08:00:00 1.56667 C 5.1 g/m*3 1.57 C 2.4 km/h
778 10-12-2019 09:00:00 1.95833 C 5.26 g/m*3 1.96 C 2.66667 km/h
779 10-12-2019 10:00:00 3.13333 C 5.62 g/m*3 3.13 C 2.40833 km/h
780 10-12-2019 11:00:00 3.35833 C 5.66 g/m*3 2.02 C 5.49167 km/h
781 10-12-2019 12:00:00 4.475 C 5.89 g/m*3 1.84 C 10.88333 km/h
782 10-12-2019 13:00:00 5.21667 C 6.04 g/m*3 3.7 C 6.85833 km/h
783 10-12-2019 14:00:00 5.00833 C 5.93 g/m*3 5.01 C 3.60833 km/h
784 10-12-2019 15:00:00 4.13333 C 5.71 g/m*3 4.13 C 3.2 km/h
785 10-12-2019 16:00:00 3.84167 C 5.58 g/m*3 3.84 C 3.88333 km/h
786 10-12-2019 17:00:00 3.675 C 5.35 g/m*3 3.68 C 4.95 km/h
787 10-12-2019 18:00:00 2.98333 C 5.26 g/m*3 2.98 C 0.4 km/h
788 10-12-2019 19:00:00 2.44167 C 5.23 g/m*3 2.44 C 0.26667 km/h
789 10-12-2019 20:00:00 3.10833 C 5.41 g/m*3 3.11 C 2.94167 km/h
790 10-12-2019 21:00:00 3.18333 C 5.42 g/m*3 3.18 C 0.66667 km/h
791 10-12-2019 22:00:00 3.08333 C 5.46 g/m*3 3.08 C 1.73333 km/h
792 10-12-2019 23:00:00 3.725 C 5.63 g/m*3 3.73 C 1.06667 km/h
793 11-12-2019 00:00:00 4.05833 C 5.66 g/m*3 4.06 C 1.2 km/h
794 11-12-2019 01:00:00 4.275 C 5.66 g/m*3 4.28 C 0.93333 km/h
795 11-12-2019 02:00:00 4.08333 C 5.73 g/m*3 4.08 C 1.33333 km/h
796 11-12-2019 03:00:00 4.08333 C 5.77 g/m*3 4.08 C 1.33333 km/h
797 11-12-2019 04:00:00 3.81667 C 5.78 g/m*3 3.82 C 0.93333 km/h
798 11-12-2019 05:00:00 3.69167 C 5.83 g/m*3 3.69 C 0 km/h
799 11-12-2019 06:00:00 3.425 C 5.81 g/m*3 3.43 C 0 km/h
800 11-12-2019 07:00:00 3.33333 C 5.78 g/m*3 3.33 C 0 km/h
Sensor: Nr:Datum:Temp:Abs-Feuchte:Windchill:Wind:
Aussen-T/F 801 11-12-2019 08:00:00 3.25833 C 5.79 g/m*3 3.26 C 0 km/h
802 11-12-2019 09:00:00 3.26667 C 5.81 g/m*3 3.27 C 0 km/h
803 11-12-2019 10:00:00 3.54167 C 5.92 g/m*3 3.54 C 0 km/h
804 11-12-2019 11:00:00 3.75833 C 6.01 g/m*3 3.76 C 0 km/h
805 11-12-2019 12:00:00 3.9 C 6.06 g/m*3 3.9 C 0 km/h
806 11-12-2019 13:00:00 3.93333 C 6.08 g/m*3 3.93 C 0 km/h
807 11-12-2019 14:00:00 4.09167 C 6.14 g/m*3 4.09 C 0 km/h
808 11-12-2019 15:00:00 4.2 C 6.19 g/m*3 4.2 C 0 km/h
809 11-12-2019 16:00:00 4.11667 C 6.16 g/m*3 4.12 C 0 km/h
810 11-12-2019 17:00:00 3.91667 C 6.07 g/m*3 3.92 C 0.26667 km/h
811 11-12-2019 18:00:00 4.13333 C 6.22 g/m*3 4.13 C 0 km/h
812 11-12-2019 19:00:00 4.35 C 6.31 g/m*3 4.35 C 0 km/h
813 11-12-2019 20:00:00 4.60833 C 6.42 g/m*3 4.61 C 2.15 km/h
814 11-12-2019 21:00:00 4.75833 C 6.49 g/m*3 2.41 C 9.81667 km/h
815 11-12-2019 22:00:00 4.525 C 6.35 g/m*3 2.67 C 7.65 km/h
816 11-12-2019 23:00:00 4.225 C 6.21 g/m*3 4.22 C 2.93333 km/h
817 12-12-2019 00:00:00 3.69167 C 6.01 g/m*3 3.69 C 0.8 km/h
818 12-12-2019 01:00:00 3.36667 C 5.9 g/m*3 3.37 C 1.73333 km/h
819 12-12-2019 02:00:00 2.83333 C 5.7 g/m*3 2.83 C 0 km/h
820 12-12-2019 03:00:00 3.29167 C 5.88 g/m*3 3.29 C 0.8 km/h
821 12-12-2019 04:00:00 3.69167 C 6.04 g/m*3 3.69 C 0 km/h
822 12-12-2019 05:00:00 3.175 C 5.84 g/m*3 3.18 C 0 km/h
823 12-12-2019 06:00:00 2.95 C 5.75 g/m*3 2.95 C 0.53333 km/h
824 12-12-2019 07:00:00 3.75 C 6.1 g/m*3 3.75 C 0 km/h
825 12-12-2019 08:00:00 4.025 C 6.21 g/m*3 4.03 C 0 km/h
Sensor: Nr:Datum:Temp:Abs-Feuchte:Windchill:Wind:
Aussen-T/F 826 12-12-2019 09:00:00 4.525 C 6.45 g/m*3 4.53 C 0.8 km/h
827 12-12-2019 10:00:00 4.80833 C 6.56 g/m*3 3.63 C 5.625 km/h
828 12-12-2019 11:00:00 4.9 C 6.51 g/m*3 3.47 C 6.43333 km/h
829 12-12-2019 12:00:00 5.2 C 6.35 g/m*3 3.36 C 8.05 km/h
830 12-12-2019 13:00:00 5.14167 C 6.05 g/m*3 3.22 C 8.33333 km/h
831 12-12-2019 14:00:00 5.14167 C 5.87 g/m*3 3.96 C 5.775 km/h
832 12-12-2019 15:00:00 4.875 C 5.86 g/m*3 3.08 C 7.64167 km/h
833 12-12-2019 16:00:00 4.38333 C 5.66 g/m*3 4.38 C 1.86667 km/h
834 12-12-2019 17:00:00 2.875 C 5.28 g/m*3 2.88 C 1.06667 km/h
835 12-12-2019 18:00:00 2.00833 C 5.2 g/m*3 2.01 C 1.46667 km/h
836 12-12-2019 19:00:00 1.68333 C 5.13 g/m*3 1.68 C 1.06667 km/h
837 12-12-2019 20:00:00 1.675 C 5.16 g/m*3 1.68 C 1.6 km/h
838 12-12-2019 21:00:00 2.31667 C 5.31 g/m*3 2.32 C 3.06667 km/h
839 12-12-2019 22:00:00 1.85833 C 5.1 g/m*3 1.86 C 1.73333 km/h
840 12-12-2019 23:00:00 2.4 C 5.21 g/m*3 0.99 C 5.35 km/h
841 13-12-2019 00:00:00 2.38333 C 5.1 g/m*3 0.96 C 5.35833 km/h
842 13-12-2019 01:00:00 2.78333 C 5.13 g/m*3 0.12 C 9.53333 km/h
843 13-12-2019 02:00:00 2.9 C 5.13 g/m*3 0.47 C 8.725 km/h
844 13-12-2019 03:00:00 2.725 C 5.13 g/m*3 -0.01 C 9.80833 km/h
845 13-12-2019 04:00:00 2.525 C 5.19 g/m*3 -0.19 C 9.55 km/h
846 13-12-2019 05:00:00 2.63333 C 5.28 g/m*3 0.85 C 6.43333 km/h
847 13-12-2019 06:00:00 2.86667 C 5.38 g/m*3 1.52 C 5.35 km/h
848 13-12-2019 07:00:00 2.85833 C 5.47 g/m*3 1.06 C 6.56667 km/h
849 13-12-2019 08:00:00 2.83333 C 5.51 g/m*3 1.08 C 6.44167 km/h
850 13-12-2019 09:00:00 2.8 C 5.53 g/m*3 2.8 C 4.83333 km/h
Sensor: Nr:Datum:Temp:Abs-Feuchte:Windchill:Wind:
Aussen-T/F 851 13-12-2019 10:00:00 3 C 5.65 g/m*3 3 C 0.53333 km/h
852 13-12-2019 11:00:00 3.35833 C 5.82 g/m*3 3.36 C 0.53333 km/h
853 13-12-2019 12:00:00 4.09167 C 6.14 g/m*3 4.09 C 0.53333 km/h
854 13-12-2019 13:00:00 5.2 C 6.66 g/m*3 5.2 C 2.675 km/h
855 13-12-2019 14:00:00 6.93333 C 7.16 g/m*3 4.13 C 15.03333 km/h
856 13-12-2019 15:00:00 6.675 C 6.87 g/m*3 3.97 C 13.96667 km/h
857 13-12-2019 16:00:00 5.96667 C 6.52 g/m*3 3.41 C 12.1 km/h
858 13-12-2019 17:00:00 5.23333 C 6.33 g/m*3 2.55 C 11.96667 km/h
859 13-12-2019 18:00:00 4.73333 C 6.25 g/m*3 2.95 C 7.525 km/h
860 13-12-2019 19:00:00 4.76667 C 6.29 g/m*3 2.19 C 10.88333 km/h
861 13-12-2019 20:00:00 5.26667 C 6.44 g/m*3 2.49 C 12.49167 km/h
862 13-12-2019 21:00:00 5.13333 C 6.39 g/m*3 2.95 C 9.40833 km/h
863 13-12-2019 22:00:00 5.05833 C 6.29 g/m*3 3.26 C 7.79167 km/h
864 13-12-2019 23:00:00 5.60833 C 6.44 g/m*3 3.1 C 11.43333 km/h
865 14-12-2019 00:00:00 5.46667 C 6.37 g/m*3 5.47 C 4.28333 km/h
866 14-12-2019 01:00:00 5.89167 C 6.33 g/m*3 3.47 C 11.28333 km/h
867 14-12-2019 02:00:00 5.71667 C 6.3 g/m*3 5.72 C 2.53333 km/h
868 14-12-2019 03:00:00 5.33333 C 6.37 g/m*3 5.33 C 2.93333 km/h
869 14-12-2019 04:00:00 4.89167 C 6.31 g/m*3 4.89 C 1.2 km/h
870 14-12-2019 05:00:00 4.5 C 6.22 g/m*3 4.5 C 1.2 km/h
871 14-12-2019 06:00:00 5.18333 C 6.6 g/m*3 3.17 C 8.725 km/h
872 14-12-2019 07:00:00 6.75 C 7.25 g/m*3 4.43 C 11.69167 km/h
873 14-12-2019 08:00:00 7.4 C 6.97 g/m*3 3.96 C 21.30833 km/h
874 14-12-2019 09:00:00 7.2 C 6.4 g/m*3 4 C 18.64167 km/h
875 14-12-2019 10:00:00 7.09167 C 6.52 g/m*3 4.89 C 11.425 km/h
Sensor: Nr:Datum:Temp:Abs-Feuchte:Windchill:Wind:
Aussen-T/F 876 14-12-2019 11:00:00 7.03333 C 6.55 g/m*3 4.05 C 16.5 km/h
877 14-12-2019 12:00:00 7.58333 C 6 g/m*3 4.16 C 21.58333 km/h
878 14-12-2019 13:00:00 8.45 C 6.16 g/m*3 5.42 C 19.96667 km/h
879 14-12-2019 14:00:00 8.76667 C 6.51 g/m*3 5.96 C 18.63333 km/h
880 14-12-2019 15:00:00 7.825 C 6.95 g/m*3 5.12 C 15.825 km/h
881 14-12-2019 16:00:00 7.875 C 6.82 g/m*3 4.97 C 17.56667 km/h
882 14-12-2019 17:00:00 8.03333 C 6.94 g/m*3 5.35 C 16.1 km/h
883 14-12-2019 18:00:00 7.95833 C 6.92 g/m*3 5.09 C 17.43333 km/h
884 14-12-2019 19:00:00 7.04167 C 6.53 g/m*3 5.61 C 7.66667 km/h
885 14-12-2019 20:00:00 6.88333 C 6.45 g/m*3 5.54 C 7.23333 km/h
886 14-12-2019 21:00:00 7.375 C 6.7 g/m*3 5.1 C 12.23333 km/h
887 14-12-2019 22:00:00 7.45833 C 6.77 g/m*3 5.26 C 11.825 km/h
888 14-12-2019 23:00:00 7.73333 C 6.83 g/m*3 5.88 C 10.21667 km/h
889 15-12-2019 00:00:00 6.84167 C 6.64 g/m*3 6.84 C 2.40833 km/h
890 15-12-2019 01:00:00 6.325 C 6.64 g/m*3 6.33 C 2.675 km/h
891 15-12-2019 02:00:00 6.76667 C 6.97 g/m*3 6.77 C 2.14167 km/h
892 15-12-2019 03:00:00 6.99167 C 7.3 g/m*3 6.99 C 0.66667 km/h
893 15-12-2019 04:00:00 8.23333 C 8.05 g/m*3 7.51 C 5.75833 km/h
894 15-12-2019 05:00:00 9.40833 C 8.53 g/m*3 7.57 C 12.19167 km/h
895 15-12-2019 06:00:00 10.84167 C 8.67 g/m*3 8.16 C 23.19167 km/h
896 15-12-2019 07:00:00 11 C 8.51 g/m*3 8.3 C 24 km/h
897 15-12-2019 08:00:00 11.075 C 8.66 g/m*3 11.08 C 19.71667 km/h
898 15-12-2019 09:00:00 9.46667 C 8.37 g/m*3 8.18 C 8.99167 km/h
899 15-12-2019 10:00:00 8.7 C 8.08 g/m*3 8.7 C 4.81667 km/h
900 15-12-2019 11:00:00 8.75833 C 7.8 g/m*3 7.21 C 9.68333 km/h
Sensor: Nr:Datum:Temp:Abs-Feuchte:Windchill:Wind:
Aussen-T/F 901 15-12-2019 12:00:00 8.625 C 7.56 g/m*3 7.1 C 9.41667 km/h
902 15-12-2019 13:00:00 9.15 C 7.41 g/m*3 7.31 C 11.83333 km/h
903 15-12-2019 14:00:00 9.30833 C 7.19 g/m*3 7.42 C 12.35833 km/h
904 15-12-2019 15:00:00 9.10833 C 6.98 g/m*3 6.91 C 14.23333 km/h
905 15-12-2019 16:00:00 8.48333 C 6.65 g/m*3 6.42 C 12.35833 km/h
906 15-12-2019 17:00:00 7.85833 C 6.6 g/m*3 5.96 C 10.625 km/h
907 15-12-2019 18:00:00 7.65833 C 6.66 g/m*3 6.44 C 7.25833 km/h
908 15-12-2019 19:00:00 6.325 C 6.55 g/m*3 6.33 C 1.46667 km/h
909 15-12-2019 20:00:00 5.675 C 6.47 g/m*3 5.68 C 0 km/h
910 15-12-2019 21:00:00 4.39167 C 6.05 g/m*3 4.39 C 0 km/h
911 15-12-2019 22:00:00 4.25833 C 6.14 g/m*3 4.26 C 0 km/h
912 15-12-2019 23:00:00 4.36667 C 6.21 g/m*3 4.37 C 0 km/h
913 16-12-2019 00:00:00 5 C 6.52 g/m*3 5 C 0.4 km/h
914 16-12-2019 01:00:00 5.85 C 6.94 g/m*3 5.85 C 2 km/h
915 16-12-2019 02:00:00 6.44167 C 7.24 g/m*3 6.44 C 0 km/h
916 16-12-2019 03:00:00 6.65833 C 7.35 g/m*3 6.66 C 0.13333 km/h
917 16-12-2019 04:00:00 6.875 C 7.46 g/m*3 6.88 C 0.4 km/h
918 16-12-2019 05:00:00 7.325 C 7.68 g/m*3 7.33 C 1.6 km/h
919 16-12-2019 06:00:00 7.64167 C 7.84 g/m*3 7.64 C 1.06667 km/h
920 16-12-2019 07:00:00 7.575 C 7.8 g/m*3 7.58 C 0.66667 km/h
921 16-12-2019 08:00:00 7.8 C 7.92 g/m*3 7.8 C 1.06667 km/h
922 16-12-2019 09:00:00 8.15833 C 8.12 g/m*3 8.16 C 0 km/h
923 16-12-2019 10:00:00 8.49167 C 8.31 g/m*3 8.49 C 0 km/h
924 16-12-2019 11:00:00 9.225 C 8.77 g/m*3 9.23 C 0 km/h
925 16-12-2019 12:00:00 9.8 C 9.09 g/m*3 9.8 C 0 km/h
Sensor: Nr:Datum:Temp:Abs-Feuchte:Windchill:Wind:
Aussen-T/F 926 16-12-2019 13:00:00 10.26667 C 9.37 g/m*3 10.27 C 0 km/h
927 16-12-2019 14:00:00 10.41667 C 9.37 g/m*3 10.42 C 0.26667 km/h
928 16-12-2019 15:00:00 10.09167 C 9.17 g/m*3 10.09 C 0.4 km/h
929 16-12-2019 16:00:00 9.1 C 8.56 g/m*3 9.1 C 2 km/h
930 16-12-2019 17:00:00 8.15833 C 8.06 g/m*3 8.16 C 1.73333 km/h
931 16-12-2019 18:00:00 8.35833 C 8.21 g/m*3 8.36 C 4.01667 km/h
932 16-12-2019 19:00:00 8.7 C 8.33 g/m*3 8.7 C 4.55833 km/h
933 16-12-2019 20:00:00 8.66667 C 8.27 g/m*3 8.67 C 3.2 km/h
934 16-12-2019 21:00:00 8.15833 C 7.96 g/m*3 8.16 C 3.20833 km/h
935 16-12-2019 22:00:00 8.10833 C 7.97 g/m*3 8.11 C 2.93333 km/h
936 16-12-2019 23:00:00 8.24167 C 8.04 g/m*3 8.24 C 1.73333 km/h
937 17-12-2019 00:00:00 8.2 C 8 g/m*3 8.2 C 0.8 km/h
938 17-12-2019 01:00:00 8.09167 C 7.97 g/m*3 8.09 C 1.33333 km/h
939 17-12-2019 02:00:00 8.11667 C 7.91 g/m*3 8.12 C 2.53333 km/h
940 17-12-2019 03:00:00 9.125 C 8.28 g/m*3 9.13 C 3.33333 km/h
941 17-12-2019 04:00:00 9.44167 C 8.25 g/m*3 9.44 C 0.4 km/h
942 17-12-2019 05:00:00 9.15 C 8.2 g/m*3 9.15 C 0 km/h
943 17-12-2019 06:00:00 8.53333 C 7.98 g/m*3 8.53 C 0 km/h
944 17-12-2019 07:00:00 8.33333 C 7.94 g/m*3 8.33 C 0 km/h
945 17-12-2019 08:00:00 7.93333 C 7.72 g/m*3 7.93 C 0 km/h
946 17-12-2019 09:00:00 7.525 C 7.58 g/m*3 7.53 C 0 km/h
947 17-12-2019 10:00:00 7.51667 C 7.64 g/m*3 7.52 C 0 km/h
948 17-12-2019 11:00:00 8.95833 C 8.4 g/m*3 8.96 C 0 km/h
949 17-12-2019 12:00:00 9.98333 C 8.84 g/m*3 9.98 C 0 km/h
950 17-12-2019 13:00:00 11.10833 C 9.29 g/m*3 11.11 C 0 km/h
Sensor: Nr:Datum:Temp:Abs-Feuchte:Windchill:Wind:
Aussen-T/F 951 17-12-2019 14:00:00 12.41667 C 9.5 g/m*3 12.42 C 1.33333 km/h
952 17-12-2019 15:00:00 12.54167 C 9.29 g/m*3 12.54 C 2.675 km/h
953 17-12-2019 16:00:00 12.93333 C 9.18 g/m*3 12.93 C 2.275 km/h
954 17-12-2019 17:00:00 13 C 8.88 g/m*3 13 C 6.55833 km/h
955 17-12-2019 18:00:00 14.08333 C 9.39 g/m*3 14.08 C 7.93333 km/h
956 17-12-2019 19:00:00 13.34167 C 9.63 g/m*3 13.34 C 7.39167 km/h
957 17-12-2019 20:00:00 12.59167 C 9.83 g/m*3 12.59 C 3.34167 km/h
958 17-12-2019 21:00:00 11.76667 C 9.58 g/m*3 11.77 C 5.09167 km/h
959 17-12-2019 22:00:00 13.26667 C 9.58 g/m*3 13.27 C 15.16667 km/h
960 17-12-2019 23:00:00 12.375 C 9.55 g/m*3 12.38 C 13.425 km/h
961 18-12-2019 00:00:00 11.4 C 9.26 g/m*3 11.4 C 11.40833 km/h
962 18-12-2019 01:00:00 11.31667 C 9.1 g/m*3 11.32 C 10.75 km/h
963 18-12-2019 02:00:00 11.45833 C 9.26 g/m*3 11.46 C 8.85 km/h
964 18-12-2019 03:00:00 11.19167 C 9.32 g/m*3 11.19 C 2.13333 km/h
965 18-12-2019 04:00:00 10.53333 C 8.95 g/m*3 10.53 C 4.95833 km/h
966 18-12-2019 05:00:00 9.69167 C 8.42 g/m*3 9.69 C 0.4 km/h
967 18-12-2019 06:00:00 8.7 C 8.03 g/m*3 8.7 C 0.4 km/h
968 18-12-2019 07:00:00 7.99167 C 7.76 g/m*3 7.99 C 0.13333 km/h
969 18-12-2019 08:00:00 7.475 C 7.58 g/m*3 7.48 C 0 km/h
970 18-12-2019 09:00:00 7.29167 C 7.54 g/m*3 7.29 C 0 km/h
971 18-12-2019 10:00:00 7.79167 C 7.83 g/m*3 7.79 C 0.13333 km/h
972 18-12-2019 11:00:00 7.60833 C 7.66 g/m*3 7.61 C 1.06667 km/h
973 18-12-2019 12:00:00 8.43333 C 7.9 g/m*3 7.82 C 5.5 km/h
974 18-12-2019 13:00:00 8.66667 C 7.8 g/m*3 8.67 C 2 km/h
975 18-12-2019 14:00:00 8.175 C 7.7 g/m*3 8.18 C 1.2 km/h
Sensor: Nr:Datum:Temp:Abs-Feuchte:Windchill:Wind:
Aussen-T/F 976 18-12-2019 15:00:00 7.55 C 7.48 g/m*3 7.55 C 2.26667 km/h
977 18-12-2019 16:00:00 6.88333 C 7.22 g/m*3 6.88 C 3.86667 km/h
978 18-12-2019 17:00:00 5.93333 C 6.79 g/m*3 5.93 C 1.46667 km/h
979 18-12-2019 18:00:00 5.4 C 6.66 g/m*3 5.4 C 1.06667 km/h
980 18-12-2019 19:00:00 5.58333 C 6.78 g/m*3 5.58 C 1.33333 km/h
981 18-12-2019 20:00:00 5.39167 C 6.69 g/m*3 5.39 C 1.46667 km/h
982 18-12-2019 21:00:00 4.74167 C 6.41 g/m*3 4.74 C 0 km/h
983 18-12-2019 22:00:00 3.95833 C 6.09 g/m*3 3.96 C 0.13333 km/h
984 18-12-2019 23:00:00 3.31667 C 5.84 g/m*3 3.32 C 0 km/h
985 19-12-2019 00:00:00 3.05833 C 5.77 g/m*3 3.06 C 0.13333 km/h
986 19-12-2019 01:00:00 2.91667 C 5.73 g/m*3 2.92 C 0.4 km/h
987 19-12-2019 02:00:00 2.875 C 5.72 g/m*3 2.88 C 0 km/h
988 19-12-2019 03:00:00 2.675 C 5.64 g/m*3 2.68 C 0.26667 km/h
989 19-12-2019 04:00:00 2.39167 C 5.54 g/m*3 2.39 C 0 km/h
990 19-12-2019 05:00:00 2.18333 C 5.46 g/m*3 2.18 C 0 km/h
991 19-12-2019 06:00:00 1.875 C 5.34 g/m*3 1.88 C 0.4 km/h
992 19-12-2019 07:00:00 3.075 C 5.83 g/m*3 3.08 C 2.26667 km/h
993 19-12-2019 08:00:00 5.05833 C 6.68 g/m*3 5.06 C 1.46667 km/h
994 19-12-2019 09:00:00 5.24167 C 6.77 g/m*3 5.24 C 1.33333 km/h
995 19-12-2019 10:00:00 6.75833 C 7.47 g/m*3 6.76 C 4.15 km/h
996 19-12-2019 11:00:00 7.35 C 7.77 g/m*3 7.35 C 2.13333 km/h
997 19-12-2019 12:00:00 7.59167 C 7.89 g/m*3 7.59 C 1.875 km/h
998 19-12-2019 13:00:00 7.88333 C 8.04 g/m*3 7.88 C 2.8 km/h
999 19-12-2019 14:00:00 7.96667 C 8.03 g/m*3 7.97 C 2.8 km/h
1000 19-12-2019 15:00:00 9.23333 C 8.3 g/m*3 7.98 C 8.59167 km/h
Sensor: Nr:Datum:Temp:Abs-Feuchte:Windchill:Wind:
Aussen-T/F 1001 19-12-2019 16:00:00 9.61667 C 7.98 g/m*3 8.51 C 8.20833 km/h
1002 19-12-2019 17:00:00 7.6 C 7.17 g/m*3 7.6 C 0.8 km/h
1003 19-12-2019 18:00:00 6.30833 C 6.98 g/m*3 6.31 C 1.86667 km/h
1004 19-12-2019 19:00:00 6.29167 C 7.01 g/m*3 6.29 C 0.53333 km/h
1005 19-12-2019 20:00:00 6.23333 C 7.03 g/m*3 6.23 C 3.74167 km/h
1006 19-12-2019 21:00:00 6.65833 C 7.21 g/m*3 6.66 C 1.86667 km/h
1007 19-12-2019 22:00:00 6.75833 C 7.27 g/m*3 6.76 C 0.53333 km/h
1008 19-12-2019 23:00:00 6.31667 C 7.08 g/m*3 6.32 C 0.26667 km/h
1009 20-12-2019 00:00:00 5.44167 C 6.65 g/m*3 5.44 C 1.46667 km/h
1010 20-12-2019 01:00:00 4.30833 C 6.21 g/m*3 4.31 C 0.93333 km/h
1011 20-12-2019 02:00:00 4 C 6.12 g/m*3 4 C 2.275 km/h
1012 20-12-2019 03:00:00 5.275 C 6.71 g/m*3 4.12 C 5.75833 km/h
1013 20-12-2019 04:00:00 5.36667 C 6.7 g/m*3 5.37 C 2.4 km/h
1014 20-12-2019 05:00:00 6 C 6.94 g/m*3 5.14 C 5.21667 km/h
1015 20-12-2019 06:00:00 6.7 C 6.94 g/m*3 5.15 C 7.925 km/h
1016 20-12-2019 07:00:00 7.35 C 6.91 g/m*3 6.58 C 5.5 km/h
1017 20-12-2019 08:00:00 7.525 C 7.02 g/m*3 7.53 C 1.06667 km/h
1018 20-12-2019 09:00:00 7.375 C 7.13 g/m*3 7.38 C 1.46667 km/h
1019 20-12-2019 10:00:00 7.06667 C 7.09 g/m*3 7.07 C 1.2 km/h
1020 20-12-2019 11:00:00 7.275 C 7.46 g/m*3 7.28 C 2.55 km/h
1021 20-12-2019 12:00:00 8.375 C 8.05 g/m*3 7.17 C 7.66667 km/h
1022 20-12-2019 13:00:00 9.20833 C 8.44 g/m*3 7.58 C 10.60833 km/h
1023 20-12-2019 14:00:00 9.38333 C 8.46 g/m*3 8.02 C 9.29167 km/h
1024 20-12-2019 15:00:00 9.2 C 8.41 g/m*3 9.2 C 4.94167 km/h
1025 20-12-2019 16:00:00 9.325 C 8.6 g/m*3 9.32 C 4.66667 km/h
Sensor: Nr:Datum:Temp:Abs-Feuchte:Windchill:Wind:
Aussen-T/F 1026 20-12-2019 17:00:00 9.79167 C 8.83 g/m*3 9.79 C 4.55833 km/h
1027 20-12-2019 18:00:00 9.66667 C 8.72 g/m*3 8.78 C 7.24167 km/h
1028 20-12-2019 19:00:00 10.18333 C 8.56 g/m*3 8.58 C 11.7 km/h
1029 20-12-2019 20:00:00 9.76667 C 8.1 g/m*3 8.29 C 10.34167 km/h
1030 20-12-2019 21:00:00 9.10833 C 7.7 g/m*3 7.89 C 8.325 km/h
1031 20-12-2019 22:00:00 9.05 C 7.57 g/m*3 7.51 C 9.91667 km/h
1032 20-12-2019 23:00:00 8.84167 C 7.54 g/m*3 8.33 C 5.35 km/h
1033 21-12-2019 00:00:00 8.34167 C 7.42 g/m*3 8.34 C 2.94167 km/h
1034 21-12-2019 01:00:00 8.075 C 7.5 g/m*3 8.07 C 0.4 km/h
1035 21-12-2019 02:00:00 8.34167 C 7.62 g/m*3 8.34 C 3.35 km/h
1036 21-12-2019 03:00:00 8.225 C 7.55 g/m*3 8.23 C 0.66667 km/h
1037 21-12-2019 04:00:00 7.60833 C 7.36 g/m*3 7.61 C 0.8 km/h
1038 21-12-2019 05:00:00 6.69167 C 7.06 g/m*3 6.69 C 2.13333 km/h
1039 21-12-2019 06:00:00 5.60833 C 6.63 g/m*3 5.61 C 1.6 km/h
1040 21-12-2019 07:00:00 4.74167 C 6.32 g/m*3 4.74 C 0 km/h
1041 21-12-2019 08:00:00 4.725 C 6.39 g/m*3 4.72 C 2.00833 km/h
1042 21-12-2019 09:00:00 5.5 C 6.74 g/m*3 5.5 C 1.33333 km/h
1043 21-12-2019 10:00:00 5.85833 C 6.83 g/m*3 5.86 C 0.93333 km/h
1044 21-12-2019 11:00:00 6.30833 C 7.04 g/m*3 6.31 C 0.26667 km/h
1045 21-12-2019 12:00:00 6.88333 C 7.27 g/m*3 6.88 C 4.55833 km/h
1046 21-12-2019 13:00:00 8.01667 C 7.43 g/m*3 8.02 C 4.56667 km/h
1047 21-12-2019 14:00:00 9.05833 C 7.54 g/m*3 9.06 C 3.74167 km/h
1048 21-12-2019 15:00:00 9.10833 C 7.45 g/m*3 9.11 C 4.425 km/h
1049 21-12-2019 16:00:00 8.325 C 7.39 g/m*3 8.32 C 1.2 km/h
1050 21-12-2019 17:00:00 8.04167 C 7.38 g/m*3 8.04 C 0.53333 km/h
Sensor: Nr:Datum:Temp:Abs-Feuchte:Windchill:Wind:
Aussen-T/F 1051 21-12-2019 18:00:00 8.125 C 7.2 g/m*3 8.13 C 4.29167 km/h
1052 21-12-2019 19:00:00 7.875 C 7.12 g/m*3 7.88 C 1.2 km/h
1053 21-12-2019 20:00:00 7.76667 C 7.04 g/m*3 7.77 C 1.2 km/h
1054 21-12-2019 21:00:00 7.13333 C 6.9 g/m*3 7.13 C 1.46667 km/h
1055 21-12-2019 22:00:00 6.56667 C 6.62 g/m*3 5.78 C 5.21667 km/h
1056 21-12-2019 23:00:00 7.03333 C 6.56 g/m*3 5.78 C 6.99167 km/h
1057 22-12-2019 00:00:00 7.48333 C 6.8 g/m*3 5.67 C 9.79167 km/h
1058 22-12-2019 01:00:00 6.98333 C 7.04 g/m*3 6.98 C 4.275 km/h
1059 22-12-2019 02:00:00 6.75 C 7.09 g/m*3 5.85 C 5.63333 km/h
1060 22-12-2019 03:00:00 6.95 C 7.14 g/m*3 6.95 C 4.68333 km/h
1061 22-12-2019 04:00:00 7.06667 C 7.16 g/m*3 7.07 C 3.475 km/h
1062 22-12-2019 05:00:00 6.89167 C 7.08 g/m*3 6.89 C 3.075 km/h
1063 22-12-2019 06:00:00 6.48333 C 7 g/m*3 6.48 C 3.34167 km/h
1064 22-12-2019 07:00:00 6.83333 C 7.22 g/m*3 6.83 C 1.875 km/h
1065 22-12-2019 08:00:00 6.975 C 7.34 g/m*3 6.98 C 1.06667 km/h
1066 22-12-2019 09:00:00 7.29167 C 7.5 g/m*3 7.29 C 2.275 km/h
1067 22-12-2019 10:00:00 8.56667 C 7.98 g/m*3 8.57 C 4.14167 km/h
1068 22-12-2019 11:00:00 10.06667 C 8.22 g/m*3 9.31 C 6.98333 km/h
1069 22-12-2019 12:00:00 10.70833 C 8.42 g/m*3 9.88 C 7.80833 km/h
1070 22-12-2019 13:00:00 10.95 C 8.36 g/m*3 9.26 C 13.56667 km/h
1071 22-12-2019 14:00:00 11.06667 C 8.24 g/m*3 11.07 C 12.9 km/h
1072 22-12-2019 15:00:00 10.44167 C 8.12 g/m*3 8.08 C 18.50833 km/h
1073 22-12-2019 16:00:00 9.34167 C 7.58 g/m*3 7.02 C 15.69167 km/h
1074 22-12-2019 17:00:00 8.16667 C 7.4 g/m*3 5.68 C 14.76667 km/h
1075 22-12-2019 18:00:00 7.825 C 7.3 g/m*3 5.78 C 11.425 km/h
Sensor: Nr:Datum:Temp:Abs-Feuchte:Windchill:Wind:
Aussen-T/F 1076 22-12-2019 19:00:00 7.88333 C 7.41 g/m*3 5.84 C 11.43333 km/h
1077 22-12-2019 20:00:00 8.4 C 7.18 g/m*3 6.12 C 13.7 km/h
1078 22-12-2019 21:00:00 8.34167 C 7.16 g/m*3 6.31 C 11.96667 km/h
1079 22-12-2019 22:00:00 7.85 C 7.07 g/m*3 6.6 C 7.51667 km/h
1080 22-12-2019 23:00:00 7.09167 C 7.02 g/m*3 7.09 C 1.33333 km/h
1081 23-12-2019 00:00:00 7.14167 C 7.12 g/m*3 7.14 C 2.26667 km/h
1082 23-12-2019 01:00:00 7.325 C 7.1 g/m*3 6.39 C 6.03333 km/h
1083 23-12-2019 02:00:00 7.35833 C 7.05 g/m*3 5.95 C 7.79167 km/h
1084 23-12-2019 03:00:00 7.15 C 7.04 g/m*3 5.61 C 8.19167 km/h
1085 23-12-2019 04:00:00 7.25833 C 7.1 g/m*3 6.52 C 5.35833 km/h
1086 23-12-2019 05:00:00 7.23333 C 7.19 g/m*3 6.28 C 6.03333 km/h
1087 23-12-2019 06:00:00 7.21667 C 7.21 g/m*3 6.52 C 5.225 km/h
1088 23-12-2019 07:00:00 7.56667 C 7.36 g/m*3 6.58 C 6.30833 km/h
1089 23-12-2019 08:00:00 7.85833 C 7.35 g/m*3 6.51 C 7.90833 km/h
1090 23-12-2019 09:00:00 8.15833 C 7.37 g/m*3 6.32 C 10.61667 km/h
1091 23-12-2019 10:00:00 7.89167 C 7.48 g/m*3 6.64 C 7.51667 km/h
1092 23-12-2019 11:00:00 8.425 C 7.57 g/m*3 7.03 C 8.6 km/h
1093 23-12-2019 12:00:00 9.28333 C 7.6 g/m*3 8.04 C 8.60833 km/h
1094 23-12-2019 13:00:00 9.125 C 7.76 g/m*3 8.18 C 7.1 km/h
1095 23-12-2019 14:00:00 9.33333 C 7.67 g/m*3 7.94 C 9.40833 km/h
1096 23-12-2019 15:00:00 9.30833 C 7.58 g/m*3 7.74 C 10.35 km/h
1097 23-12-2019 16:00:00 8.99167 C 7.43 g/m*3 7.44 C 9.95 km/h
1098 23-12-2019 17:00:00 8.49167 C 7.17 g/m*3 7.32 C 7.64167 km/h
1099 23-12-2019 18:00:00 8.18333 C 7.08 g/m*3 7.11 C 7 km/h
1100 23-12-2019 19:00:00 7.575 C 7.03 g/m*3 6.72 C 5.89167 km/h
Sensor: Nr:Datum:Temp:Abs-Feuchte:Windchill:Wind:
Aussen-T/F 1101 23-12-2019 20:00:00 7.21667 C 7.05 g/m*3 7.22 C 2.93333 km/h
1102 23-12-2019 21:00:00 7.30833 C 7.12 g/m*3 6.33 C 6.16667 km/h
1103 23-12-2019 22:00:00 6.64167 C 6.86 g/m*3 6.64 C 4.00833 km/h
1104 23-12-2019 23:00:00 5.88333 C 6.55 g/m*3 5.88 C 4.54167 km/h
1105 24-12-2019 00:00:00 6.04167 C 6.76 g/m*3 6.04 C 3.6 km/h
1106 24-12-2019 01:00:00 6.325 C 6.83 g/m*3 6.33 C 3.35 km/h
1107 24-12-2019 02:00:00 6.39167 C 6.87 g/m*3 6.39 C 1.34167 km/h
1108 24-12-2019 03:00:00 6.55833 C 6.8 g/m*3 5.82 C 5.08333 km/h
1109 24-12-2019 04:00:00 5.90833 C 6.64 g/m*3 5.91 C 1.73333 km/h
1110 24-12-2019 05:00:00 5.76667 C 6.64 g/m*3 5.77 C 2.26667 km/h
1111 24-12-2019 06:00:00 5.28333 C 6.48 g/m*3 5.28 C 0.66667 km/h
1112 24-12-2019 07:00:00 5.61667 C 6.65 g/m*3 5.62 C 0.66667 km/h
1113 24-12-2019 08:00:00 6.53333 C 6.86 g/m*3 6.53 C 1.2 km/h
1114 24-12-2019 09:00:00 7.25 C 6.96 g/m*3 7.25 C 4.69167 km/h
1115 24-12-2019 10:00:00 7.34167 C 7.21 g/m*3 7.34 C 2.675 km/h
1116 24-12-2019 11:00:00 7.85833 C 7.56 g/m*3 6.85 C 6.55833 km/h
1117 24-12-2019 12:00:00 8.5 C 7.61 g/m*3 6.1 C 14.76667 km/h
1118 24-12-2019 13:00:00 9.5 C 7.84 g/m*3 7.9 C 10.75833 km/h
1119 24-12-2019 14:00:00 9.85833 C 7.94 g/m*3 7.92 C 13.56667 km/h
1120 24-12-2019 15:00:00 10.025 C 7.84 g/m*3 8.45 C 11.3 km/h
1121 24-12-2019 16:00:00 10.275 C 7.63 g/m*3 9.04 C 9.54167 km/h
1122 24-12-2019 17:00:00 9.84167 C 7.43 g/m*3 8.07 C 12.36667 km/h
1123 24-12-2019 18:00:00 9.23333 C 7.62 g/m*3 7.9 C 9 km/h
1124 24-12-2019 19:00:00 7.675 C 7.37 g/m*3 5.89 C 9.80833 km/h
1125 24-12-2019 20:00:00 7.26667 C 7.31 g/m*3 5.78 C 8.05833 km/h
Sensor: Nr:Datum:Temp:Abs-Feuchte:Windchill:Wind:
Aussen-T/F 1126 24-12-2019 21:00:00 7.85 C 7.44 g/m*3 6.05 C 10.09167 km/h
1127 24-12-2019 22:00:00 8.68333 C 7.47 g/m*3 6.93 C 10.74167 km/h
1128 24-12-2019 23:00:00 8.73333 C 7.61 g/m*3 6.85 C 11.55833 km/h
1129 25-12-2019 00:00:00 8.8 C 7.7 g/m*3 6.67 C 13.3 km/h
1130 25-12-2019 01:00:00 8.4 C 7.73 g/m*3 7.03 C 8.46667 km/h
1131 25-12-2019 02:00:00 8.28333 C 7.69 g/m*3 6.67 C 9.53333 km/h
1132 25-12-2019 03:00:00 8.60833 C 7.83 g/m*3 7.08 C 9.425 km/h
1133 25-12-2019 04:00:00 8.68333 C 7.98 g/m*3 7.95 C 6.025 km/h
1134 25-12-2019 05:00:00 8.5 C 8 g/m*3 8.5 C 4.81667 km/h
1135 25-12-2019 06:00:00 8.06667 C 7.76 g/m*3 8.07 C 1.875 km/h
1136 25-12-2019 07:00:00 7.91667 C 7.6 g/m*3 7.92 C 3.075 km/h
1137 25-12-2019 08:00:00 7.41667 C 7.2 g/m*3 5.22 C 11.81667 km/h
1138 25-12-2019 09:00:00 7.625 C 7.14 g/m*3 6.54 C 6.7 km/h
1139 25-12-2019 10:00:00 7.925 C 7.1 g/m*3 6.75 C 7.24167 km/h
1140 25-12-2019 11:00:00 8.13333 C 7.19 g/m*3 6.44 C 9.81667 km/h
1141 25-12-2019 12:00:00 8.11667 C 7.3 g/m*3 6.11 C 11.54167 km/h
1142 25-12-2019 13:00:00 7.925 C 7.36 g/m*3 6.41 C 8.74167 km/h
1143 25-12-2019 14:00:00 8.05833 C 7.41 g/m*3 6.43 C 9.4 km/h
1144 25-12-2019 15:00:00 7.975 C 7.41 g/m*3 6.71 C 7.65 km/h
1145 25-12-2019 16:00:00 7.75833 C 7.28 g/m*3 7.76 C 3.75 km/h
1146 25-12-2019 17:00:00 7.25 C 7.05 g/m*3 7.25 C 1.46667 km/h
1147 25-12-2019 18:00:00 6.8 C 6.96 g/m*3 6.8 C 0.93333 km/h
1148 25-12-2019 19:00:00 6.725 C 6.94 g/m*3 6.73 C 1.46667 km/h
1149 25-12-2019 20:00:00 6.64167 C 6.96 g/m*3 6.64 C 2.26667 km/h
1150 25-12-2019 21:00:00 6.33333 C 6.93 g/m*3 6.33 C 1.33333 km/h
Sensor: Nr:Datum:Temp:Abs-Feuchte:Windchill:Wind:
Aussen-T/F 1151 25-12-2019 22:00:00 6.05 C 6.91 g/m*3 6.05 C 0.8 km/h
1152 25-12-2019 23:00:00 5.94167 C 6.87 g/m*3 5.94 C 0.66667 km/h
1153 26-12-2019 00:00:00 4.98333 C 6.46 g/m*3 4.98 C 0.4 km/h
1154 26-12-2019 01:00:00 5.11667 C 6.57 g/m*3 5.12 C 1.06667 km/h
1155 26-12-2019 02:00:00 5.075 C 6.56 g/m*3 5.08 C 1.06667 km/h
1156 26-12-2019 03:00:00 4.94167 C 6.5 g/m*3 4.94 C 0.26667 km/h
1157 26-12-2019 04:00:00 4.4 C 6.27 g/m*3 4.4 C 0.66667 km/h
1158 26-12-2019 05:00:00 4.25833 C 6.26 g/m*3 4.26 C 0.13333 km/h
1159 26-12-2019 06:00:00 4.325 C 6.3 g/m*3 4.33 C 0 km/h
1160 26-12-2019 07:00:00 4.325 C 6.3 g/m*3 4.33 C 0 km/h
1161 26-12-2019 08:00:00 4.23333 C 6.26 g/m*3 4.23 C 0 km/h
1162 26-12-2019 09:00:00 4.35 C 6.31 g/m*3 4.35 C 0 km/h
1163 26-12-2019 10:00:00 4.65833 C 6.44 g/m*3 4.66 C 0 km/h
1164 26-12-2019 11:00:00 5.5 C 6.81 g/m*3 5.5 C 0.13333 km/h
1165 26-12-2019 12:00:00 5.89167 C 6.98 g/m*3 5.89 C 0 km/h
1166 26-12-2019 13:00:00 6.26667 C 7.09 g/m*3 6.27 C 0 km/h
1167 26-12-2019 14:00:00 6.275 C 7.06 g/m*3 6.28 C 0 km/h
1168 26-12-2019 15:00:00 6.00833 C 6.9 g/m*3 6.01 C 0 km/h
1169 26-12-2019 16:00:00 5.34167 C 6.61 g/m*3 5.34 C 0 km/h
1170 26-12-2019 17:00:00 5.03333 C 6.54 g/m*3 5.03 C 0.26667 km/h
1171 26-12-2019 18:00:00 4.81667 C 6.44 g/m*3 4.82 C 0 km/h
1172 26-12-2019 19:00:00 4.74167 C 6.41 g/m*3 4.74 C 0.13333 km/h
1173 26-12-2019 20:00:00 4.71667 C 6.4 g/m*3 4.72 C 0.26667 km/h
1174 26-12-2019 21:00:00 4.79167 C 6.43 g/m*3 4.79 C 0.53333 km/h
1175 26-12-2019 22:00:00 4.89167 C 6.48 g/m*3 4.89 C 0.13333 km/h
Sensor: Nr:Datum:Temp:Abs-Feuchte:Windchill:Wind:
Aussen-T/F 1176 26-12-2019 23:00:00 4.9 C 6.48 g/m*3 4.9 C 0.4 km/h
1177 27-12-2019 00:00:00 4.9 C 6.49 g/m*3 4.9 C 0 km/h
1178 27-12-2019 01:00:00 4.91667 C 6.55 g/m*3 4.92 C 0 km/h
1179 27-12-2019 02:00:00 4.98333 C 6.58 g/m*3 4.98 C 0 km/h
1180 27-12-2019 03:00:00 5.08333 C 6.63 g/m*3 5.08 C 0 km/h
1181 27-12-2019 04:00:00 5.15833 C 6.66 g/m*3 5.16 C 0 km/h
1182 27-12-2019 05:00:00 5.2 C 6.68 g/m*3 5.2 C 0 km/h
1183 27-12-2019 06:00:00 5.29167 C 6.72 g/m*3 5.29 C 0 km/h
1184 27-12-2019 07:00:00 5.3 C 6.72 g/m*3 5.3 C 0 km/h
1185 27-12-2019 08:00:00 5.13333 C 6.65 g/m*3 5.13 C 0.26667 km/h
1186 27-12-2019 09:00:00 5.25833 C 6.7 g/m*3 5.26 C 1.2 km/h
1187 27-12-2019 10:00:00 5.575 C 6.85 g/m*3 5.58 C 0.4 km/h
1188 27-12-2019 11:00:00 5.7 C 6.9 g/m*3 5.7 C 1.33333 km/h
1189 27-12-2019 12:00:00 6.10833 C 6.96 g/m*3 6.11 C 3.33333 km/h
1190 27-12-2019 13:00:00 6.18333 C 6.83 g/m*3 6.18 C 2.8 km/h
1191 27-12-2019 14:00:00 6.275 C 6.68 g/m*3 6.28 C 2.93333 km/h
1192 27-12-2019 15:00:00 6.21667 C 6.53 g/m*3 6.22 C 0.94167 km/h
1193 27-12-2019 16:00:00 5.8 C 6.52 g/m*3 5.8 C 0 km/h
1194 27-12-2019 17:00:00 5.25833 C 6.41 g/m*3 5.26 C 0 km/h
1195 27-12-2019 18:00:00 5.01667 C 6.33 g/m*3 5.02 C 0.93333 km/h
1196 27-12-2019 19:00:00 4.76667 C 6.22 g/m*3 4.77 C 0.8 km/h
1197 27-12-2019 20:00:00 4.55 C 6.13 g/m*3 4.55 C 0 km/h
1198 27-12-2019 21:00:00 4.525 C 6.13 g/m*3 4.53 C 0 km/h
1199 27-12-2019 22:00:00 3.70833 C 5.72 g/m*3 3.71 C 0 km/h
1200 27-12-2019 23:00:00 2.00833 C 5.15 g/m*3 2.01 C 0.13333 km/h
Sensor: Nr:Datum:Temp:Abs-Feuchte:Windchill:Wind:
Aussen-T/F 1201 28-12-2019 00:00:00 1.075 C 4.9 g/m*3 1.08 C 2 km/h
1202 28-12-2019 01:00:00 0.53333 C 4.76 g/m*3 0.53 C 0.4 km/h
1203 28-12-2019 02:00:00 -0.13333 C 4.56 g/m*3 -0.13 C 0 km/h
1204 28-12-2019 03:00:00 -0.58333 C 4.44 g/m*3 -0.58 C 0 km/h
1205 28-12-2019 04:00:00 -0.9 C 4.36 g/m*3 -0.9 C 0 km/h
1206 28-12-2019 05:00:00 -1.18333 C 4.28 g/m*3 -1.18 C 0 km/h
1207 28-12-2019 06:00:00 -1.25833 C 4.26 g/m*3 -1.26 C 0.13333 km/h
1208 28-12-2019 07:00:00 -1.35833 C 4.23 g/m*3 -1.36 C 0 km/h
1209 28-12-2019 08:00:00 -1.61667 C 4.16 g/m*3 -1.62 C 0 km/h
1210 28-12-2019 09:00:00 -1.525 C 4.19 g/m*3 -1.53 C 0.13333 km/h
1211 28-12-2019 10:00:00 -0.63333 C 4.5 g/m*3 -0.63 C 0.93333 km/h
1212 28-12-2019 11:00:00 -0.05833 C 4.68 g/m*3 -0.06 C 0.53333 km/h
1213 28-12-2019 12:00:00 0.53333 C 4.88 g/m*3 0.53 C 0 km/h
1214 28-12-2019 13:00:00 1.175 C 5.1 g/m*3 1.18 C 0.13333 km/h
1215 28-12-2019 14:00:00 1.325 C 5.15 g/m*3 1.33 C 0.26667 km/h
1216 28-12-2019 15:00:00 1.08333 C 5.02 g/m*3 1.08 C 0.26667 km/h
1217 28-12-2019 16:00:00 0.7 C 4.88 g/m*3 0.7 C 0 km/h
1218 28-12-2019 17:00:00 0.19167 C 4.71 g/m*3 0.19 C 0 km/h
1219 28-12-2019 18:00:00 -0.275 C 4.56 g/m*3 -0.28 C 0 km/h
1220 28-12-2019 19:00:00 -0.525 C 4.49 g/m*3 -0.53 C 0 km/h
1221 28-12-2019 20:00:00 -0.46667 C 4.5 g/m*3 -0.47 C 0.26667 km/h
1222 28-12-2019 21:00:00 -0.45 C 4.51 g/m*3 -0.45 C 0.8 km/h
1223 28-12-2019 22:00:00 -0.975 C 4.35 g/m*3 -0.98 C 0 km/h
1224 28-12-2019 23:00:00 -1.26667 C 4.26 g/m*3 -1.27 C 0 km/h
1225 29-12-2019 00:00:00 -1.58333 C 4.17 g/m*3 -1.58 C 0 km/h
Sensor: Nr:Datum:Temp:Abs-Feuchte:Windchill:Wind:
Aussen-T/F 1226 29-12-2019 01:00:00 -1.925 C 4.07 g/m*3 -1.93 C 0 km/h
1227 29-12-2019 02:00:00 -2.25833 C 3.97 g/m*3 -2.26 C 0 km/h
1228 29-12-2019 03:00:00 -2.525 C 3.9 g/m*3 -2.53 C 0 km/h
1229 29-12-2019 04:00:00 -2.65 C 3.87 g/m*3 -2.65 C 0 km/h
1230 29-12-2019 05:00:00 -3 C 3.77 g/m*3 -3 C 0 km/h
1231 29-12-2019 06:00:00 -3.26667 C 3.7 g/m*3 -3.27 C 0 km/h
1232 29-12-2019 07:00:00 -3.54167 C 3.63 g/m*3 -3.54 C 0 km/h
1233 29-12-2019 08:00:00 -3.24167 C 3.72 g/m*3 -3.24 C 0 km/h
1234 29-12-2019 09:00:00 -2.90833 C 3.8 g/m*3 -2.91 C 0 km/h
1235 29-12-2019 10:00:00 -2.51667 C 3.93 g/m*3 -2.52 C 0.13333 km/h
1236 29-12-2019 11:00:00 -1.05833 C 4.37 g/m*3 -1.06 C 0.26667 km/h
1237 29-12-2019 12:00:00 0.38333 C 4.83 g/m*3 0.38 C 0.66667 km/h
1238 29-12-2019 13:00:00 1.36667 C 5.16 g/m*3 1.37 C 0 km/h
1239 29-12-2019 14:00:00 2.05833 C 5.39 g/m*3 2.06 C 0.4 km/h
1240 29-12-2019 15:00:00 2.25 C 5.23 g/m*3 2.25 C 2 km/h
1241 29-12-2019 16:00:00 1.31667 C 4.9 g/m*3 1.32 C 0 km/h
1242 29-12-2019 17:00:00 0.54167 C 4.72 g/m*3 0.54 C 0.26667 km/h
1243 29-12-2019 18:00:00 0.64167 C 4.8 g/m*3 0.64 C 0 km/h
1244 29-12-2019 19:00:00 0.08333 C 4.58 g/m*3 0.08 C 0 km/h
1245 29-12-2019 20:00:00 -0.24167 C 4.48 g/m*3 -0.24 C 0 km/h
1246 29-12-2019 21:00:00 -0.60833 C 4.37 g/m*3 -0.61 C 0.13333 km/h
1247 29-12-2019 22:00:00 -1.09167 C 4.23 g/m*3 -1.09 C 0 km/h
1248 29-12-2019 23:00:00 -1.33333 C 4.2 g/m*3 -1.33 C 0 km/h
1249 30-12-2019 00:00:00 -1.66667 C 4.1 g/m*3 -1.67 C 0 km/h
1250 30-12-2019 01:00:00 -1.825 C 4.05 g/m*3 -1.83 C 0 km/h
Sensor: Nr:Datum:Temp:Abs-Feuchte:Windchill:Wind:
Aussen-T/F 1251 30-12-2019 02:00:00 -1.99167 C 4.03 g/m*3 -1.99 C 0 km/h
1252 30-12-2019 03:00:00 -2.025 C 4.04 g/m*3 -2.03 C 0 km/h
1253 30-12-2019 04:00:00 -2.38333 C 3.94 g/m*3 -2.38 C 0 km/h
1254 30-12-2019 05:00:00 -2.59167 C 3.88 g/m*3 -2.59 C 0 km/h
1255 30-12-2019 06:00:00 -2.675 C 3.86 g/m*3 -2.68 C 0 km/h
1256 30-12-2019 07:00:00 -2.79167 C 3.83 g/m*3 -2.79 C 0 km/h
1257 30-12-2019 08:00:00 -3.06667 C 3.75 g/m*3 -3.07 C 0 km/h
1258 30-12-2019 09:00:00 -2.70833 C 3.85 g/m*3 -2.71 C 0 km/h
1259 30-12-2019 10:00:00 -2.225 C 4 g/m*3 -2.23 C 0 km/h
1260 30-12-2019 11:00:00 -1.61667 C 4.2 g/m*3 -1.62 C 0 km/h
1261 30-12-2019 12:00:00 -0.725 C 4.47 g/m*3 -0.73 C 0.13333 km/h
1262 30-12-2019 13:00:00 0.2 C 4.76 g/m*3 0.2 C 0.13333 km/h
1263 30-12-2019 14:00:00 0.875 C 4.93 g/m*3 0.88 C 1.06667 km/h
1264 30-12-2019 15:00:00 1.50833 C 5.07 g/m*3 1.51 C 1.6 km/h
1265 30-12-2019 16:00:00 2.025 C 5.18 g/m*3 2.03 C 1.73333 km/h
1266 30-12-2019 17:00:00 1.65 C 5.05 g/m*3 1.65 C 0 km/h
1267 30-12-2019 18:00:00 0.90833 C 4.76 g/m*3 0.91 C 0 km/h
1268 30-12-2019 19:00:00 0.28333 C 4.55 g/m*3 0.28 C 1.2 km/h
1269 30-12-2019 20:00:00 0.18333 C 4.42 g/m*3 0.18 C 1.33333 km/h
1270 30-12-2019 21:00:00 -0.175 C 4.41 g/m*3 -0.18 C 3.06667 km/h
1271 30-12-2019 22:00:00 -0.23333 C 4.32 g/m*3 -0.23 C 1.86667 km/h
1272 30-12-2019 23:00:00 -0.175 C 4.36 g/m*3 -0.18 C 1.73333 km/h
1273 31-12-2019 00:00:00 -0.05 C 4.37 g/m*3 -0.05 C 1.2 km/h
1274 31-12-2019 01:00:00 -0.15833 C 4.39 g/m*3 -0.16 C 1.33333 km/h
1275 31-12-2019 02:00:00 -1.03333 C 4.18 g/m*3 -1.03 C 0.66667 km/h
Sensor: Nr:Datum:Temp:Abs-Feuchte:Windchill:Wind:
Aussen-T/F 1276 31-12-2019 03:00:00 -0.9 C 4.28 g/m*3 -0.9 C 0.66667 km/h
1277 31-12-2019 04:00:00 -1.53333 C 4.09 g/m*3 -1.53 C 0.4 km/h
1278 31-12-2019 05:00:00 -1.70833 C 4.08 g/m*3 -1.71 C 0.26667 km/h
1279 31-12-2019 06:00:00 -1.79167 C 4.06 g/m*3 -1.79 C 0.26667 km/h
1280 31-12-2019 07:00:00 -1.70833 C 4.11 g/m*3 -1.71 C 0 km/h
1281 31-12-2019 08:00:00 -0.70833 C 4.43 g/m*3 -0.71 C 1.86667 km/h
1282 31-12-2019 09:00:00 -0.1 C 4.62 g/m*3 -0.1 C 0.53333 km/h
1283 31-12-2019 10:00:00 0.46667 C 4.79 g/m*3 0.47 C 0.26667 km/h
1284 31-12-2019 11:00:00 1.20833 C 4.95 g/m*3 1.21 C 0.13333 km/h
1285 31-12-2019 12:00:00 2.275 C 5.23 g/m*3 2.28 C 1.33333 km/h
1286 31-12-2019 13:00:00 2.84167 C 5.24 g/m*3 2.84 C 0.13333 km/h
1287 31-12-2019 14:00:00 3.26667 C 5.31 g/m*3 3.27 C 0 km/h
1288 31-12-2019 15:00:00 3.48333 C 5.37 g/m*3 3.48 C 0 km/h
1289 31-12-2019 16:00:00 2.26667 C 5.05 g/m*3 2.27 C 0 km/h
1290 31-12-2019 17:00:00 0.65833 C 4.69 g/m*3 0.66 C 0 km/h
1291 31-12-2019 18:00:00 0.31667 C 4.67 g/m*3 0.32 C 0 km/h
1292 31-12-2019 19:00:00 0.875 C 4.89 g/m*3 0.88 C 0 km/h
1293 31-12-2019 20:00:00 1.26667 C 5.03 g/m*3 1.27 C 0 km/h
1294 31-12-2019 21:00:00 1.23333 C 5.01 g/m*3 1.23 C 0.13333 km/h
1295 31-12-2019 22:00:00 1.18333 C 4.99 g/m*3 1.18 C 0.13333 km/h
1296 31-12-2019 23:00:00 0.90833 C 4.92 g/m*3 0.91 C 0 km/h
1297 01-01-2020 00:00:00 0.98333 C 4.96 g/m*3 0.98 C 0.4 km/h
1298 01-01-2020 01:00:00 0.35 C 4.75 g/m*3 0.35 C 0.4 km/h
1299 01-01-2020 02:00:00 0.50833 C 4.82 g/m*3 0.51 C 0 km/h
1300 01-01-2020 03:00:00 1.06667 C 5.01 g/m*3 1.07 C 0 km/h
Sensor: Nr:Datum:Temp:Abs-Feuchte:Windchill:Wind:
Aussen-T/F 1301 01-01-2020 04:00:00 1.15 C 5.03 g/m*3 1.15 C 0.13333 km/h
1302 01-01-2020 05:00:00 1.25 C 5.07 g/m*3 1.25 C 0 km/h
1303 01-01-2020 06:00:00 1.26667 C 5.07 g/m*3 1.27 C 0.53333 km/h
1304 01-01-2020 07:00:00 1.3 C 5.09 g/m*3 1.3 C 0 km/h
1305 01-01-2020 08:00:00 1.425 C 5.13 g/m*3 1.43 C 0 km/h
1306 01-01-2020 09:00:00 1.8 C 5.26 g/m*3 1.8 C 0 km/h
1307 01-01-2020 10:00:00 2.53333 C 5.46 g/m*3 2.53 C 4.4 km/h
1308 01-01-2020 11:00:00 3.125 C 5.5 g/m*3 1.71 C 5.60833 km/h
1309 01-01-2020 12:00:00 3.375 C 5.49 g/m*3 3.38 C 2.53333 km/h
1310 01-01-2020 13:00:00 2.70833 C 5.31 g/m*3 2.71 C 0.53333 km/h
1311 01-01-2020 14:00:00 2.35833 C 5.33 g/m*3 2.36 C 0.13333 km/h
1312 01-01-2020 15:00:00 2.25 C 5.32 g/m*3 2.25 C 0.93333 km/h
1313 01-01-2020 16:00:00 1.33333 C 4.99 g/m*3 1.33 C 0 km/h
1314 01-01-2020 17:00:00 0.21667 C 4.66 g/m*3 0.22 C 0 km/h
1315 01-01-2020 18:00:00 -0.50833 C 4.46 g/m*3 -0.51 C 0 km/h
1316 01-01-2020 19:00:00 -0.88333 C 4.37 g/m*3 -0.88 C 0 km/h
1317 01-01-2020 20:00:00 -1.19167 C 4.28 g/m*3 -1.19 C 0 km/h
1318 01-01-2020 21:00:00 -1.50833 C 4.19 g/m*3 -1.51 C 0 km/h
1319 01-01-2020 22:00:00 -1.74167 C 4.12 g/m*3 -1.74 C 0 km/h
1320 01-01-2020 23:00:00 -1.66667 C 4.16 g/m*3 -1.67 C 0 km/h
1321 02-01-2020 00:00:00 -1.35 C 4.27 g/m*3 -1.35 C 0 km/h
1322 02-01-2020 01:00:00 -1.11667 C 4.35 g/m*3 -1.12 C 0 km/h
1323 02-01-2020 02:00:00 -0.65833 C 4.49 g/m*3 -0.66 C 0 km/h
1324 02-01-2020 03:00:00 -0.26667 C 4.61 g/m*3 -0.27 C 0 km/h
1325 02-01-2020 04:00:00 0.16667 C 4.75 g/m*3 0.17 C 0.8 km/h
Sensor: Nr:Datum:Temp:Abs-Feuchte:Windchill:Wind:
Aussen-T/F 1326 02-01-2020 05:00:00 0.18333 C 4.76 g/m*3 0.18 C 4.28333 km/h
1327 02-01-2020 06:00:00 0.10833 C 4.73 g/m*3 -2.46 C 7.525 km/h
1328 02-01-2020 07:00:00 0.15833 C 4.69 g/m*3 0.16 C 4.95833 km/h
1329 02-01-2020 08:00:00 0.45833 C 4.76 g/m*3 0.46 C 0.8 km/h
1330 02-01-2020 09:00:00 0.925 C 4.91 g/m*3 0.93 C 2 km/h
1331 02-01-2020 10:00:00 1.36667 C 5.06 g/m*3 1.37 C 0 km/h
1332 02-01-2020 11:00:00 2.01667 C 5.22 g/m*3 2.02 C 0.4 km/h
1333 02-01-2020 12:00:00 2.69167 C 5.37 g/m*3 2.69 C 0.93333 km/h
1334 02-01-2020 13:00:00 3.19167 C 5.49 g/m*3 3.19 C 1.2 km/h
1335 02-01-2020 14:00:00 3.6 C 5.68 g/m*3 3.6 C 0.8 km/h
1336 02-01-2020 15:00:00 3.46667 C 5.65 g/m*3 3.47 C 1.6 km/h
1337 02-01-2020 16:00:00 3.16667 C 5.59 g/m*3 3.17 C 0.4 km/h
1338 02-01-2020 17:00:00 3.025 C 5.58 g/m*3 3.03 C 0 km/h
1339 02-01-2020 18:00:00 2.9 C 5.56 g/m*3 2.9 C 0 km/h
1340 02-01-2020 19:00:00 3.075 C 5.68 g/m*3 3.08 C 0 km/h
1341 02-01-2020 20:00:00 3.2 C 5.72 g/m*3 3.2 C 0 km/h
1342 02-01-2020 21:00:00 3.28333 C 5.76 g/m*3 3.28 C 0 km/h
1343 02-01-2020 22:00:00 3.21667 C 5.77 g/m*3 3.22 C 0 km/h
1344 02-01-2020 23:00:00 3.65833 C 5.97 g/m*3 3.66 C 0 km/h
1345 03-01-2020 00:00:00 3.81667 C 6.03 g/m*3 3.82 C 0 km/h
1346 03-01-2020 01:00:00 4.24167 C 6.2 g/m*3 4.24 C 0 km/h
1347 03-01-2020 02:00:00 4.53333 C 6.32 g/m*3 4.53 C 0 km/h
1348 03-01-2020 03:00:00 4.76667 C 6.48 g/m*3 4.77 C 0 km/h
1349 03-01-2020 04:00:00 4.86667 C 6.53 g/m*3 4.87 C 0.66667 km/h
1350 03-01-2020 05:00:00 5.08333 C 6.62 g/m*3 5.08 C 1.33333 km/h
Sensor: Nr:Datum:Temp:Abs-Feuchte:Windchill:Wind:
Aussen-T/F 1351 03-01-2020 06:00:00 5.425 C 6.73 g/m*3 5.43 C 3.075 km/h
1352 03-01-2020 07:00:00 7.875 C 7.54 g/m*3 5.73 C 12.08333 km/h
1353 03-01-2020 08:00:00 8.34167 C 7.45 g/m*3 6.96 C 8.45833 km/h
1354 03-01-2020 09:00:00 8.675 C 7.43 g/m*3 7.01 C 10.23333 km/h
1355 03-01-2020 10:00:00 8.91667 C 7.42 g/m*3 6.41 C 16.36667 km/h
1356 03-01-2020 11:00:00 8.99167 C 7.49 g/m*3 5.86 C 22.51667 km/h
1357 03-01-2020 12:00:00 8.89167 C 7.51 g/m*3 5.91 C 20.64167 km/h
1358 03-01-2020 13:00:00 8.91667 C 7.63 g/m*3 5.99 C 20.23333 km/h
1359 03-01-2020 14:00:00 8.93333 C 7.75 g/m*3 6.72 C 14.1 km/h
1360 03-01-2020 15:00:00 9.29167 C 7.94 g/m*3 7.18 C 13.96667 km/h
1361 03-01-2020 16:00:00 9.38333 C 8.03 g/m*3 7.07 C 15.7 km/h
1362 03-01-2020 17:00:00 9.29167 C 8.08 g/m*3 6.99 C 15.43333 km/h
1363 03-01-2020 18:00:00 9.56667 C 8.23 g/m*3 7.34 C 15.3 km/h
1364 03-01-2020 19:00:00 9.60833 C 8.33 g/m*3 7.91 C 11.56667 km/h
1365 03-01-2020 20:00:00 9.58333 C 8.43 g/m*3 8.26 C 9.29167 km/h
1366 03-01-2020 21:00:00 8.56667 C 7.91 g/m*3 6.04 C 15.83333 km/h
1367 03-01-2020 22:00:00 7.21667 C 7.15 g/m*3 4.71 C 13.425 km/h
1368 03-01-2020 23:00:00 6.68333 C 6.91 g/m*3 5.26 C 7.4 km/h
1369 04-01-2020 00:00:00 6.34167 C 6.83 g/m*3 6.34 C 4.55 km/h
1370 04-01-2020 01:00:00 5.70833 C 6.52 g/m*3 5.71 C 2.26667 km/h
1371 04-01-2020 02:00:00 4.70833 C 6.13 g/m*3 4.71 C 2.675 km/h
1372 04-01-2020 03:00:00 4.41667 C 6.1 g/m*3 4.42 C 2.13333 km/h
1373 04-01-2020 04:00:00 4.15 C 5.95 g/m*3 4.15 C 2.66667 km/h
1374 04-01-2020 05:00:00 3.30833 C 5.65 g/m*3 3.31 C 2 km/h
1375 04-01-2020 06:00:00 2.90833 C 5.55 g/m*3 1.26 C 6.16667 km/h
Sensor: Nr:Datum:Temp:Abs-Feuchte:Windchill:Wind:
Aussen-T/F 1376 04-01-2020 07:00:00 2.93333 C 5.5 g/m*3 2.93 C 4.675 km/h
1377 04-01-2020 08:00:00 2.26667 C 5.3 g/m*3 2.27 C 2.26667 km/h
1378 04-01-2020 09:00:00 2.075 C 5.29 g/m*3 2.08 C 2.13333 km/h
1379 04-01-2020 10:00:00 3.32857 C 5.73 g/m*3 1.73 C 6.2 km/h
1380 04-01-2020 11:00:00 5.73333 C 6.23 g/m*3 3.73 C 9.125 km/h
1381 04-01-2020 12:00:00 6.48333 C 6.39 g/m*3 4.41 C 10.08333 km/h
1382 04-01-2020 13:00:00 7.11667 C 6.55 g/m*3 4.72 C 12.63333 km/h
1383 04-01-2020 14:00:00 7.48333 C 6.58 g/m*3 5.21 C 12.36667 km/h
1384 04-01-2020 15:00:00 7.41667 C 6.6 g/m*3 5.63 C 9.55833 km/h
1385 04-01-2020 16:00:00 7.25833 C 6.54 g/m*3 5.62 C 8.74167 km/h
1386 04-01-2020 17:00:00 7.175 C 6.49 g/m*3 5.32 C 9.675 km/h
1387 04-01-2020 18:00:00 7.08333 C 6.47 g/m*3 5.08 C 10.36667 km/h
1388 04-01-2020 19:00:00 6.96667 C 6.53 g/m*3 5.22 C 8.99167 km/h
1389 04-01-2020 20:00:00 6.54167 C 6.57 g/m*3 5.33 C 6.56667 km/h
1390 04-01-2020 21:00:00 6.475 C 6.78 g/m*3 5.37 C 6.15833 km/h
1391 04-01-2020 22:00:00 6.125 C 6.86 g/m*3 5.24 C 5.34167 km/h
1392 04-01-2020 23:00:00 6.13333 C 6.83 g/m*3 5.25 C 5.34167 km/h
1393 05-01-2020 00:00:00 6.14167 C 6.81 g/m*3 6.14 C 3.6 km/h
1394 05-01-2020 01:00:00 5.9 C 6.76 g/m*3 5.9 C 3.2 km/h
1395 05-01-2020 02:00:00 5.625 C 6.72 g/m*3 5.63 C 1.86667 km/h
1396 05-01-2020 03:00:00 5.35 C 6.61 g/m*3 5.35 C 0.93333 km/h
1397 05-01-2020 04:00:00 5.26667 C 6.64 g/m*3 5.27 C 0.93333 km/h
1398 05-01-2020 05:00:00 5.31667 C 6.66 g/m*3 5.32 C 0.53333 km/h
1399 05-01-2020 06:00:00 5.4 C 6.7 g/m*3 5.4 C 0.93333 km/h
1400 05-01-2020 07:00:00 5.36667 C 6.68 g/m*3 5.37 C 0.26667 km/h
Sensor: Nr:Datum:Temp:Abs-Feuchte:Windchill:Wind:
Aussen-T/F 1401 05-01-2020 08:00:00 5.19 C 6.61 g/m*3 5.19 C 0.64 km/h
1402 05-01-2020 09:00:00 5.33 C 6.67 g/m*3 5.33 C 4.8 km/h
1403 05-01-2020 10:00:00 5.8 C 6.82 g/m*3 4.68 C 5.88333 km/h
1404 05-01-2020 11:00:00 6.25833 C 6.9 g/m*3 5.34 C 5.49167 km/h
1405 05-01-2020 12:00:00 6.6 C 6.96 g/m*3 5.77 C 5.35 km/h
1406 05-01-2020 13:00:00 6.93333 C 7.05 g/m*3 6.2 C 5.20833 km/h
1407 05-01-2020 14:00:00 7.20833 C 7.08 g/m*3 7.21 C 2.8 km/h
1408 05-01-2020 15:00:00 7.20833 C 7.11 g/m*3 7.21 C 0.8 km/h
1409 05-01-2020 16:00:00 6.79167 C 7.02 g/m*3 6.79 C 0 km/h
1410 05-01-2020 17:00:00 6.24167 C 6.77 g/m*3 6.24 C 1.73333 km/h
1411 05-01-2020 18:00:00 6.16667 C 6.63 g/m*3 6.17 C 2.26667 km/h
1412 05-01-2020 19:00:00 6.11667 C 6.56 g/m*3 6.12 C 0.4 km/h
1413 05-01-2020 20:00:00 5.90833 C 6.51 g/m*3 5.91 C 0.4 km/h
1414 05-01-2020 21:00:00 5.8 C 6.51 g/m*3 5.8 C 0 km/h
1415 05-01-2020 22:00:00 5.58333 C 6.5 g/m*3 5.58 C 0 km/h
1416 05-01-2020 23:00:00 5.30833 C 6.43 g/m*3 5.31 C 0 km/h
1417 06-01-2020 00:00:00 5.11667 C 6.3 g/m*3 5.12 C 0 km/h
1418 06-01-2020 01:00:00 4.98333 C 6.2 g/m*3 4.98 C 0 km/h
1419 06-01-2020 02:00:00 4.84167 C 6.12 g/m*3 4.84 C 0 km/h
1420 06-01-2020 03:00:00 4.71667 C 6.08 g/m*3 4.72 C 0 km/h
1421 06-01-2020 04:00:00 4.61667 C 6.04 g/m*3 4.62 C 0.13333 km/h
1422 06-01-2020 05:00:00 4.4 C 6 g/m*3 4.4 C 0 km/h
1423 06-01-2020 06:00:00 4.15833 C 5.92 g/m*3 4.16 C 0 km/h
1424 06-01-2020 07:00:00 3.76667 C 5.78 g/m*3 3.77 C 0 km/h
1425 06-01-2020 08:00:00 3.36667 C 5.65 g/m*3 3.37 C 0 km/h
Sensor: Nr:Datum:Temp:Abs-Feuchte:Windchill:Wind:
Aussen-T/F 1426 06-01-2020 09:00:00 3.475 C 5.69 g/m*3 3.48 C 0 km/h
1427 06-01-2020 10:00:00 3.73333 C 5.7 g/m*3 3.73 C 0 km/h
1428 06-01-2020 11:00:00 2.975 C 5.48 g/m*3 2.98 C 1.06667 km/h
1429 06-01-2020 12:00:00 3.10833 C 5.57 g/m*3 3.11 C 1.2 km/h
1430 06-01-2020 13:00:00 3.2 C 5.65 g/m*3 3.2 C 0.93333 km/h
1431 06-01-2020 14:00:00 3.26667 C 5.69 g/m*3 3.27 C 0.53333 km/h
1432 06-01-2020 15:00:00 3.4 C 5.74 g/m*3 3.4 C 2.53333 km/h
1433 06-01-2020 16:00:00 2.925 C 5.56 g/m*3 2.93 C 1.73333 km/h
1434 06-01-2020 17:00:00 1.85833 C 5.19 g/m*3 1.86 C 0.66667 km/h
1435 06-01-2020 18:00:00 1.01667 C 4.92 g/m*3 1.02 C 0.93333 km/h
1436 06-01-2020 19:00:00 0.39167 C 4.73 g/m*3 0.39 C 1.2 km/h
1437 06-01-2020 20:00:00 -0.125 C 4.58 g/m*3 -0.13 C 0.53333 km/h
1438 06-01-2020 21:00:00 -0.11667 C 4.61 g/m*3 -0.12 C 0 km/h
1439 06-01-2020 22:00:00 0.98333 C 5 g/m*3 0.98 C 2.40833 km/h
1440 06-01-2020 23:00:00 1.59167 C 5.19 g/m*3 1.59 C 1.06667 km/h
1441 07-01-2020 00:00:00 2.34167 C 5.46 g/m*3 2.34 C 4.55 km/h
1442 07-01-2020 01:00:00 3.15 C 5.69 g/m*3 1.95 C 5.09167 km/h
1443 07-01-2020 02:00:00 3.71667 C 5.83 g/m*3 1.65 C 7.925 km/h
1444 07-01-2020 03:00:00 3.7 C 5.86 g/m*3 1.66 C 7.8 km/h
1445 07-01-2020 04:00:00 3.93333 C 5.96 g/m*3 1.55 C 9.275 km/h
1446 07-01-2020 05:00:00 4.26667 C 6.08 g/m*3 1.76 C 10.08333 km/h
1447 07-01-2020 06:00:00 4.6 C 6.21 g/m*3 2.07 C 10.5 km/h
1448 07-01-2020 07:00:00 5 C 6.32 g/m*3 2.82 C 9.28333 km/h
1449 07-01-2020 08:00:00 4.925 C 6.29 g/m*3 3.25 C 7.25 km/h
1450 07-01-2020 09:00:00 4.725 C 6.31 g/m*3 3.54 C 5.625 km/h
Sensor: Nr:Datum:Temp:Abs-Feuchte:Windchill:Wind:
Aussen-T/F 1451 07-01-2020 10:00:00 5.68333 C 6.66 g/m*3 4.18 C 7.10833 km/h
1452 07-01-2020 11:00:00 6.6 C 6.95 g/m*3 4.75 C 9.15 km/h
1453 07-01-2020 12:00:00 7.1 C 6.96 g/m*3 4.67 C 12.76667 km/h
1454 07-01-2020 13:00:00 7.28333 C 6.98 g/m*3 5.35 C 10.20833 km/h
1455 07-01-2020 14:00:00 7.38333 C 6.92 g/m*3 5.83 C 8.46667 km/h
1456 07-01-2020 15:00:00 6.925 C 6.75 g/m*3 6.15 C 5.34167 km/h
1457 07-01-2020 16:00:00 5.84167 C 6.46 g/m*3 5.84 C 2.13333 km/h
1458 07-01-2020 17:00:00 4.54167 C 6.12 g/m*3 4.54 C 3.06667 km/h
1459 07-01-2020 18:00:00 4.025 C 6 g/m*3 4.03 C 2.8 km/h
1460 07-01-2020 19:00:00 3.65833 C 5.9 g/m*3 3.66 C 2.66667 km/h
1461 07-01-2020 20:00:00 4.20833 C 6.16 g/m*3 4.21 C 4.55 km/h
1462 07-01-2020 21:00:00 5.49167 C 6.5 g/m*3 3.66 C 8.2 km/h
1463 07-01-2020 22:00:00 6.20833 C 6.52 g/m*3 5.1 C 6.04167 km/h
1464 07-01-2020 23:00:00 6.56667 C 6.51 g/m*3 6.57 C 4.425 km/h
1465 08-01-2020 00:00:00 6.26667 C 6.38 g/m*3 6.27 C 2.40833 km/h
1466 08-01-2020 01:00:00 6.13333 C 6.3 g/m*3 6.13 C 2.8 km/h
1467 08-01-2020 02:00:00 5.85833 C 6.32 g/m*3 5.86 C 2.53333 km/h
1468 08-01-2020 03:00:00 6.45833 C 6.65 g/m*3 6.46 C 4.81667 km/h
1469 08-01-2020 04:00:00 6.575 C 6.74 g/m*3 6.58 C 1.86667 km/h
1470 08-01-2020 05:00:00 6.44167 C 6.82 g/m*3 6.44 C 0.13333 km/h
1471 08-01-2020 06:00:00 6.7 C 7.05 g/m*3 6.7 C 2.13333 km/h
1472 08-01-2020 07:00:00 7.04167 C 7.33 g/m*3 7.04 C 1.46667 km/h
1473 08-01-2020 08:00:00 7.175 C 7.46 g/m*3 7.18 C 4.29167 km/h
1474 08-01-2020 09:00:00 7.475 C 7.67 g/m*3 6.86 C 5.1 km/h
1475 08-01-2020 10:00:00 7.85833 C 7.82 g/m*3 6.01 C 10.35833 km/h
Sensor: Nr:Datum:Temp:Abs-Feuchte:Windchill:Wind:
Aussen-T/F 1476 08-01-2020 11:00:00 8.24167 C 7.9 g/m*3 6.9 C 8.20833 km/h
1477 08-01-2020 12:00:00 8.375 C 7.96 g/m*3 8.38 C 2.26667 km/h
1478 08-01-2020 13:00:00 9.05833 C 8.27 g/m*3 9.06 C 4.68333 km/h
1479 08-01-2020 14:00:00 9.36667 C 8.39 g/m*3 9.37 C 3.075 km/h
1480 08-01-2020 15:00:00 9.73333 C 8.51 g/m*3 8.68 C 8.05833 km/h
1481 08-01-2020 16:00:00 9.78333 C 8.57 g/m*3 9.78 C 4.55 km/h
1482 08-01-2020 17:00:00 9.8 C 8.63 g/m*3 8.88 C 7.51667 km/h
1483 08-01-2020 18:00:00 9.71667 C 8.64 g/m*3 9.1 C 6.18333 km/h
1484 08-01-2020 19:00:00 9.95833 C 8.81 g/m*3 9.56 C 5.49167 km/h
1485 08-01-2020 20:00:00 10.175 C 8.93 g/m*3 9.6 C 6.3 km/h
1486 08-01-2020 21:00:00 10.3 C 9 g/m*3 9.78 C 6.15833 km/h
1487 08-01-2020 22:00:00 10.20833 C 8.99 g/m*3 10.21 C 4.41667 km/h
1488 08-01-2020 23:00:00 10.1 C 8.98 g/m*3 10.1 C 1.6 km/h
1489 09-01-2020 00:00:00 9.89167 C 8.88 g/m*3 9.89 C 0 km/h
1490 09-01-2020 01:00:00 9.78333 C 8.9 g/m*3 9.78 C 0 km/h
1491 09-01-2020 02:00:00 9.59167 C 8.79 g/m*3 9.59 C 1.46667 km/h
1492 09-01-2020 03:00:00 9.425 C 8.7 g/m*3 9.43 C 1.6 km/h
1493 09-01-2020 04:00:00 9.23333 C 8.62 g/m*3 9.23 C 0.13333 km/h
1494 09-01-2020 05:00:00 9.25 C 8.69 g/m*3 9.25 C 0.26667 km/h
1495 09-01-2020 06:00:00 9.21667 C 8.67 g/m*3 9.22 C 0.26667 km/h
1496 09-01-2020 07:00:00 9.48333 C 8.82 g/m*3 9.48 C 1.2 km/h
1497 09-01-2020 08:00:00 9.79167 C 9.04 g/m*3 9.79 C 1.475 km/h
1498 09-01-2020 09:00:00 10.53333 C 9.49 g/m*3 10.53 C 4.28333 km/h
1499 09-01-2020 10:00:00 11.11667 C 9.71 g/m*3 11.12 C 5.61667 km/h
1500 09-01-2020 11:00:00 12.125 C 9.98 g/m*3 12.13 C 10.48333 km/h
Sensor: Nr:Datum:Temp:Abs-Feuchte:Windchill:Wind:
Aussen-T/F 1501 09-01-2020 12:00:00 12.95833 C 10.08 g/m*3 12.96 C 13.83333 km/h
1502 09-01-2020 13:00:00 13.325 C 10.1 g/m*3 13.33 C 15.43333 km/h
1503 09-01-2020 14:00:00 13.11667 C 10.03 g/m*3 13.12 C 9.95 km/h
1504 09-01-2020 15:00:00 12.925 C 9.96 g/m*3 12.93 C 9.81667 km/h
1505 09-01-2020 16:00:00 12.79167 C 9.85 g/m*3 12.79 C 6.43333 km/h
1506 09-01-2020 17:00:00 12.59167 C 9.67 g/m*3 12.59 C 5.08333 km/h
1507 09-01-2020 18:00:00 12.05833 C 9.47 g/m*3 12.06 C 4.68333 km/h
1508 09-01-2020 19:00:00 11.73333 C 9.24 g/m*3 11.73 C 4.01667 km/h
1509 09-01-2020 20:00:00 10.9 C 9.07 g/m*3 10.9 C 3.61667 km/h
1510 09-01-2020 21:00:00 10.21667 C 8.83 g/m*3 10.22 C 2.94167 km/h
1511 09-01-2020 22:00:00 9.875 C 8.72 g/m*3 9.88 C 1.2 km/h
1512 09-01-2020 23:00:00 10.275 C 8.6 g/m*3 9.82 C 5.89167 km/h
1513 10-01-2020 00:00:00 10.5 C 8.57 g/m*3 10.5 C 3.625 km/h
1514 10-01-2020 01:00:00 10.28333 C 8.51 g/m*3 10.28 C 3.875 km/h
1515 10-01-2020 02:00:00 10.23333 C 8.46 g/m*3 9.32 C 7.79167 km/h
1516 10-01-2020 03:00:00 10.29167 C 8.36 g/m*3 9.4 C 7.775 km/h
1517 10-01-2020 04:00:00 10.325 C 8.01 g/m*3 8.88 C 10.89167 km/h
1518 10-01-2020 05:00:00 10.025 C 7.85 g/m*3 9.22 C 7.13333 km/h
1519 10-01-2020 06:00:00 9.55 C 8.02 g/m*3 9.55 C 2 km/h
1520 10-01-2020 07:00:00 8.71667 C 8.05 g/m*3 8.72 C 0.26667 km/h
1521 10-01-2020 08:00:00 8.43333 C 7.98 g/m*3 8.43 C 0.26667 km/h
1522 10-01-2020 09:00:00 8.99167 C 8.03 g/m*3 8.99 C 2.81667 km/h
1523 10-01-2020 10:00:00 9.675 C 8.11 g/m*3 9.68 C 2.94167 km/h
1524 10-01-2020 11:00:00 10.39167 C 8.28 g/m*3 9.09 C 10.075 km/h
1525 10-01-2020 12:00:00 10.70833 C 8.47 g/m*3 8.82 C 14.76667 km/h
Sensor: Nr:Datum:Temp:Abs-Feuchte:Windchill:Wind:
Aussen-T/F 1526 10-01-2020 13:00:00 9.41667 C 8.18 g/m*3 9.42 C 4.28333 km/h
1527 10-01-2020 14:00:00 9.1 C 7.86 g/m*3 7.91 C 8.19167 km/h
1528 10-01-2020 15:00:00 9.15833 C 7.53 g/m*3 7.79 C 9.13333 km/h
1529 10-01-2020 16:00:00 8.51667 C 7.51 g/m*3 6.68 C 11.01667 km/h
1530 10-01-2020 17:00:00 7.75 C 7.23 g/m*3 5.95 C 9.95833 km/h
1531 10-01-2020 18:00:00 7.7 C 7.16 g/m*3 6.32 C 7.91667 km/h
1532 10-01-2020 19:00:00 7.225 C 7.1 g/m*3 5.61 C 8.59167 km/h
1533 10-01-2020 20:00:00 6.9 C 6.92 g/m*3 5.98 C 5.75833 km/h
1534 10-01-2020 21:00:00 6.66667 C 6.72 g/m*3 6.67 C 2.675 km/h
1535 10-01-2020 22:00:00 6.66667 C 6.65 g/m*3 6.67 C 4.68333 km/h
1536 10-01-2020 23:00:00 6.775 C 6.63 g/m*3 5.84 C 5.75 km/h
1537 11-01-2020 00:00:00 6.20833 C 6.41 g/m*3 6.21 C 3.2 km/h
1538 11-01-2020 01:00:00 4.93333 C 6.14 g/m*3 4.93 C 0.26667 km/h
1539 11-01-2020 02:00:00 4.4 C 5.99 g/m*3 4.4 C 0.66667 km/h
1540 11-01-2020 03:00:00 3.59167 C 5.79 g/m*3 3.59 C 1.06667 km/h
1541 11-01-2020 04:00:00 3.80833 C 5.96 g/m*3 3.81 C 0.8 km/h
1542 11-01-2020 05:00:00 3.725 C 5.91 g/m*3 3.73 C 1.46667 km/h
1543 11-01-2020 06:00:00 3.59167 C 5.88 g/m*3 3.59 C 3.34167 km/h
1544 11-01-2020 07:00:00 3.31667 C 5.73 g/m*3 3.32 C 2.66667 km/h
1545 11-01-2020 08:00:00 1.94167 C 5.21 g/m*3 1.94 C 1.74167 km/h
1546 11-01-2020 09:00:00 2.15833 C 5.36 g/m*3 0.77 C 5.20833 km/h
1547 11-01-2020 10:00:00 2.85 C 5.59 g/m*3 2.85 C 4.55833 km/h
1548 11-01-2020 11:00:00 3.94167 C 5.95 g/m*3 3.94 C 0.8 km/h
1549 11-01-2020 12:00:00 5.89167 C 6.19 g/m*3 5.89 C 3.2 km/h
1550 11-01-2020 13:00:00 7.15833 C 5.92 g/m*3 5.3 C 9.66667 km/h
Sensor: Nr:Datum:Temp:Abs-Feuchte:Windchill:Wind:
Aussen-T/F 1551 11-01-2020 14:00:00 7.075 C 5.87 g/m*3 5.62 C 7.78333 km/h
1552 11-01-2020 15:00:00 6.925 C 5.93 g/m*3 6.93 C 3.60833 km/h
1553 11-01-2020 16:00:00 6.76667 C 5.93 g/m*3 5.91 C 5.5 km/h
1554 11-01-2020 17:00:00 6.26667 C 5.82 g/m*3 6.27 C 3.88333 km/h
1555 11-01-2020 18:00:00 5.44167 C 5.75 g/m*3 5.44 C 1.33333 km/h
1556 11-01-2020 19:00:00 3.95 C 5.57 g/m*3 3.95 C 2.26667 km/h
1557 11-01-2020 20:00:00 3.19167 C 5.42 g/m*3 3.19 C 2.53333 km/h
1558 11-01-2020 21:00:00 2.675 C 5.3 g/m*3 2.68 C 2.13333 km/h
1559 11-01-2020 22:00:00 2.29167 C 5.23 g/m*3 2.29 C 0.8 km/h
1560 11-01-2020 23:00:00 2.11667 C 5.18 g/m*3 2.12 C 1.34167 km/h
1561 12-01-2020 00:00:00 1.95 C 5.15 g/m*3 1.95 C 2.93333 km/h
1562 12-01-2020 01:00:00 1.99167 C 5.17 g/m*3 1.99 C 2.26667 km/h
1563 12-01-2020 02:00:00 2.46667 C 5.31 g/m*3 2.47 C 2.4 km/h
1564 12-01-2020 03:00:00 2.48333 C 5.28 g/m*3 2.48 C 2.53333 km/h
1565 12-01-2020 04:00:00 2.59167 C 5.38 g/m*3 2.59 C 0.66667 km/h
1566 12-01-2020 05:00:00 3.73333 C 5.63 g/m*3 3.73 C 2.80833 km/h
1567 12-01-2020 06:00:00 4.275 C 5.65 g/m*3 2.34 C 7.78333 km/h
1568 12-01-2020 07:00:00 4.325 C 5.64 g/m*3 1.55 C 11.425 km/h
1569 12-01-2020 08:00:00 4.425 C 5.61 g/m*3 1.47 C 12.49167 km/h
1570 12-01-2020 09:00:00 4.825 C 5.69 g/m*3 1.55 C 14.9 km/h
1571 12-01-2020 10:00:00 5.325 C 5.8 g/m*3 2.42 C 13.3 km/h
1572 12-01-2020 11:00:00 5.7 C 5.87 g/m*3 2.95 C 12.88333 km/h
1573 12-01-2020 12:00:00 6.26667 C 6.03 g/m*3 3.19 C 15.83333 km/h
1574 12-01-2020 13:00:00 6.75833 C 6.24 g/m*3 4.19 C 13.16667 km/h
1575 12-01-2020 14:00:00 7.18333 C 6.45 g/m*3 4.49 C 14.63333 km/h
Sensor: Nr:Datum:Temp:Abs-Feuchte:Windchill:Wind:
Aussen-T/F 1576 12-01-2020 15:00:00 7.18333 C 6.57 g/m*3 4.07 C 17.84167 km/h
1577 12-01-2020 16:00:00 6.88333 C 6.56 g/m*3 3.48 C 19.7 km/h
1578 12-01-2020 17:00:00 6.525 C 6.57 g/m*3 2.92 C 20.63333 km/h
1579 12-01-2020 18:00:00 6.15833 C 6.51 g/m*3 3.35 C 13.83333 km/h
1580 12-01-2020 19:00:00 6.16667 C 6.6 g/m*3 4.52 C 7.93333 km/h
1581 12-01-2020 20:00:00 6.4 C 6.73 g/m*3 4.15 C 10.9 km/h
1582 12-01-2020 21:00:00 6.65 C 6.89 g/m*3 4.36 C 11.41667 km/h
1583 12-01-2020 22:00:00 6.80833 C 6.94 g/m*3 4.97 C 9.26667 km/h
1584 12-01-2020 23:00:00 6.35 C 6.79 g/m*3 5.07 C 6.69167 km/h
1585 13-01-2020 00:00:00 6.81667 C 6.97 g/m*3 4.78 C 10.225 km/h
1586 13-01-2020 01:00:00 6.775 C 7.04 g/m*3 6.78 C 3.88333 km/h
1587 13-01-2020 02:00:00 6.56667 C 7.07 g/m*3 6.57 C 3.73333 km/h
1588 13-01-2020 03:00:00 6.03333 C 6.8 g/m*3 6.03 C 0.8 km/h
1589 13-01-2020 04:00:00 4.80833 C 6.32 g/m*3 4.81 C 2.53333 km/h
1590 13-01-2020 05:00:00 5.08333 C 6.54 g/m*3 5.08 C 1.33333 km/h
1591 13-01-2020 06:00:00 5.28333 C 6.61 g/m*3 5.28 C 0.94167 km/h
1592 13-01-2020 07:00:00 4.76667 C 6.36 g/m*3 4.77 C 2.675 km/h
1593 13-01-2020 08:00:00 4.88333 C 6.43 g/m*3 4.88 C 1.2 km/h
1594 13-01-2020 09:00:00 5.65833 C 6.74 g/m*3 5.66 C 3.06667 km/h
1595 13-01-2020 10:00:00 6.63333 C 7.03 g/m*3 6.63 C 4.95 km/h
1596 13-01-2020 11:00:00 7.65 C 7.27 g/m*3 7.06 C 5.075 km/h
1597 13-01-2020 12:00:00 8.25833 C 7.38 g/m*3 8.26 C 2.66667 km/h
1598 13-01-2020 13:00:00 8.15833 C 7.4 g/m*3 8.16 C 3.74167 km/h
1599 13-01-2020 14:00:00 7.875 C 7.44 g/m*3 7.88 C 1.06667 km/h
1600 13-01-2020 15:00:00 7.95833 C 7.2 g/m*3 7.96 C 2 km/h
Sensor: Nr:Datum:Temp:Abs-Feuchte:Windchill:Wind:
Aussen-T/F 1601 13-01-2020 16:00:00 7.81667 C 7.04 g/m*3 7.82 C 1.33333 km/h
1602 13-01-2020 17:00:00 7.14167 C 6.84 g/m*3 7.14 C 0.4 km/h
1603 13-01-2020 18:00:00 6.35833 C 6.7 g/m*3 6.36 C 1.06667 km/h
1604 13-01-2020 19:00:00 6.525 C 6.79 g/m*3 6.53 C 1.06667 km/h
1605 13-01-2020 20:00:00 6.39167 C 6.79 g/m*3 6.39 C 0 km/h
1606 13-01-2020 21:00:00 6.3 C 6.81 g/m*3 6.3 C 0 km/h
1607 13-01-2020 22:00:00 6.425 C 6.94 g/m*3 6.43 C 0.66667 km/h
1608 13-01-2020 23:00:00 6.84167 C 7.12 g/m*3 6.84 C 1.34167 km/h
1609 14-01-2020 00:00:00 7.15833 C 7.28 g/m*3 7.16 C 1.33333 km/h
1610 14-01-2020 01:00:00 6.76667 C 7.07 g/m*3 6.77 C 0.66667 km/h
1611 14-01-2020 02:00:00 6.925 C 7.07 g/m*3 6.93 C 2.13333 km/h
1612 14-01-2020 03:00:00 7.25 C 7.04 g/m*3 7.25 C 1.2 km/h
1613 14-01-2020 04:00:00 7.53333 C 7.07 g/m*3 7.53 C 2.8 km/h
1614 14-01-2020 05:00:00 8.18333 C 7.12 g/m*3 7.58 C 5.35 km/h
1615 14-01-2020 06:00:00 8.175 C 6.97 g/m*3 8.18 C 4.425 km/h
1616 14-01-2020 07:00:00 8.01667 C 6.85 g/m*3 8.02 C 4.68333 km/h
1617 14-01-2020 08:00:00 8.46667 C 6.84 g/m*3 6.81 C 9.95833 km/h
1618 14-01-2020 09:00:00 8.89167 C 7.05 g/m*3 7.22 C 10.49167 km/h
1619 14-01-2020 10:00:00 9.48333 C 7.21 g/m*3 7.93 C 10.475 km/h
1620 14-01-2020 11:00:00 9.84167 C 7.1 g/m*3 9.05 C 6.96667 km/h
1621 14-01-2020 12:00:00 10.20833 C 6.98 g/m*3 9.44 C 7.10833 km/h
1622 14-01-2020 13:00:00 10.7 C 7.21 g/m*3 10.7 C 3.88333 km/h
1623 14-01-2020 14:00:00 11.95833 C 7.17 g/m*3 11.96 C 8.2 km/h
1624 14-01-2020 15:00:00 12.11667 C 7.08 g/m*3 12.12 C 8.30833 km/h
1625 14-01-2020 16:00:00 11.425 C 6.85 g/m*3 11.43 C 6.58333 km/h
Sensor: Nr:Datum:Temp:Abs-Feuchte:Windchill:Wind:
Aussen-T/F 1626 14-01-2020 17:00:00 11.23333 C 6.84 g/m*3 11.23 C 10.075 km/h
1627 14-01-2020 18:00:00 11.31667 C 7.23 g/m*3 11.32 C 9.25833 km/h
1628 14-01-2020 19:00:00 11.46667 C 7.76 g/m*3 11.47 C 13.025 km/h
1629 14-01-2020 20:00:00 11.475 C 7.61 g/m*3 11.48 C 13.96667 km/h
1630 14-01-2020 21:00:00 11.95833 C 7.4 g/m*3 11.96 C 13.69167 km/h
1631 14-01-2020 22:00:00 11.96667 C 7.52 g/m*3 11.97 C 6.96667 km/h
1632 14-01-2020 23:00:00 12 C 7.74 g/m*3 12 C 8.875 km/h
1633 15-01-2020 00:00:00 11.875 C 7.51 g/m*3 11.88 C 8.2 km/h
1634 15-01-2020 01:00:00 11.54167 C 7.46 g/m*3 11.54 C 6.7 km/h
1635 15-01-2020 02:00:00 10.95 C 7.65 g/m*3 10.73 C 5.35833 km/h
1636 15-01-2020 03:00:00 10.48333 C 7.83 g/m*3 10.48 C 2.675 km/h
1637 15-01-2020 04:00:00 9.68333 C 7.74 g/m*3 9.68 C 1.2 km/h
1638 15-01-2020 05:00:00 9.69167 C 7.58 g/m*3 9.69 C 4.28333 km/h
1639 15-01-2020 06:00:00 10.225 C 7.35 g/m*3 9.98 C 5.09167 km/h
1640 15-01-2020 07:00:00 8.39167 C 6.9 g/m*3 8.39 C 1.2 km/h
1641 15-01-2020 08:00:00 6.98333 C 6.68 g/m*3 6.98 C 0.66667 km/h
1642 15-01-2020 09:00:00 7.49167 C 6.89 g/m*3 7.49 C 1.73333 km/h
1643 15-01-2020 10:00:00 8.01667 C 7.12 g/m*3 8.02 C 1.73333 km/h
1644 15-01-2020 11:00:00 9.96667 C 7.39 g/m*3 9.97 C 3.475 km/h
1645 15-01-2020 12:00:00 11.725 C 7.43 g/m*3 11.73 C 4.95833 km/h
1646 15-01-2020 13:00:00 12.575 C 7.48 g/m*3 12.58 C 7.25 km/h
1647 15-01-2020 14:00:00 12.3 C 7.57 g/m*3 12.3 C 5.625 km/h
1648 15-01-2020 15:00:00 13.20833 C 7.5 g/m*3 13.21 C 13.55 km/h
1649 15-01-2020 16:00:00 13.09167 C 7.58 g/m*3 13.09 C 5.63333 km/h
1650 15-01-2020 17:00:00 12.38333 C 7.69 g/m*3 12.38 C 3.20833 km/h
Sensor: Nr:Datum:Temp:Abs-Feuchte:Windchill:Wind:
Aussen-T/F 1651 15-01-2020 18:00:00 12 C 7.67 g/m*3 12 C 3.075 km/h
1652 15-01-2020 19:00:00 12.68333 C 7.77 g/m*3 12.68 C 7.375 km/h
1653 15-01-2020 20:00:00 12.91667 C 7.95 g/m*3 12.92 C 13.16667 km/h
1654 15-01-2020 21:00:00 12.66667 C 8.21 g/m*3 12.67 C 12.48333 km/h
1655 15-01-2020 22:00:00 10.80833 C 8.69 g/m*3 10.81 C 2.8 km/h
1656 15-01-2020 23:00:00 9.71667 C 8.46 g/m*3 9.72 C 4.26667 km/h
1657 16-01-2020 00:00:00 9.25833 C 8.23 g/m*3 9.26 C 2.95833 km/h
1658 16-01-2020 01:00:00 9.5 C 8.47 g/m*3 9.5 C 1.2 km/h
1659 16-01-2020 02:00:00 9.35833 C 8.42 g/m*3 9.36 C 0.26667 km/h
1660 16-01-2020 03:00:00 9.4 C 8.56 g/m*3 9.4 C 0.8 km/h
1661 16-01-2020 04:00:00 9.275 C 8.52 g/m*3 9.28 C 0 km/h
1662 16-01-2020 05:00:00 8.83333 C 8.32 g/m*3 8.83 C 0.26667 km/h
1663 16-01-2020 06:00:00 8.20833 C 8.02 g/m*3 8.21 C 0.13333 km/h
1664 16-01-2020 07:00:00 7.375 C 7.59 g/m*3 7.38 C 0 km/h
1665 16-01-2020 08:00:00 7.00833 C 7.44 g/m*3 7.01 C 0 km/h
1666 16-01-2020 09:00:00 6.24167 C 7.09 g/m*3 6.24 C 0 km/h
1667 16-01-2020 10:00:00 7.1 C 7.57 g/m*3 7.1 C 0 km/h
1668 16-01-2020 11:00:00 7.475 C 7.75 g/m*3 7.48 C 0 km/h
1669 16-01-2020 12:00:00 7.28333 C 7.66 g/m*3 7.28 C 1.2 km/h
1670 16-01-2020 13:00:00 8.19167 C 8.15 g/m*3 8.19 C 3.34167 km/h
1671 16-01-2020 14:00:00 8.74167 C 8.41 g/m*3 8.74 C 2 km/h
1672 16-01-2020 15:00:00 8.80833 C 8.32 g/m*3 8.81 C 2.8 km/h
1673 16-01-2020 16:00:00 8.375 C 8.01 g/m*3 8.38 C 0.66667 km/h
1674 16-01-2020 17:00:00 7.64167 C 7.67 g/m*3 7.64 C 3.73333 km/h
1675 16-01-2020 18:00:00 7.09167 C 7.41 g/m*3 7.09 C 2.26667 km/h
Sensor: Nr:Datum:Temp:Abs-Feuchte:Windchill:Wind:
Aussen-T/F 1676 16-01-2020 19:00:00 6.65 C 7.26 g/m*3 6.65 C 1.46667 km/h
1677 16-01-2020 20:00:00 6.53333 C 7.22 g/m*3 6.53 C 2.26667 km/h
1678 16-01-2020 21:00:00 6.23333 C 7.08 g/m*3 6.23 C 1.06667 km/h
1679 16-01-2020 22:00:00 6.10833 C 7.02 g/m*3 6.11 C 2.4 km/h
1680 16-01-2020 23:00:00 6.79167 C 7.26 g/m*3 6.79 C 4.675 km/h
1681 17-01-2020 00:00:00 6.4 C 6.97 g/m*3 6.4 C 2.4 km/h
1682 17-01-2020 01:00:00 5.7 C 6.71 g/m*3 5.7 C 1.06667 km/h
1683 17-01-2020 02:00:00 5.41667 C 6.6 g/m*3 5.42 C 3.08333 km/h
1684 17-01-2020 03:00:00 4.675 C 6.32 g/m*3 4.68 C 1.46667 km/h
1685 17-01-2020 04:00:00 4.58333 C 6.35 g/m*3 4.58 C 1.06667 km/h
1686 17-01-2020 05:00:00 3.86667 C 6.05 g/m*3 3.87 C 0 km/h
1687 17-01-2020 06:00:00 3.10833 C 5.75 g/m*3 3.11 C 0 km/h
1688 17-01-2020 07:00:00 2.54167 C 5.53 g/m*3 2.54 C 0 km/h
1689 17-01-2020 08:00:00 2.84167 C 5.71 g/m*3 2.84 C 1.2 km/h
1690 17-01-2020 09:00:00 3.20833 C 5.85 g/m*3 3.21 C 0.4 km/h
1691 17-01-2020 10:00:00 4.05 C 6.19 g/m*3 4.05 C 0.26667 km/h
1692 17-01-2020 11:00:00 5.11667 C 6.65 g/m*3 5.12 C 0.13333 km/h
1693 17-01-2020 12:00:00 6.56667 C 7.29 g/m*3 6.57 C 0.66667 km/h
1694 17-01-2020 13:00:00 8.19167 C 7.92 g/m*3 8.19 C 3.20833 km/h
1695 17-01-2020 14:00:00 9.74167 C 8.27 g/m*3 9.2 C 5.9 km/h
1696 17-01-2020 15:00:00 9.31667 C 8.24 g/m*3 9.32 C 4.14167 km/h
1697 17-01-2020 16:00:00 8.85 C 8.1 g/m*3 8.85 C 3.875 km/h
1698 17-01-2020 17:00:00 8.84167 C 8.09 g/m*3 7.55 C 8.45833 km/h
1699 17-01-2020 18:00:00 8.825 C 7.94 g/m*3 7.5 C 8.59167 km/h
1700 17-01-2020 19:00:00 7.48333 C 7.34 g/m*3 7.48 C 3.75 km/h
Sensor: Nr:Datum:Temp:Abs-Feuchte:Windchill:Wind:
Aussen-T/F 1701 17-01-2020 20:00:00 7.275 C 7.35 g/m*3 7.28 C 4.29167 km/h
1702 17-01-2020 21:00:00 7.61667 C 7.02 g/m*3 6.11 C 8.45 km/h
1703 17-01-2020 22:00:00 6.05833 C 6.36 g/m*3 6.06 C 1.73333 km/h
1704 17-01-2020 23:00:00 4.65 C 6.05 g/m*3 4.65 C 0.66667 km/h
1705 18-01-2020 00:00:00 4.04167 C 5.94 g/m*3 4.04 C 1.35 km/h
1706 18-01-2020 01:00:00 4.55833 C 6.16 g/m*3 4.56 C 1.86667 km/h
1707 18-01-2020 02:00:00 4.475 C 6.1 g/m*3 4.47 C 2.275 km/h
1708 18-01-2020 03:00:00 4.925 C 6.09 g/m*3 3.03 C 8.05833 km/h
1709 18-01-2020 04:00:00 4.68333 C 5.94 g/m*3 2.78 C 7.91667 km/h
1710 18-01-2020 05:00:00 4.3 C 5.77 g/m*3 2.6 C 6.975 km/h
1711 18-01-2020 06:00:00 4.04167 C 5.67 g/m*3 1.92 C 8.325 km/h
1712 18-01-2020 07:00:00 4.05 C 5.67 g/m*3 4.05 C 4.94167 km/h
1713 18-01-2020 08:00:00 4.34167 C 5.76 g/m*3 2.73 C 6.70833 km/h
1714 18-01-2020 09:00:00 4.66667 C 5.84 g/m*3 1.99 C 11.29167 km/h
1715 18-01-2020 10:00:00 5.24167 C 5.97 g/m*3 3.3 C 8.475 km/h
1716 18-01-2020 11:00:00 5.8 C 6.08 g/m*3 3.31 C 11.55833 km/h
1717 18-01-2020 12:00:00 6.2 C 6.13 g/m*3 4.02 C 10.34167 km/h
1718 18-01-2020 13:00:00 6.30833 C 6.12 g/m*3 4.37 C 9.28333 km/h
1719 18-01-2020 14:00:00 6.375 C 6.07 g/m*3 4.64 C 8.45 km/h
1720 18-01-2020 15:00:00 6.69167 C 6.06 g/m*3 4.92 C 8.86667 km/h
1721 18-01-2020 16:00:00 5.825 C 5.91 g/m*3 4.75 C 5.75833 km/h
1722 18-01-2020 17:00:00 4.88333 C 5.75 g/m*3 4.88 C 3.86667 km/h
1723 18-01-2020 18:00:00 3.55833 C 5.47 g/m*3 3.56 C 3.20833 km/h
1724 18-01-2020 19:00:00 2.825 C 5.25 g/m*3 2.83 C 0.93333 km/h
1725 18-01-2020 20:00:00 1.65 C 4.98 g/m*3 1.65 C 0.93333 km/h
Sensor: Nr:Datum:Temp:Abs-Feuchte:Windchill:Wind:
Aussen-T/F 1726 18-01-2020 21:00:00 1.725 C 5.11 g/m*3 1.73 C 1.33333 km/h
1727 18-01-2020 22:00:00 2.23333 C 5.25 g/m*3 2.23 C 2.80833 km/h
1728 18-01-2020 23:00:00 3.175 C 5.53 g/m*3 3.18 C 4.00833 km/h
1729 19-01-2020 00:00:00 3.325 C 5.62 g/m*3 3.33 C 2.54167 km/h
1730 19-01-2020 01:00:00 3.18333 C 5.61 g/m*3 3.18 C 2.41667 km/h
1731 19-01-2020 02:00:00 2.83333 C 5.54 g/m*3 2.83 C 0.93333 km/h
1732 19-01-2020 03:00:00 2.84167 C 5.59 g/m*3 2.84 C 0.8 km/h
1733 19-01-2020 04:00:00 3.025 C 5.7 g/m*3 3.03 C 0.53333 km/h
1734 19-01-2020 05:00:00 3.00833 C 5.71 g/m*3 3.01 C 0.53333 km/h
1735 19-01-2020 06:00:00 3.1 C 5.75 g/m*3 3.1 C 0 km/h
1736 19-01-2020 07:00:00 3.18333 C 5.78 g/m*3 3.18 C 0.8 km/h
1737 19-01-2020 08:00:00 3.24167 C 5.8 g/m*3 3.24 C 1.46667 km/h
1738 19-01-2020 09:00:00 3.39167 C 5.85 g/m*3 3.39 C 2.675 km/h
1739 19-01-2020 10:00:00 3.64167 C 5.87 g/m*3 3.64 C 4.675 km/h
1740 19-01-2020 11:00:00 4 C 5.93 g/m*3 4 C 4.14167 km/h
1741 19-01-2020 12:00:00 4.29167 C 6.02 g/m*3 4.29 C 1.46667 km/h
1742 19-01-2020 13:00:00 4.5 C 6.05 g/m*3 4.5 C 3.74167 km/h
1743 19-01-2020 14:00:00 4.86667 C 6.12 g/m*3 4.87 C 4.15 km/h
1744 19-01-2020 15:00:00 5.00833 C 6.08 g/m*3 3.91 C 5.48333 km/h
1745 19-01-2020 16:00:00 4.975 C 6.1 g/m*3 4.97 C 3.475 km/h
1746 19-01-2020 17:00:00 4.48333 C 6.1 g/m*3 4.48 C 0.66667 km/h
1747 19-01-2020 18:00:00 4.23333 C 6.12 g/m*3 4.23 C 1.06667 km/h
1748 19-01-2020 19:00:00 4.2 C 6.15 g/m*3 4.2 C 1.06667 km/h
1749 19-01-2020 20:00:00 4.10833 C 6.13 g/m*3 4.11 C 0 km/h
1750 19-01-2020 21:00:00 3.99167 C 6.1 g/m*3 3.99 C 0 km/h
Sensor: Nr:Datum:Temp:Abs-Feuchte:Windchill:Wind:
Aussen-T/F 1751 19-01-2020 22:00:00 3.95 C 6.08 g/m*3 3.95 C 0 km/h
1752 19-01-2020 23:00:00 3.45833 C 5.88 g/m*3 3.46 C 0.8 km/h
1753 20-01-2020 00:00:00 3.08333 C 5.74 g/m*3 3.08 C 0.4 km/h
1754 20-01-2020 01:00:00 3.21667 C 5.79 g/m*3 3.22 C 0 km/h
1755 20-01-2020 02:00:00 2.8 C 5.64 g/m*3 2.8 C 0.26667 km/h
1756 20-01-2020 03:00:00 2.425 C 5.5 g/m*3 2.42 C 1.2 km/h
1757 20-01-2020 04:00:00 2.3 C 5.49 g/m*3 2.3 C 0.26667 km/h
1758 20-01-2020 05:00:00 2.35833 C 5.51 g/m*3 2.36 C 0 km/h
1759 20-01-2020 06:00:00 2.15833 C 5.45 g/m*3 2.16 C 0 km/h
1760 20-01-2020 07:00:00 1.98333 C 5.38 g/m*3 1.98 C 0 km/h
1761 20-01-2020 08:00:00 1.39167 C 5.16 g/m*3 1.39 C 0.13333 km/h
1762 20-01-2020 09:00:00 2.36667 C 5.53 g/m*3 2.37 C 0 km/h
1763 20-01-2020 10:00:00 3.39167 C 5.93 g/m*3 3.39 C 0 km/h
1764 20-01-2020 11:00:00 3.89167 C 6.08 g/m*3 3.89 C 0.26667 km/h
1765 20-01-2020 12:00:00 4.875 C 5.81 g/m*3 4.88 C 4.7 km/h
1766 20-01-2020 13:00:00 5.61667 C 5.4 g/m*3 4.06 C 7.24167 km/h
1767 20-01-2020 14:00:00 5.78333 C 5.33 g/m*3 5.78 C 4.68333 km/h
1768 20-01-2020 15:00:00 5.575 C 5.35 g/m*3 5.58 C 1.2 km/h
1769 20-01-2020 16:00:00 4.71667 C 5.5 g/m*3 4.72 C 0.66667 km/h
1770 20-01-2020 17:00:00 2.59167 C 5.02 g/m*3 2.59 C 3.2 km/h
1771 20-01-2020 18:00:00 1.23333 C 4.76 g/m*3 1.23 C 0.26667 km/h
1772 20-01-2020 19:00:00 0.35 C 4.58 g/m*3 0.35 C 0 km/h
1773 20-01-2020 20:00:00 -0.275 C 4.46 g/m*3 -0.28 C 0 km/h
1774 20-01-2020 21:00:00 -0.9 C 4.28 g/m*3 -0.9 C 0 km/h
1775 20-01-2020 22:00:00 -1.21667 C 4.22 g/m*3 -1.22 C 0 km/h
Sensor: Nr:Datum:Temp:Abs-Feuchte:Windchill:Wind:
Aussen-T/F 1776 20-01-2020 23:00:00 -1.53333 C 4.14 g/m*3 -1.53 C 0 km/h
1777 21-01-2020 00:00:00 -1.75833 C 4.07 g/m*3 -1.76 C 0 km/h
1778 21-01-2020 01:00:00 -1.925 C 4.04 g/m*3 -1.93 C 0 km/h
1779 21-01-2020 02:00:00 -2.36667 C 3.91 g/m*3 -2.37 C 0 km/h
1780 21-01-2020 03:00:00 -2.6 C 3.87 g/m*3 -2.6 C 0 km/h
1781 21-01-2020 04:00:00 -2.98333 C 3.76 g/m*3 -2.98 C 0.26667 km/h
1782 21-01-2020 05:00:00 -3.175 C 3.71 g/m*3 -3.18 C 0 km/h
1783 21-01-2020 06:00:00 -2.8 C 3.82 g/m*3 -2.8 C 0 km/h
1784 21-01-2020 07:00:00 -2.55833 C 3.89 g/m*3 -2.56 C 0.4 km/h
1785 21-01-2020 08:00:00 -2.74167 C 3.84 g/m*3 -2.74 C 0.93333 km/h
1786 21-01-2020 09:00:00 -2.975 C 3.78 g/m*3 -2.98 C 1.73333 km/h
1787 21-01-2020 10:00:00 -2.76667 C 3.83 g/m*3 -2.77 C 0.4 km/h
1788 21-01-2020 11:00:00 -2.18333 C 4.03 g/m*3 -2.18 C 0 km/h
1789 21-01-2020 12:00:00 -1.21667 C 4.32 g/m*3 -1.22 C 2.4 km/h
1790 21-01-2020 13:00:00 -0.6 C 4.51 g/m*3 -0.6 C 3.73333 km/h
1791 21-01-2020 14:00:00 -0.175 C 4.64 g/m*3 -0.18 C 1.46667 km/h
1792 21-01-2020 15:00:00 0.03333 C 4.71 g/m*3 0.03 C 1.86667 km/h
1793 21-01-2020 16:00:00 -0.175 C 4.64 g/m*3 -0.18 C 0.13333 km/h
1794 21-01-2020 17:00:00 -0.58333 C 4.51 g/m*3 -0.58 C 0 km/h
1795 21-01-2020 18:00:00 -1.04167 C 4.37 g/m*3 -1.04 C 0 km/h
1796 21-01-2020 19:00:00 -1.3 C 4.29 g/m*3 -1.3 C 0.13333 km/h
1797 21-01-2020 20:00:00 -1.45 C 4.25 g/m*3 -1.45 C 0 km/h
1798 21-01-2020 21:00:00 -1.80833 C 4.14 g/m*3 -1.81 C 0 km/h
1799 21-01-2020 22:00:00 -1.89167 C 4.12 g/m*3 -1.89 C 0 km/h
1800 21-01-2020 23:00:00 -2.21667 C 4.03 g/m*3 -2.22 C 0 km/h
Sensor: Nr:Datum:Temp:Abs-Feuchte:Windchill:Wind:
Aussen-T/F 1801 22-01-2020 00:00:00 -2.40833 C 3.97 g/m*3 -2.41 C 0.53333 km/h
1802 22-01-2020 01:00:00 -2.63333 C 3.91 g/m*3 -2.63 C 0.4 km/h
1803 22-01-2020 02:00:00 -2.775 C 3.86 g/m*3 -2.78 C 0.8 km/h
1804 22-01-2020 03:00:00 -2.99167 C 3.77 g/m*3 -2.99 C 1.2 km/h
1805 22-01-2020 04:00:00 -2.91667 C 3.79 g/m*3 -2.92 C 0.8 km/h
1806 22-01-2020 05:00:00 -2.975 C 3.78 g/m*3 -2.98 C 0.93333 km/h
1807 22-01-2020 06:00:00 -2.93333 C 3.79 g/m*3 -2.93 C 1.73333 km/h
1808 22-01-2020 07:00:00 -2.71667 C 3.87 g/m*3 -2.72 C 0.4 km/h
1809 22-01-2020 08:00:00 -2.41667 C 3.95 g/m*3 -2.42 C 3.075 km/h
1810 22-01-2020 09:00:00 -2.29167 C 4.01 g/m*3 -2.29 C 1.46667 km/h
1811 22-01-2020 10:00:00 -2.31667 C 4 g/m*3 -2.32 C 3.20833 km/h
1812 22-01-2020 11:00:00 -1.75 C 4.16 g/m*3 -1.75 C 1.33333 km/h
1813 22-01-2020 12:00:00 -0.925 C 4.41 g/m*3 -0.93 C 1.73333 km/h
1814 22-01-2020 13:00:00 -0.43333 C 4.58 g/m*3 -0.43 C 0.8 km/h
1815 22-01-2020 14:00:00 -0.16667 C 4.66 g/m*3 -0.17 C 0.13333 km/h
1816 22-01-2020 15:00:00 0.09167 C 4.75 g/m*3 0.09 C 0 km/h
1817 22-01-2020 16:00:00 0.28333 C 4.81 g/m*3 0.28 C 0 km/h
1818 22-01-2020 17:00:00 0.3 C 4.85 g/m*3 0.3 C 0 km/h
1819 22-01-2020 18:00:00 0.25833 C 4.82 g/m*3 0.26 C 0 km/h
1820 22-01-2020 19:00:00 0.35 C 4.86 g/m*3 0.35 C 0 km/h
1821 22-01-2020 20:00:00 0.55833 C 4.93 g/m*3 0.56 C 0 km/h
1822 22-01-2020 21:00:00 0.66667 C 4.97 g/m*3 0.67 C 0 km/h
1823 22-01-2020 22:00:00 0.725 C 4.99 g/m*3 0.73 C 0 km/h
1824 22-01-2020 23:00:00 0.8 C 5.02 g/m*3 0.8 C 0 km/h
1825 23-01-2020 00:00:00 0.85833 C 5.04 g/m*3 0.86 C 0 km/h
Sensor: Nr:Datum:Temp:Abs-Feuchte:Windchill:Wind:
Aussen-T/F 1826 23-01-2020 01:00:00 0.9 C 5.05 g/m*3 0.9 C 0 km/h
1827 23-01-2020 02:00:00 1 C 5.09 g/m*3 1 C 0 km/h
1828 23-01-2020 03:00:00 1.1 C 5.12 g/m*3 1.1 C 0 km/h
1829 23-01-2020 04:00:00 1.10833 C 5.12 g/m*3 1.11 C 0 km/h
1830 23-01-2020 05:00:00 1.2 C 5.16 g/m*3 1.2 C 0 km/h
1831 23-01-2020 06:00:00 1.25 C 5.17 g/m*3 1.25 C 0 km/h
1832 23-01-2020 07:00:00 1.34167 C 5.21 g/m*3 1.34 C 0 km/h
1833 23-01-2020 08:00:00 1.5 C 5.26 g/m*3 1.5 C 0 km/h
1834 23-01-2020 09:00:00 1.70833 C 5.34 g/m*3 1.71 C 1.33333 km/h
1835 23-01-2020 10:00:00 1.85833 C 5.39 g/m*3 1.86 C 1.33333 km/h
1836 23-01-2020 11:00:00 2.09167 C 5.48 g/m*3 2.09 C 1.33333 km/h
1837 23-01-2020 12:00:00 2.20833 C 5.52 g/m*3 2.21 C 2.66667 km/h
1838 23-01-2020 13:00:00 2.40833 C 5.56 g/m*3 2.41 C 0.4 km/h
1839 23-01-2020 14:00:00 2.575 C 5.58 g/m*3 2.58 C 1.46667 km/h
1840 23-01-2020 15:00:00 2.65833 C 5.56 g/m*3 2.66 C 0.26667 km/h
1841 23-01-2020 16:00:00 2.6 C 5.5 g/m*3 2.6 C 1.61667 km/h
1842 23-01-2020 17:00:00 2.16667 C 5.33 g/m*3 2.17 C 0.26667 km/h
1843 23-01-2020 18:00:00 0.575 C 4.77 g/m*3 0.57 C 0 km/h
1844 23-01-2020 19:00:00 -0.09167 C 4.6 g/m*3 -0.09 C 0 km/h
1845 23-01-2020 20:00:00 -0.59167 C 4.46 g/m*3 -0.59 C 0 km/h
1846 23-01-2020 21:00:00 -0.09167 C 4.67 g/m*3 -0.09 C 0 km/h
1847 23-01-2020 22:00:00 0.36667 C 4.82 g/m*3 0.37 C 0 km/h
1848 23-01-2020 23:00:00 0.68333 C 4.93 g/m*3 0.68 C 0 km/h
1849 24-01-2020 00:00:00 0.79167 C 4.96 g/m*3 0.79 C 0.66667 km/h
1850 24-01-2020 01:00:00 0.70833 C 4.89 g/m*3 0.71 C 3.20833 km/h
Sensor: Nr:Datum:Temp:Abs-Feuchte:Windchill:Wind:
Aussen-T/F 1851 24-01-2020 02:00:00 0.69167 C 4.82 g/m*3 0.69 C 0.8 km/h
1852 24-01-2020 03:00:00 0.75833 C 4.78 g/m*3 0.76 C 1.33333 km/h
1853 24-01-2020 04:00:00 0.8 C 4.77 g/m*3 0.8 C 1.74167 km/h
1854 24-01-2020 05:00:00 0.725 C 4.74 g/m*3 0.73 C 1.06667 km/h
1855 24-01-2020 06:00:00 0.7 C 4.73 g/m*3 0.7 C 1.86667 km/h
1856 24-01-2020 07:00:00 0.61667 C 4.7 g/m*3 0.62 C 1.6 km/h
1857 24-01-2020 08:00:00 0.58333 C 4.64 g/m*3 0.58 C 2.13333 km/h
1858 24-01-2020 09:00:00 0.625 C 4.65 g/m*3 0.63 C 1.33333 km/h
1859 24-01-2020 10:00:00 0.9 C 4.7 g/m*3 0.9 C 2.93333 km/h
1860 24-01-2020 11:00:00 1.26667 C 4.78 g/m*3 1.27 C 3.2 km/h
1861 24-01-2020 12:00:00 1.78333 C 4.86 g/m*3 0.39 C 5.1 km/h
1862 24-01-2020 13:00:00 2.24167 C 4.92 g/m*3 2.24 C 4.94167 km/h
1863 24-01-2020 14:00:00 2.54167 C 4.98 g/m*3 2.54 C 4.80833 km/h
1864 24-01-2020 15:00:00 2.625 C 5.04 g/m*3 2.63 C 2.93333 km/h
1865 24-01-2020 16:00:00 2.59167 C 5.07 g/m*3 2.59 C 0.66667 km/h
1866 24-01-2020 17:00:00 2.39167 C 5.06 g/m*3 2.39 C 0.13333 km/h
1867 24-01-2020 18:00:00 2.11667 C 5.06 g/m*3 2.12 C 0 km/h
1868 24-01-2020 19:00:00 2.00833 C 5.08 g/m*3 2.01 C 0.66667 km/h
1869 24-01-2020 20:00:00 2.10833 C 5.15 g/m*3 2.11 C 0.53333 km/h
1870 24-01-2020 21:00:00 1.99091 C 5.11 g/m*3 1.99 C 0.14545 km/h
1871 24-01-2020 22:00:00 1.5 C 4.94 g/m*3 1.5 C 0.26667 km/h
1872 24-01-2020 23:00:00 1.4 C 4.92 g/m*3 1.4 C 0.4 km/h
1873 25-01-2020 00:00:00 1.4 C 4.96 g/m*3 1.4 C 0 km/h
1874 25-01-2020 01:00:00 1.5 C 4.99 g/m*3 1.5 C 0.68571 km/h
1875 25-01-2020 02:00:00 1.39167 C 4.98 g/m*3 1.39 C 0.26667 km/h
Sensor: Nr:Datum:Temp:Abs-Feuchte:Windchill:Wind:
Aussen-T/F 1876 25-01-2020 03:00:00 1.31667 C 4.94 g/m*3 1.32 C 0.93333 km/h
1877 25-01-2020 04:00:00 1.225 C 4.93 g/m*3 1.23 C 0.53333 km/h
1878 25-01-2020 05:00:00 1.19167 C 4.89 g/m*3 1.19 C 0.66667 km/h
1879 25-01-2020 06:00:00 1.11667 C 4.87 g/m*3 1.12 C 0 km/h
1880 25-01-2020 07:00:00 1.23333 C 4.93 g/m*3 1.23 C 0 km/h
1881 25-01-2020 08:00:00 1.30833 C 4.98 g/m*3 1.31 C 0 km/h
1882 25-01-2020 09:00:00 1.575 C 5.11 g/m*3 1.58 C 0 km/h
1883 25-01-2020 10:00:00 2 C 5.29 g/m*3 2 C 0 km/h
1884 25-01-2020 11:00:00 2.51667 C 5.52 g/m*3 2.52 C 0 km/h
1885 25-01-2020 12:00:00 3.25 C 5.77 g/m*3 3.25 C 1.46667 km/h
1886 25-01-2020 13:00:00 3.76667 C 5.89 g/m*3 3.77 C 2.26667 km/h
1887 25-01-2020 14:00:00 4.2 C 6.06 g/m*3 4.2 C 0.13333 km/h
1888 25-01-2020 15:00:00 4.51667 C 6.12 g/m*3 4.52 C 0 km/h
1889 25-01-2020 16:00:00 4.54167 C 6.13 g/m*3 4.54 C 0 km/h
1890 25-01-2020 17:00:00 4.35833 C 6.08 g/m*3 4.36 C 1.33333 km/h
1891 25-01-2020 18:00:00 4.16667 C 6.04 g/m*3 4.17 C 0 km/h
1892 25-01-2020 19:00:00 3.91667 C 5.94 g/m*3 3.92 C 0.53333 km/h
1893 25-01-2020 20:00:00 3.79167 C 5.95 g/m*3 3.79 C 0.26667 km/h
1894 25-01-2020 21:00:00 3.21667 C 5.7 g/m*3 3.22 C 1.33333 km/h
1895 25-01-2020 22:00:00 2.54167 C 5.46 g/m*3 2.54 C 3.2 km/h
1896 25-01-2020 23:00:00 2.06667 C 5.3 g/m*3 2.07 C 2.13333 km/h
1897 26-01-2020 00:00:00 1.8 C 5.21 g/m*3 1.8 C 0 km/h
1898 26-01-2020 01:00:00 1.58333 C 5.18 g/m*3 1.58 C 0 km/h
1899 26-01-2020 02:00:00 1.5 C 5.16 g/m*3 1.5 C 0 km/h
1900 26-01-2020 03:00:00 1.41667 C 5.13 g/m*3 1.42 C 0.4 km/h
Sensor: Nr:Datum:Temp:Abs-Feuchte:Windchill:Wind:
Aussen-T/F 1901 26-01-2020 04:00:00 1.3 C 5.09 g/m*3 1.3 C 0 km/h
1902 26-01-2020 05:00:00 1.3 C 5.09 g/m*3 1.3 C 0 km/h
1903 26-01-2020 06:00:00 1.3 C 5.09 g/m*3 1.3 C 0 km/h
1904 26-01-2020 07:00:00 1.4 C 5.12 g/m*3 1.4 C 0 km/h
1905 26-01-2020 08:00:00 1.4 C 5.12 g/m*3 1.4 C 0 km/h
1906 26-01-2020 09:00:00 1.49167 C 5.15 g/m*3 1.49 C 0 km/h
1907 26-01-2020 10:00:00 1.725 C 5.23 g/m*3 1.73 C 0 km/h
1908 26-01-2020 11:00:00 2.625 C 5.52 g/m*3 2.63 C 0 km/h
1909 26-01-2020 12:00:00 3.93333 C 5.99 g/m*3 3.93 C 0.26667 km/h
1910 26-01-2020 13:00:00 4.73333 C 6.28 g/m*3 4.73 C 0 km/h
1911 26-01-2020 14:00:00 5.29167 C 6.52 g/m*3 5.29 C 0.26667 km/h
1912 26-01-2020 15:00:00 6.24167 C 6.83 g/m*3 6.24 C 2.4 km/h
1913 26-01-2020 16:00:00 5.14167 C 6.32 g/m*3 5.14 C 1.33333 km/h
1914 26-01-2020 17:00:00 4.325 C 6.07 g/m*3 4.33 C 4.8 km/h
1915 26-01-2020 18:00:00 4.4 C 6.13 g/m*3 4.4 C 3.86667 km/h
1916 26-01-2020 19:00:00 4.025 C 5.96 g/m*3 4.03 C 1.33333 km/h
1917 26-01-2020 20:00:00 3.74167 C 5.88 g/m*3 3.74 C 0 km/h
1918 26-01-2020 21:00:00 3.125 C 5.68 g/m*3 3.13 C 0 km/h
1919 26-01-2020 22:00:00 1.95833 C 5.26 g/m*3 1.96 C 0.13333 km/h
1920 26-01-2020 23:00:00 1.68333 C 5.21 g/m*3 1.68 C 0.4 km/h
1921 27-01-2020 00:00:00 2.59167 C 5.6 g/m*3 2.59 C 0 km/h
1922 27-01-2020 01:00:00 2.24167 C 5.43 g/m*3 2.24 C 0 km/h
1923 27-01-2020 02:00:00 2.29167 C 5.48 g/m*3 2.29 C 0 km/h
1924 27-01-2020 03:00:00 3.15 C 5.83 g/m*3 3.15 C 0.26667 km/h
1925 27-01-2020 04:00:00 3.975 C 6.18 g/m*3 3.98 C 0.66667 km/h
Sensor: Nr:Datum:Temp:Abs-Feuchte:Windchill:Wind:
Aussen-T/F 1926 27-01-2020 05:00:00 4.6 C 6.45 g/m*3 4.6 C 0 km/h
1927 27-01-2020 06:00:00 5.66667 C 6.95 g/m*3 5.67 C 3.08333 km/h
1928 27-01-2020 07:00:00 6.66667 C 7.41 g/m*3 6.67 C 2.54167 km/h
1929 27-01-2020 08:00:00 6.5 C 7.27 g/m*3 6.5 C 2.4 km/h
1930 27-01-2020 09:00:00 7.21667 C 7.54 g/m*3 7.22 C 3.49167 km/h
1931 27-01-2020 10:00:00 8.36667 C 7.63 g/m*3 8.37 C 4 km/h
1932 27-01-2020 11:00:00 8.65 C 7.67 g/m*3 8.65 C 3.88333 km/h
1933 27-01-2020 12:00:00 9.1 C 7.76 g/m*3 8.18 C 6.99167 km/h
1934 27-01-2020 13:00:00 8.975 C 7.66 g/m*3 7.52 C 9.39167 km/h
1935 27-01-2020 14:00:00 8.08333 C 7.63 g/m*3 8.08 C 3.34167 km/h
1936 27-01-2020 15:00:00 7.75833 C 7.52 g/m*3 7.76 C 4.69167 km/h
1937 27-01-2020 16:00:00 7.45 C 7.41 g/m*3 7.45 C 2 km/h
1938 27-01-2020 17:00:00 7.25 C 7.33 g/m*3 7.25 C 2.66667 km/h
1939 27-01-2020 18:00:00 7.24167 C 7.27 g/m*3 7.24 C 2.275 km/h
1940 27-01-2020 19:00:00 7.28333 C 7.29 g/m*3 7.28 C 1.33333 km/h
1941 27-01-2020 20:00:00 6.78333 C 7.18 g/m*3 6.78 C 1.46667 km/h
1942 27-01-2020 21:00:00 6.33333 C 7.04 g/m*3 6.33 C 1.34167 km/h
1943 27-01-2020 22:00:00 6.25833 C 7.01 g/m*3 6.26 C 3.475 km/h
1944 27-01-2020 23:00:00 6.53333 C 7.12 g/m*3 6.53 C 4.41667 km/h
1945 28-01-2020 00:00:00 6.9 C 7.15 g/m*3 5.63 C 6.96667 km/h
1946 28-01-2020 01:00:00 7.61667 C 7.3 g/m*3 5.53 C 11.40833 km/h
1947 28-01-2020 02:00:00 7.79167 C 7.34 g/m*3 5.44 C 13.29167 km/h
1948 28-01-2020 03:00:00 8.03333 C 7.33 g/m*3 5.43 C 15.43333 km/h
1949 28-01-2020 04:00:00 6.81667 C 7.02 g/m*3 5.26 C 8.04167 km/h
1950 28-01-2020 05:00:00 6.63333 C 6.99 g/m*3 5.55 C 6.15833 km/h
Sensor: Nr:Datum:Temp:Abs-Feuchte:Windchill:Wind:
Aussen-T/F 1951 28-01-2020 06:00:00 6.425 C 6.87 g/m*3 3.74 C 13.43333 km/h
1952 28-01-2020 07:00:00 5.25 C 6.47 g/m*3 3.03 C 9.65833 km/h
1953 28-01-2020 08:00:00 5.01667 C 6.38 g/m*3 2.81 C 9.41667 km/h
1954 28-01-2020 09:00:00 4.94167 C 6.33 g/m*3 1.98 C 13.14167 km/h
1955 28-01-2020 10:00:00 4.8 C 6.2 g/m*3 2.1 C 11.56667 km/h
1956 28-01-2020 11:00:00 5.45833 C 6.3 g/m*3 1.99 C 17.3 km/h
1957 28-01-2020 12:00:00 6.2 C 6.09 g/m*3 2.84 C 17.83333 km/h
1958 28-01-2020 13:00:00 6.64167 C 5.88 g/m*3 3.43 C 17.56667 km/h
1959 28-01-2020 14:00:00 6.33333 C 5.71 g/m*3 2.71 C 20.375 km/h
1960 28-01-2020 15:00:00 6.35833 C 5.64 g/m*3 2.94 C 18.64167 km/h
1961 28-01-2020 16:00:00 5.35833 C 5.42 g/m*3 2.31 C 14.225 km/h
1962 28-01-2020 17:00:00 4.65 C 5.17 g/m*3 1.72 C 12.63333 km/h
1963 28-01-2020 18:00:00 4.21667 C 5.18 g/m*3 1.45 C 11.275 km/h
1964 28-01-2020 19:00:00 4.34167 C 5.19 g/m*3 1 C 14.63333 km/h
1965 28-01-2020 20:00:00 4.34167 C 5.31 g/m*3 0.5 C 17.96667 km/h
1966 28-01-2020 21:00:00 4.14167 C 5.33 g/m*3 1.07 C 12.76667 km/h
1967 28-01-2020 22:00:00 4.05833 C 5.41 g/m*3 1.9 C 8.46667 km/h
1968 28-01-2020 23:00:00 4.375 C 5.57 g/m*3 2.42 C 7.91667 km/h
1969 29-01-2020 00:00:00 4.45833 C 5.62 g/m*3 1.66 C 11.7 km/h
1970 29-01-2020 01:00:00 4 C 5.67 g/m*3 1.48 C 9.94167 km/h
1971 29-01-2020 02:00:00 3.91667 C 5.71 g/m*3 0.92 C 12.1 km/h
1972 29-01-2020 03:00:00 3.59167 C 5.69 g/m*3 2.23 C 5.64167 km/h
1973 29-01-2020 04:00:00 3.475 C 5.64 g/m*3 3.48 C 4.425 km/h
1974 29-01-2020 05:00:00 4.05833 C 5.65 g/m*3 1.67 C 9.40833 km/h
1975 29-01-2020 06:00:00 3.975 C 5.59 g/m*3 1.95 C 7.93333 km/h
Sensor: Nr:Datum:Temp:Abs-Feuchte:Windchill:Wind:
Aussen-T/F 1976 29-01-2020 07:00:00 4.18333 C 5.61 g/m*3 1.72 C 9.825 km/h
1977 29-01-2020 08:00:00 4.425 C 5.6 g/m*3 1.81 C 10.75 km/h
1978 29-01-2020 09:00:00 4.725 C 5.67 g/m*3 1.67 C 13.43333 km/h
1979 29-01-2020 10:00:00 4.80833 C 5.79 g/m*3 2.11 C 11.56667 km/h
1980 29-01-2020 11:00:00 5.45833 C 5.95 g/m*3 2.63 C 13.03333 km/h
1981 29-01-2020 12:00:00 6.59167 C 5.99 g/m*3 3.75 C 14.76667 km/h
1982 29-01-2020 13:00:00 7.16667 C 5.47 g/m*3 3.97 C 18.5 km/h
1983 29-01-2020 14:00:00 7.5 C 5.2 g/m*3 4.44 C 18.1 km/h
1984 29-01-2020 15:00:00 7.25833 C 5.05 g/m*3 4.05 C 18.775 km/h
1985 29-01-2020 16:00:00 7.275 C 5.1 g/m*3 4.66 C 14.23333 km/h
1986 29-01-2020 17:00:00 6.14167 C 5.17 g/m*3 4.43 C 8.18333 km/h
1987 29-01-2020 18:00:00 4.31667 C 5.1 g/m*3 4.32 C 4.66667 km/h
1988 29-01-2020 19:00:00 3.375 C 5.11 g/m*3 3.38 C 4 km/h
1989 29-01-2020 20:00:00 2.86667 C 5.14 g/m*3 2.87 C 2.66667 km/h
1990 29-01-2020 21:00:00 3.11667 C 5.37 g/m*3 3.12 C 4.275 km/h
1991 29-01-2020 22:00:00 3.475 C 5.6 g/m*3 3.48 C 4.55 km/h
1992 29-01-2020 23:00:00 5.05 C 6.08 g/m*3 3.6 C 6.55833 km/h
1993 30-01-2020 00:00:00 5.8 C 6.19 g/m*3 3.89 C 8.75 km/h
1994 30-01-2020 01:00:00 6.19167 C 6.27 g/m*3 3.85 C 11.15833 km/h
1995 30-01-2020 02:00:00 6.25833 C 6.3 g/m*3 5.21 C 5.88333 km/h
1996 30-01-2020 03:00:00 6.2 C 6.37 g/m*3 4.53 C 8.05 km/h
1997 30-01-2020 04:00:00 6.15 C 6.31 g/m*3 3.75 C 11.425 km/h
1998 30-01-2020 05:00:00 5.425 C 6.19 g/m*3 3.03 C 10.63333 km/h
1999 30-01-2020 06:00:00 5.35 C 6.17 g/m*3 2.86 C 11.03333 km/h
2000 30-01-2020 07:00:00 5.475 C 6.14 g/m*3 3.18 C 10.21667 km/h
Sensor: Nr:Datum:Temp:Abs-Feuchte:Windchill:Wind:
Aussen-T/F 2001 30-01-2020 08:00:00 5.23333 C 6.15 g/m*3 5.23 C 2.55 km/h
2002 30-01-2020 09:00:00 6.05 C 6.42 g/m*3 6.05 C 4.01667 km/h
2003 30-01-2020 10:00:00 7 C 6.65 g/m*3 4.96 C 10.475 km/h
2004 30-01-2020 11:00:00 7.78333 C 6.98 g/m*3 5.77 C 11.15833 km/h
2005 30-01-2020 12:00:00 8.53333 C 7.16 g/m*3 5.97 C 16.1 km/h
2006 30-01-2020 13:00:00 9.58333 C 7.24 g/m*3 7.8 C 12.09167 km/h
2007 30-01-2020 14:00:00 10.39167 C 7.19 g/m*3 10.39 C 2.80833 km/h
2008 30-01-2020 15:00:00 10.75833 C 7.12 g/m*3 10.76 C 2.53333 km/h
2009 30-01-2020 16:00:00 10.04167 C 7.03 g/m*3 10.04 C 3.06667 km/h
2010 30-01-2020 17:00:00 9.40833 C 7.22 g/m*3 9.41 C 4.81667 km/h
2011 30-01-2020 18:00:00 9.56667 C 7.51 g/m*3 8.57 C 7.65 km/h
2012 30-01-2020 19:00:00 9.3 C 7.92 g/m*3 8.14 C 8.19167 km/h
2013 30-01-2020 20:00:00 9.725 C 8.13 g/m*3 7.71 C 13.96667 km/h
2014 30-01-2020 21:00:00 10.15833 C 8.38 g/m*3 8.12 C 14.9 km/h
2015 30-01-2020 22:00:00 10.575 C 8.69 g/m*3 8.18 C 19.16667 km/h
2016 30-01-2020 23:00:00 11.00833 C 9.04 g/m*3 11.01 C 13.43333 km/h
2017 31-01-2020 00:00:00 11.85 C 9.48 g/m*3 11.85 C 14.63333 km/h
2018 31-01-2020 01:00:00 12.7 C 9.9 g/m*3 12.7 C 19.175 km/h
2019 31-01-2020 02:00:00 13.225 C 10.05 g/m*3 13.23 C 22.24167 km/h
2020 31-01-2020 03:00:00 13.23333 C 10.04 g/m*3 13.23 C 12.75833 km/h
2021 31-01-2020 04:00:00 13.11667 C 10.05 g/m*3 13.12 C 11.825 km/h
2022 31-01-2020 05:00:00 12.94167 C 9.95 g/m*3 12.94 C 9.00833 km/h
2023 31-01-2020 06:00:00 12.85833 C 9.85 g/m*3 12.86 C 7.10833 km/h
2024 31-01-2020 07:00:00 12.49167 C 9.68 g/m*3 12.49 C 5.49167 km/h
2025 31-01-2020 08:00:00 12.66667 C 9.7 g/m*3 12.67 C 7.65833 km/h
Sensor: Nr:Datum:Temp:Abs-Feuchte:Windchill:Wind:
Aussen-T/F 2026 31-01-2020 09:00:00 13.075 C 9.7 g/m*3 13.08 C 11.56667 km/h
2027 31-01-2020 10:00:00 13.46667 C 9.69 g/m*3 13.47 C 12.76667 km/h
2028 31-01-2020 11:00:00 13.73333 C 9.58 g/m*3 13.73 C 15.43333 km/h
2029 31-01-2020 12:00:00 13.775 C 9.4 g/m*3 13.78 C 17.3 km/h
2030 31-01-2020 13:00:00 14.40833 C 9.55 g/m*3 14.41 C 19.175 km/h
2031 31-01-2020 14:00:00 14.30833 C 9.62 g/m*3 14.31 C 15.16667 km/h
2032 31-01-2020 15:00:00 13.79167 C 9.43 g/m*3 13.79 C 18.90833 km/h
2033 31-01-2020 16:00:00 13 C 9.18 g/m*3 13 C 15.16667 km/h
2034 31-01-2020 17:00:00 12.5 C 8.98 g/m*3 12.5 C 16.9 km/h
2035 31-01-2020 18:00:00 12.3 C 9.08 g/m*3 12.3 C 15.3 km/h
2036 31-01-2020 19:00:00 12.70833 C 9.27 g/m*3 12.71 C 14.1 km/h
2037 31-01-2020 20:00:00 12.61667 C 9.33 g/m*3 12.62 C 13.95833 km/h
2038 31-01-2020 21:00:00 12.55833 C 9.39 g/m*3 12.56 C 18.50833 km/h
2039 31-01-2020 22:00:00 12.78333 C 9.32 g/m*3 12.78 C 21.3 km/h
2040 31-01-2020 23:00:00 12.8 C 9.37 g/m*3 12.8 C 15.55833 km/h
2041 01-02-2020 00:00:00 12.76667 C 9.39 g/m*3 12.77 C 14.76667 km/h
2042 01-02-2020 01:00:00 12.54167 C 9.28 g/m*3 12.54 C 10.48333 km/h
2043 01-02-2020 02:00:00 12.15833 C 8.93 g/m*3 12.16 C 11.69167 km/h
2044 01-02-2020 03:00:00 12.21667 C 9 g/m*3 12.22 C 14.89167 km/h
2045 01-02-2020 04:00:00 12.25833 C 9.07 g/m*3 12.26 C 11.81667 km/h
2046 01-02-2020 05:00:00 12.05833 C 9.13 g/m*3 12.06 C 8.05 km/h
2047 01-02-2020 06:00:00 12.14167 C 9.3 g/m*3 12.14 C 8.46667 km/h
2048 01-02-2020 07:00:00 12.325 C 9.47 g/m*3 12.33 C 10.75 km/h
2049 01-02-2020 08:00:00 12.025 C 9.69 g/m*3 12.03 C 7.25 km/h
2050 01-02-2020 09:00:00 12.05833 C 9.86 g/m*3 12.06 C 7.79167 km/h
Sensor: Nr:Datum:Temp:Abs-Feuchte:Windchill:Wind:
Aussen-T/F 2051 01-02-2020 10:00:00 12.63333 C 10.13 g/m*3 12.63 C 12.35833 km/h
2052 01-02-2020 11:00:00 12.66667 C 10.22 g/m*3 12.67 C 13.3 km/h
2053 01-02-2020 12:00:00 12.6 C 10.24 g/m*3 12.6 C 13.96667 km/h
2054 01-02-2020 13:00:00 12.53333 C 10.26 g/m*3 12.53 C 12.23333 km/h
2055 01-02-2020 14:00:00 11.93333 C 10.03 g/m*3 11.93 C 8.725 km/h
2056 01-02-2020 15:00:00 11.1 C 9.49 g/m*3 11.1 C 4.275 km/h
2057 01-02-2020 16:00:00 11.06667 C 9.36 g/m*3 11.07 C 5.48333 km/h
2058 01-02-2020 17:00:00 11.16667 C 9.22 g/m*3 11.17 C 8.875 km/h
2059 01-02-2020 18:00:00 11.41667 C 8.94 g/m*3 11.42 C 9.14167 km/h
2060 01-02-2020 19:00:00 11.20833 C 9.04 g/m*3 11.21 C 11.53333 km/h
2061 01-02-2020 20:00:00 10.55 C 8.72 g/m*3 9.44 C 9.13333 km/h
2062 01-02-2020 21:00:00 10 C 7.63 g/m*3 7.96 C 14.63333 km/h
2063 01-02-2020 22:00:00 9.39167 C 7.16 g/m*3 7.54 C 12.23333 km/h
2064 01-02-2020 23:00:00 8.58333 C 6.79 g/m*3 7.13 C 8.99167 km/h
2065 02-02-2020 00:00:00 8.15 C 6.69 g/m*3 6.56 C 9.26667 km/h
2066 02-02-2020 01:00:00 8.18333 C 6.73 g/m*3 6.52 C 9.66667 km/h
2067 02-02-2020 02:00:00 8.15 C 6.78 g/m*3 6.23 C 11.03333 km/h
2068 02-02-2020 03:00:00 8.18333 C 6.71 g/m*3 5.91 C 13.3 km/h
2069 02-02-2020 04:00:00 7.83333 C 6.6 g/m*3 5.86 C 11.01667 km/h
2070 02-02-2020 05:00:00 7.325 C 6.54 g/m*3 5.55 C 9.40833 km/h
2071 02-02-2020 06:00:00 7.2 C 6.67 g/m*3 7.2 C 4.28333 km/h
2072 02-02-2020 07:00:00 7.10833 C 7.07 g/m*3 7.11 C 0.66667 km/h
2073 02-02-2020 08:00:00 7.1 C 7.32 g/m*3 7.1 C 0.13333 km/h
2074 02-02-2020 09:00:00 7.01667 C 7.37 g/m*3 7.02 C 0.13333 km/h
2075 02-02-2020 10:00:00 7.44167 C 7.66 g/m*3 7.44 C 0 km/h
Sensor: Nr:Datum:Temp:Abs-Feuchte:Windchill:Wind:
Aussen-T/F 2076 02-02-2020 11:00:00 8.03333 C 7.96 g/m*3 8.03 C 1.475 km/h
2077 02-02-2020 12:00:00 10.01667 C 9.16 g/m*3 9.1 C 7.65 km/h
2078 02-02-2020 13:00:00 12.39167 C 10.24 g/m*3 12.39 C 18.63333 km/h
2079 02-02-2020 14:00:00 13.28333 C 10.48 g/m*3 13.28 C 17.43333 km/h
2080 02-02-2020 15:00:00 13.625 C 10.55 g/m*3 13.63 C 9.4 km/h
2081 02-02-2020 16:00:00 14.01667 C 9.84 g/m*3 14.02 C 16.76667 km/h
2082 02-02-2020 17:00:00 13.90833 C 9.11 g/m*3 13.91 C 16.63333 km/h
2083 02-02-2020 18:00:00 13.26667 C 8.93 g/m*3 13.27 C 14.63333 km/h
2084 02-02-2020 19:00:00 13.09167 C 8.49 g/m*3 13.09 C 19.725 km/h
2085 02-02-2020 20:00:00 12.63333 C 8.54 g/m*3 12.63 C 13.15833 km/h
2086 02-02-2020 21:00:00 12.34167 C 8.38 g/m*3 12.34 C 14.5 km/h
2087 02-02-2020 22:00:00 12.21667 C 8.31 g/m*3 12.22 C 12.5 km/h
2088 02-02-2020 23:00:00 11.95 C 8.27 g/m*3 11.95 C 8.875 km/h
2089 03-02-2020 00:00:00 11.3 C 8.02 g/m*3 11.3 C 12.48333 km/h
2090 03-02-2020 01:00:00 10.14167 C 8.02 g/m*3 8.79 C 10.09167 km/h
2091 03-02-2020 02:00:00 10.475 C 8.04 g/m*3 8.05 C 19.18333 km/h
2092 03-02-2020 03:00:00 10.70833 C 8.19 g/m*3 8.32 C 19.45 km/h
2093 03-02-2020 04:00:00 10.35833 C 8.35 g/m*3 8.48 C 13.96667 km/h
2094 03-02-2020 05:00:00 10.45 C 8.41 g/m*3 9.45 C 8.45 km/h
2095 03-02-2020 06:00:00 10.56667 C 8.34 g/m*3 9.06 C 11.56667 km/h
2096 03-02-2020 07:00:00 10.625 C 8.24 g/m*3 9.19 C 11.16667 km/h
2097 03-02-2020 08:00:00 10.36667 C 8.13 g/m*3 8.8 C 11.7 km/h
2098 03-02-2020 09:00:00 10.49167 C 8.17 g/m*3 8.96 C 11.68333 km/h
2099 03-02-2020 10:00:00 10.95 C 8.24 g/m*3 9.38 C 12.625 km/h
2100 03-02-2020 11:00:00 12.05833 C 7.85 g/m*3 12.06 C 17.56667 km/h
Sensor: Nr:Datum:Temp:Abs-Feuchte:Windchill:Wind:
Aussen-T/F 2101 03-02-2020 12:00:00 12.29167 C 7.73 g/m*3 12.29 C 17.16667 km/h
2102 03-02-2020 13:00:00 12.26667 C 7.83 g/m*3 12.27 C 14.9 km/h
2103 03-02-2020 14:00:00 12.175 C 8.06 g/m*3 12.18 C 15.83333 km/h
2104 03-02-2020 15:00:00 12.1 C 7.97 g/m*3 12.1 C 13.43333 km/h
2105 03-02-2020 16:00:00 11.99167 C 7.57 g/m*3 11.99 C 13.7 km/h
2106 03-02-2020 17:00:00 11.45 C 7.67 g/m*3 11.45 C 8.31667 km/h
2107 03-02-2020 18:00:00 10.95 C 7.69 g/m*3 10.01 C 8.58333 km/h
2108 03-02-2020 19:00:00 9.875 C 7.94 g/m*3 9.12 C 6.85 km/h
2109 03-02-2020 20:00:00 8.83333 C 8.06 g/m*3 8.83 C 0.8 km/h
2110 03-02-2020 21:00:00 8.56667 C 8.07 g/m*3 8.57 C 0.26667 km/h
2111 03-02-2020 22:00:00 8.09167 C 7.89 g/m*3 8.09 C 0.93333 km/h
2112 03-02-2020 23:00:00 7.41667 C 7.56 g/m*3 7.42 C 4.29167 km/h
2113 04-02-2020 00:00:00 6.43333 C 7.06 g/m*3 5.63 C 5.23333 km/h
2114 04-02-2020 01:00:00 5.775 C 6.7 g/m*3 3.57 C 10.05833 km/h
2115 04-02-2020 02:00:00 4.95833 C 6.27 g/m*3 1.61 C 15.56667 km/h
2116 04-02-2020 03:00:00 4.80833 C 6.22 g/m*3 2.06 C 11.825 km/h
2117 04-02-2020 04:00:00 4.8 C 6.15 g/m*3 2 C 12.08333 km/h
2118 04-02-2020 05:00:00 4.56667 C 6.05 g/m*3 2.61 C 8.04167 km/h
2119 04-02-2020 06:00:00 4.99167 C 5.95 g/m*3 3.14 C 7.94167 km/h
2120 04-02-2020 07:00:00 4.81667 C 5.87 g/m*3 2.22 C 11.03333 km/h
2121 04-02-2020 08:00:00 4.34167 C 5.79 g/m*3 1.24 C 13.16667 km/h
2122 04-02-2020 09:00:00 4.4 C 5.85 g/m*3 1.7 C 11.15833 km/h
2123 04-02-2020 10:00:00 4.50833 C 6.02 g/m*3 3.44 C 5.21667 km/h
2124 04-02-2020 11:00:00 5.20833 C 6.16 g/m*3 2.47 C 12.23333 km/h
2125 04-02-2020 12:00:00 4.675 C 6.02 g/m*3 1.95 C 11.525 km/h
Sensor: Nr:Datum:Temp:Abs-Feuchte:Windchill:Wind:
Aussen-T/F 2126 04-02-2020 13:00:00 5.15 C 6.03 g/m*3 2.14 C 13.69167 km/h
2127 04-02-2020 14:00:00 6.19167 C 5.82 g/m*3 3.27 C 14.63333 km/h
2128 04-02-2020 15:00:00 5.85 C 5.92 g/m*3 2.93 C 14.1 km/h
2129 04-02-2020 16:00:00 5.29167 C 6.02 g/m*3 2.72 C 11.43333 km/h
2130 04-02-2020 17:00:00 5.1 C 6.06 g/m*3 3.24 C 8.05833 km/h
2131 04-02-2020 18:00:00 4.98333 C 6.04 g/m*3 2.8 C 9.275 km/h
2132 04-02-2020 19:00:00 5.05833 C 6.07 g/m*3 5.06 C 3.60833 km/h
2133 04-02-2020 20:00:00 4.75833 C 6.09 g/m*3 4.76 C 3.2 km/h
2134 04-02-2020 21:00:00 4.7 C 6.12 g/m*3 4.7 C 1.33333 km/h
2135 04-02-2020 22:00:00 4.675 C 6.16 g/m*3 4.68 C 2.4 km/h
2136 04-02-2020 23:00:00 4.675 C 6.1 g/m*3 4.68 C 2.13333 km/h
2137 05-02-2020 00:00:00 4.79167 C 6.08 g/m*3 4.79 C 2.68333 km/h
2138 05-02-2020 01:00:00 5.2 C 6.01 g/m*3 3.32 C 8.19167 km/h
2139 05-02-2020 02:00:00 5.44167 C 6.04 g/m*3 3.71 C 7.775 km/h
2140 05-02-2020 03:00:00 5.3 C 6.2 g/m*3 3.81 C 6.83333 km/h
2141 05-02-2020 04:00:00 4.625 C 5.98 g/m*3 2.98 C 6.99167 km/h
2142 05-02-2020 05:00:00 4.15833 C 5.83 g/m*3 4.16 C 4.675 km/h
2143 05-02-2020 06:00:00 4.45833 C 5.99 g/m*3 4.46 C 4.95833 km/h
2144 05-02-2020 07:00:00 4.04167 C 5.73 g/m*3 4.04 C 4.425 km/h
2145 05-02-2020 08:00:00 3.1 C 5.48 g/m*3 3.1 C 0.93333 km/h
2146 05-02-2020 09:00:00 2.83333 C 5.48 g/m*3 2.83 C 1.73333 km/h
2147 05-02-2020 10:00:00 4.36667 C 5.82 g/m*3 2.98 C 6.05 km/h
2148 05-02-2020 11:00:00 5.425 C 5.7 g/m*3 3.45 C 8.75 km/h
2149 05-02-2020 12:00:00 5.85833 C 5.67 g/m*3 4 C 8.6 km/h
2150 05-02-2020 13:00:00 6.09167 C 5.58 g/m*3 4.73 C 6.84167 km/h
Sensor: Nr:Datum:Temp:Abs-Feuchte:Windchill:Wind:
Aussen-T/F 2151 05-02-2020 14:00:00 6.35833 C 5.64 g/m*3 6.36 C 4.41667 km/h
2152 05-02-2020 15:00:00 5.56667 C 5.71 g/m*3 5.57 C 2.93333 km/h
2153 05-02-2020 16:00:00 4.86667 C 5.69 g/m*3 4.87 C 3.86667 km/h
2154 05-02-2020 17:00:00 3.675 C 5.46 g/m*3 2.45 C 5.33333 km/h
2155 05-02-2020 18:00:00 2.45833 C 5.13 g/m*3 2.46 C 2.8 km/h
2156 05-02-2020 19:00:00 1.30833 C 4.87 g/m*3 1.31 C 0.26667 km/h
2157 05-02-2020 20:00:00 0.525 C 4.68 g/m*3 0.53 C 0 km/h
2158 05-02-2020 21:00:00 0.21667 C 4.62 g/m*3 0.22 C 0.13333 km/h
2159 05-02-2020 22:00:00 -0.16667 C 4.53 g/m*3 -0.17 C 0 km/h
2160 05-02-2020 23:00:00 -0.16667 C 4.55 g/m*3 -0.17 C 0.8 km/h
2161 06-02-2020 00:00:00 -0.35 C 4.49 g/m*3 -0.35 C 0.8 km/h
2162 06-02-2020 01:00:00 -0.125 C 4.59 g/m*3 -0.13 C 0.4 km/h
2163 06-02-2020 02:00:00 -0.15833 C 4.56 g/m*3 -0.16 C 0.66667 km/h
2164 06-02-2020 03:00:00 -0.64167 C 4.4 g/m*3 -0.64 C 0.13333 km/h
2165 06-02-2020 04:00:00 -0.73333 C 4.41 g/m*3 -0.73 C 0 km/h
2166 06-02-2020 05:00:00 -0.85 C 4.39 g/m*3 -0.85 C 0 km/h
2167 06-02-2020 06:00:00 -1.04167 C 4.33 g/m*3 -1.04 C 0.26667 km/h
2168 06-02-2020 07:00:00 -1.275 C 4.26 g/m*3 -1.27 C 0.4 km/h
2169 06-02-2020 08:00:00 -0.93333 C 4.36 g/m*3 -0.93 C 0.26667 km/h
2170 06-02-2020 09:00:00 -0.5 C 4.5 g/m*3 -0.5 C 1.73333 km/h
2171 06-02-2020 10:00:00 -0.10833 C 4.65 g/m*3 -0.11 C 3.06667 km/h
2172 06-02-2020 11:00:00 0.425 C 4.84 g/m*3 0.43 C 3.74167 km/h
2173 06-02-2020 12:00:00 1.63333 C 5.26 g/m*3 1.63 C 1.2 km/h
2174 06-02-2020 13:00:00 2.98333 C 5.63 g/m*3 2.98 C 1.33333 km/h
2175 06-02-2020 14:00:00 4.50833 C 5.94 g/m*3 4.51 C 0.66667 km/h
Sensor: Nr:Datum:Temp:Abs-Feuchte:Windchill:Wind:
Aussen-T/F 2176 06-02-2020 15:00:00 5.35833 C 5.98 g/m*3 5.36 C 0.4 km/h
2177 06-02-2020 16:00:00 5.75833 C 5.72 g/m*3 5.76 C 0 km/h
2178 06-02-2020 17:00:00 4.125 C 5.44 g/m*3 4.13 C 2.93333 km/h
2179 06-02-2020 18:00:00 2.14167 C 5.03 g/m*3 2.14 C 3.33333 km/h
2180 06-02-2020 19:00:00 1.01667 C 4.77 g/m*3 1.02 C 0.13333 km/h
2181 06-02-2020 20:00:00 0.09167 C 4.56 g/m*3 0.09 C 0 km/h
2182 06-02-2020 21:00:00 -0.45833 C 4.42 g/m*3 -0.46 C 0 km/h
2183 06-02-2020 22:00:00 -0.84167 C 4.34 g/m*3 -0.84 C 0 km/h
2184 06-02-2020 23:00:00 -1.2 C 4.24 g/m*3 -1.2 C 0 km/h
2185 07-02-2020 00:00:00 -1.51667 C 4.15 g/m*3 -1.52 C 0 km/h
2186 07-02-2020 01:00:00 -1.69167 C 4.1 g/m*3 -1.69 C 0 km/h
2187 07-02-2020 02:00:00 -1.49167 C 4.19 g/m*3 -1.49 C 0 km/h
2188 07-02-2020 03:00:00 -1.2 C 4.28 g/m*3 -1.2 C 0.26667 km/h
2189 07-02-2020 04:00:00 -1.19167 C 4.28 g/m*3 -1.19 C 0.26667 km/h
2190 07-02-2020 05:00:00 -1.35 C 4.24 g/m*3 -1.35 C 0.13333 km/h
2191 07-02-2020 06:00:00 -1.50833 C 4.21 g/m*3 -1.51 C 1.06667 km/h
2192 07-02-2020 07:00:00 -1.625 C 4.17 g/m*3 -1.63 C 0 km/h
2193 07-02-2020 08:00:00 -1.63333 C 4.19 g/m*3 -1.63 C 0.26667 km/h
2194 07-02-2020 09:00:00 -1.41667 C 4.26 g/m*3 -1.42 C 0 km/h
2195 07-02-2020 10:00:00 -1.08333 C 4.36 g/m*3 -1.08 C 0 km/h
2196 07-02-2020 11:00:00 -0.5 C 4.54 g/m*3 -0.5 C 0 km/h
2197 07-02-2020 12:00:00 0.725 C 4.94 g/m*3 0.73 C 2.93333 km/h
2198 07-02-2020 13:00:00 1.83333 C 5.36 g/m*3 1.83 C 4.66667 km/h
2199 07-02-2020 14:00:00 3.05 C 5.83 g/m*3 3.05 C 3.6 km/h
2200 07-02-2020 15:00:00 3.83333 C 5.99 g/m*3 3.83 C 4.68333 km/h
Sensor: Nr:Datum:Temp:Abs-Feuchte:Windchill:Wind:
Aussen-T/F 2201 07-02-2020 16:00:00 3.96667 C 5.73 g/m*3 3.97 C 4.26667 km/h
2202 07-02-2020 17:00:00 3 C 5.39 g/m*3 3 C 4.93333 km/h
2203 07-02-2020 18:00:00 2 C 5.07 g/m*3 2 C 2.8 km/h
2204 07-02-2020 19:00:00 1.41667 C 4.93 g/m*3 1.42 C 3.86667 km/h
2205 07-02-2020 20:00:00 1.08333 C 4.85 g/m*3 1.08 C 3.33333 km/h
2206 07-02-2020 21:00:00 0.85833 C 4.8 g/m*3 0.86 C 2.66667 km/h
2207 07-02-2020 22:00:00 0.5 C 4.7 g/m*3 0.5 C 2.4 km/h
2208 07-02-2020 23:00:00 0.08333 C 4.59 g/m*3 0.08 C 0.93333 km/h
2209 08-02-2020 00:00:00 -0.28333 C 4.49 g/m*3 -0.28 C 0.4 km/h
2210 08-02-2020 01:00:00 -0.76667 C 4.36 g/m*3 -0.77 C 0.13333 km/h
2211 08-02-2020 02:00:00 -1.08333 C 4.27 g/m*3 -1.08 C 0.4 km/h
2212 08-02-2020 03:00:00 -1.30833 C 4.21 g/m*3 -1.31 C 0 km/h
2213 08-02-2020 04:00:00 -1.29167 C 4.24 g/m*3 -1.29 C 0.13333 km/h
2214 08-02-2020 05:00:00 -1.4 C 4.22 g/m*3 -1.4 C 0.53333 km/h
2215 08-02-2020 06:00:00 -1.34167 C 4.24 g/m*3 -1.34 C 0 km/h
2216 08-02-2020 07:00:00 -1.15 C 4.29 g/m*3 -1.15 C 0.13333 km/h
2217 08-02-2020 08:00:00 -0.775 C 4.41 g/m*3 -0.78 C 0.26667 km/h
2218 08-02-2020 09:00:00 0.06667 C 4.72 g/m*3 0.07 C 0 km/h
2219 08-02-2020 10:00:00 1.06667 C 5.04 g/m*3 1.07 C 0.13333 km/h
2220 08-02-2020 11:00:00 1.94167 C 5.31 g/m*3 1.94 C 0 km/h
2221 08-02-2020 12:00:00 2.64167 C 5.54 g/m*3 2.64 C 0.26667 km/h
2222 08-02-2020 13:00:00 3.3 C 5.68 g/m*3 3.3 C 0 km/h
2223 08-02-2020 14:00:00 4.3 C 5.92 g/m*3 4.3 C 0 km/h
2224 08-02-2020 15:00:00 5.19167 C 6.14 g/m*3 5.19 C 0 km/h
2225 08-02-2020 16:00:00 5.36667 C 6.2 g/m*3 5.37 C 0 km/h
Sensor: Nr:Datum:Temp:Abs-Feuchte:Windchill:Wind:
Aussen-T/F 2226 08-02-2020 17:00:00 4.94167 C 6.16 g/m*3 4.94 C 0 km/h
2227 08-02-2020 18:00:00 4.63333 C 6.15 g/m*3 4.63 C 0 km/h
2228 08-02-2020 19:00:00 4.40833 C 6.1 g/m*3 4.41 C 0 km/h
2229 08-02-2020 20:00:00 4.25833 C 6.07 g/m*3 4.26 C 0 km/h
2230 08-02-2020 21:00:00 3.73333 C 5.87 g/m*3 3.73 C 0 km/h
2231 08-02-2020 22:00:00 3.01667 C 5.63 g/m*3 3.02 C 0 km/h
2232 08-02-2020 23:00:00 3.18333 C 5.72 g/m*3 3.18 C 0 km/h
2233 09-02-2020 00:00:00 3.375 C 5.85 g/m*3 3.38 C 0 km/h
2234 09-02-2020 01:00:00 3.2 C 5.75 g/m*3 3.2 C 0 km/h
2235 09-02-2020 02:00:00 2.975 C 5.69 g/m*3 2.98 C 1.2 km/h
2236 09-02-2020 03:00:00 2.48333 C 5.48 g/m*3 2.48 C 0 km/h
2237 09-02-2020 04:00:00 2.525 C 5.55 g/m*3 2.53 C 0 km/h
2238 09-02-2020 05:00:00 3.29167 C 5.87 g/m*3 3.29 C 0.93333 km/h
2239 09-02-2020 06:00:00 3.09167 C 5.76 g/m*3 3.09 C 0.13333 km/h
2240 09-02-2020 07:00:00 4.30833 C 6.31 g/m*3 4.31 C 4.29167 km/h
2241 09-02-2020 08:00:00 7.7 C 7.57 g/m*3 6.09 C 8.99167 km/h
2242 09-02-2020 09:00:00 10.23333 C 7.84 g/m*3 8.06 C 16.23333 km/h
2243 09-02-2020 10:00:00 10.71667 C 7.75 g/m*3 8.26 C 20.24167 km/h
2244 09-02-2020 11:00:00 11.60833 C 7.63 g/m*3 11.61 C 17.3 km/h
2245 09-02-2020 12:00:00 11.65 C 7.44 g/m*3 11.65 C 17.43333 km/h
2246 09-02-2020 13:00:00 11.29167 C 7.18 g/m*3 11.29 C 10.74167 km/h
2247 09-02-2020 14:00:00 11.95 C 7.3 g/m*3 11.95 C 14.35833 km/h
2248 09-02-2020 15:00:00 12.36667 C 7.31 g/m*3 12.37 C 17.575 km/h
2249 09-02-2020 16:00:00 12.475 C 7.51 g/m*3 12.48 C 16.375 km/h
2250 09-02-2020 17:00:00 12.9 C 7.65 g/m*3 12.9 C 21.325 km/h
Sensor: Nr:Datum:Temp:Abs-Feuchte:Windchill:Wind:
Aussen-T/F 2251 09-02-2020 18:00:00 12.75 C 7.84 g/m*3 12.75 C 19.44167 km/h
2252 09-02-2020 19:00:00 12.51667 C 8.12 g/m*3 12.52 C 26.41667 km/h
2253 09-02-2020 20:00:00 12.775 C 8.21 g/m*3 12.78 C 22.925 km/h
2254 09-02-2020 21:00:00 12.26667 C 8.72 g/m*3 12.27 C 23.325 km/h
2255 09-02-2020 22:00:00 11.80833 C 8.99 g/m*3 11.81 C 23.73333 km/h
2256 09-02-2020 23:00:00 11.59167 C 9.18 g/m*3 11.59 C 25.05833 km/h
2257 10-02-2020 00:00:00 11.75 C 9.29 g/m*3 11.75 C 29.76667 km/h
2258 10-02-2020 01:00:00 11.43333 C 9.46 g/m*3 11.43 C 23.575 km/h
2259 10-02-2020 02:00:00 9.24167 C 8.26 g/m*3 6.24 C 21.84167 km/h
2260 10-02-2020 03:00:00 8.85 C 7.9 g/m*3 6.46 C 15.3 km/h
2261 10-02-2020 04:00:00 9.79167 C 7.86 g/m*3 7.41 C 17.16667 km/h
2262 10-02-2020 05:00:00 9.975 C 7.67 g/m*3 7.53 C 18.11667 km/h
2263 10-02-2020 06:00:00 9.23333 C 7.53 g/m*3 6.11 C 23.20833 km/h
2264 10-02-2020 07:00:00 9.125 C 6.94 g/m*3 5.52 C 28.825 km/h
2265 10-02-2020 08:00:00 8.49167 C 6.85 g/m*3 4.35 C 33.65 km/h
2266 10-02-2020 09:00:00 7.76667 C 6.16 g/m*3 3.37 C 34.05833 km/h
2267 10-02-2020 10:00:00 8.05 C 6.12 g/m*3 4.27 C 26.95 km/h
2268 10-02-2020 11:00:00 9.125 C 5.92 g/m*3 5.52 C 28.85 km/h
2269 10-02-2020 12:00:00 7.16667 C 6.31 g/m*3 3.5 C 22.94167 km/h
2270 10-02-2020 13:00:00 8.66667 C 6.13 g/m*3 4.76 C 31.1 km/h
2271 10-02-2020 14:00:00 8.375 C 6.35 g/m*3 4.78 C 25.875 km/h
2272 10-02-2020 15:00:00 8.49167 C 6.29 g/m*3 4.82 C 27.21667 km/h
2273 10-02-2020 16:00:00 7.99167 C 6.36 g/m*3 4.6 C 22.375 km/h
2274 10-02-2020 17:00:00 7.225 C 6.45 g/m*3 3.88 C 19.975 km/h
2275 10-02-2020 18:00:00 6.21667 C 6.61 g/m*3 4.04 C 10.35 km/h
Sensor: Nr:Datum:Temp:Abs-Feuchte:Windchill:Wind:
Aussen-T/F 2276 10-02-2020 19:00:00 6.15833 C 6.7 g/m*3 4.14 C 9.54167 km/h
2277 10-02-2020 20:00:00 5.51667 C 6.56 g/m*3 5.52 C 1.86667 km/h
2278 10-02-2020 21:00:00 5.375 C 6.58 g/m*3 3.85 C 6.975 km/h
2279 10-02-2020 22:00:00 7.26667 C 6.84 g/m*3 3.77 C 21.44167 km/h
2280 10-02-2020 23:00:00 7.78333 C 6.26 g/m*3 4.17 C 24.125 km/h
2281 11-02-2020 00:00:00 6.85833 C 5.99 g/m*3 2.57 C 28.84167 km/h
2282 11-02-2020 01:00:00 5.08333 C 5.65 g/m*3 1.57 C 16.9 km/h
2283 11-02-2020 02:00:00 5.60833 C 5.26 g/m*3 1.17 C 26.28333 km/h
2284 11-02-2020 03:00:00 5.71667 C 5.15 g/m*3 1.48 C 24.53333 km/h
2285 11-02-2020 04:00:00 6.03333 C 4.91 g/m*3 1.76 C 25.875 km/h
2286 11-02-2020 05:00:00 5.475 C 5.38 g/m*3 1.57 C 20.78333 km/h
2287 11-02-2020 06:00:00 5.14167 C 5.18 g/m*3 1.66 C 16.76667 km/h
2288 11-02-2020 07:00:00 4.76667 C 5.3 g/m*3 1.48 C 14.9 km/h
2289 11-02-2020 08:00:00 4.98333 C 5.31 g/m*3 1.3 C 17.975 km/h
2290 11-02-2020 09:00:00 5.05 C 5.53 g/m*3 1.48 C 17.3 km/h
2291 11-02-2020 10:00:00 6.025 C 5.34 g/m*3 1.9 C 24.26667 km/h
2292 11-02-2020 11:00:00 6.73333 C 5.15 g/m*3 2.86 C 23.73333 km/h
2293 11-02-2020 12:00:00 7.10833 C 5.09 g/m*3 3.29 C 24.26667 km/h
2294 11-02-2020 13:00:00 6.76667 C 5.07 g/m*3 3.18 C 21.04167 km/h
2295 11-02-2020 14:00:00 5.90833 C 5.5 g/m*3 2.2 C 20.10833 km/h
2296 11-02-2020 15:00:00 6.23333 C 5.36 g/m*3 2.74 C 19.04167 km/h
2297 11-02-2020 16:00:00 7 C 5.38 g/m*3 3.29 C 22.90833 km/h
2298 11-02-2020 17:00:00 6.25833 C 5.32 g/m*3 2.97 C 17.43333 km/h
2299 11-02-2020 18:00:00 5.975 C 5.14 g/m*3 2.74 C 16.50833 km/h
2300 11-02-2020 19:00:00 5.36667 C 5.24 g/m*3 1.96 C 16.63333 km/h
Sensor: Nr:Datum:Temp:Abs-Feuchte:Windchill:Wind:
Aussen-T/F 2301 11-02-2020 20:00:00 5.575 C 4.88 g/m*3 1.94 C 18.76667 km/h
2302 11-02-2020 21:00:00 5.225 C 4.71 g/m*3 1.39 C 19.7 km/h
2303 11-02-2020 22:00:00 4.9 C 4.78 g/m*3 1.64 C 14.9 km/h
2304 11-02-2020 23:00:00 4.81667 C 4.81 g/m*3 1.97 C 12.36667 km/h
2305 12-02-2020 00:00:00 5.25 C 4.88 g/m*3 2.69 C 11.29167 km/h
2306 12-02-2020 01:00:00 5.11667 C 5.14 g/m*3 2.19 C 13.16667 km/h
2307 12-02-2020 02:00:00 4.99167 C 5.11 g/m*3 2.43 C 11.025 km/h
2308 12-02-2020 03:00:00 4.73333 C 5.08 g/m*3 2.32 C 10.08333 km/h
2309 12-02-2020 04:00:00 4.78333 C 5.15 g/m*3 2.19 C 11.01667 km/h
2310 12-02-2020 05:00:00 5.00833 C 5.26 g/m*3 1.99 C 13.56667 km/h
2311 12-02-2020 06:00:00 5.00833 C 5.33 g/m*3 2.06 C 13.16667 km/h
2312 12-02-2020 07:00:00 4.19167 C 5.5 g/m*3 1.02 C 13.41667 km/h
2313 12-02-2020 08:00:00 3.85 C 5.51 g/m*3 1.14 C 10.63333 km/h
2314 12-02-2020 09:00:00 4.34167 C 5.51 g/m*3 1.44 C 12.1 km/h
2315 12-02-2020 10:00:00 4.9 C 5.83 g/m*3 2.55 C 9.94167 km/h
2316 12-02-2020 11:00:00 5.58333 C 5.9 g/m*3 2.05 C 17.975 km/h
2317 12-02-2020 12:00:00 5.35 C 5.84 g/m*3 2.39 C 13.69167 km/h
2318 12-02-2020 13:00:00 6.41667 C 5.89 g/m*3 3.32 C 16.25 km/h
2319 12-02-2020 14:00:00 6.83333 C 5.63 g/m*3 3.99 C 15.16667 km/h
2320 12-02-2020 15:00:00 7.1 C 5.69 g/m*3 4.24 C 15.7 km/h
2321 12-02-2020 16:00:00 6.64167 C 5.7 g/m*3 4.21 C 12.225 km/h
2322 12-02-2020 17:00:00 5.825 C 5.45 g/m*3 3.29 C 11.81667 km/h
2323 12-02-2020 18:00:00 4.54167 C 5.48 g/m*3 2.06 C 10.225 km/h
2324 12-02-2020 19:00:00 4.21667 C 5.45 g/m*3 1.79 C 9.68333 km/h
2325 12-02-2020 20:00:00 3.21667 C 5.33 g/m*3 1.66 C 6.03333 km/h
Sensor: Nr:Datum:Temp:Abs-Feuchte:Windchill:Wind:
Aussen-T/F 2326 12-02-2020 21:00:00 2.78333 C 5.32 g/m*3 1.21 C 5.9 km/h
2327 12-02-2020 22:00:00 2.56667 C 5.27 g/m*3 2.57 C 4.53333 km/h
2328 12-02-2020 23:00:00 2.4 C 5.3 g/m*3 2.4 C 3.875 km/h
2329 13-02-2020 00:00:00 2.45833 C 5.33 g/m*3 2.46 C 2.8 km/h
2330 13-02-2020 01:00:00 2.39167 C 5.31 g/m*3 2.39 C 0.4 km/h
2331 13-02-2020 02:00:00 1.65 C 5.05 g/m*3 1.65 C 1.46667 km/h
2332 13-02-2020 03:00:00 0.975 C 4.86 g/m*3 0.98 C 1.2 km/h
2333 13-02-2020 04:00:00 0.6 C 4.76 g/m*3 0.6 C 0 km/h
2334 13-02-2020 05:00:00 0.15833 C 4.65 g/m*3 0.16 C 0 km/h
2335 13-02-2020 06:00:00 0.56667 C 4.82 g/m*3 0.57 C 0.26667 km/h
2336 13-02-2020 07:00:00 0.85 C 4.93 g/m*3 0.85 C 0.8 km/h
2337 13-02-2020 08:00:00 2 C 5.33 g/m*3 2 C 1.73333 km/h
2338 13-02-2020 09:00:00 3.28333 C 5.74 g/m*3 3.28 C 4.95 km/h
2339 13-02-2020 10:00:00 4.61667 C 5.82 g/m*3 2.67 C 8.05833 km/h
2340 13-02-2020 11:00:00 6 C 5.81 g/m*3 4.1 C 8.85833 km/h
2341 13-02-2020 12:00:00 6.29167 C 6.05 g/m*3 3.9 C 11.55833 km/h
2342 13-02-2020 13:00:00 5.4 C 6.29 g/m*3 5.4 C 4.40833 km/h
2343 13-02-2020 14:00:00 5.35833 C 6.44 g/m*3 5.36 C 3.2 km/h
2344 13-02-2020 15:00:00 5.80833 C 6.76 g/m*3 5.81 C 1.2 km/h
2345 13-02-2020 16:00:00 6.59167 C 7.11 g/m*3 6.59 C 1.06667 km/h
2346 13-02-2020 17:00:00 6.31667 C 6.97 g/m*3 6.32 C 0.53333 km/h
2347 13-02-2020 18:00:00 5.41667 C 6.61 g/m*3 5.42 C 1.33333 km/h
2348 13-02-2020 19:00:00 5.21667 C 6.55 g/m*3 5.22 C 0.93333 km/h
2349 13-02-2020 20:00:00 5.375 C 6.64 g/m*3 5.38 C 1.06667 km/h
2350 13-02-2020 21:00:00 5.63333 C 6.8 g/m*3 5.63 C 0.53333 km/h
Sensor: Nr:Datum:Temp:Abs-Feuchte:Windchill:Wind:
Aussen-T/F 2351 13-02-2020 22:00:00 6.43333 C 7.17 g/m*3 4.49 C 9.40833 km/h
2352 13-02-2020 23:00:00 6.86667 C 7.23 g/m*3 6.17 C 5.09167 km/h
2353 14-02-2020 00:00:00 6.59167 C 7.17 g/m*3 5.42 C 6.44167 km/h
2354 14-02-2020 01:00:00 6.275 C 7.02 g/m*3 4.98 C 6.7 km/h
2355 14-02-2020 02:00:00 6.30833 C 7.02 g/m*3 5.13 C 6.3 km/h
2356 14-02-2020 03:00:00 6.375 C 7 g/m*3 6.38 C 3.33333 km/h
2357 14-02-2020 04:00:00 5.95 C 6.87 g/m*3 5.95 C 2.26667 km/h
2358 14-02-2020 05:00:00 5.65 C 6.77 g/m*3 5.65 C 1.46667 km/h
2359 14-02-2020 06:00:00 5.64167 C 6.81 g/m*3 5.64 C 0.93333 km/h
2360 14-02-2020 07:00:00 5.49167 C 6.74 g/m*3 5.49 C 2.93333 km/h
2361 14-02-2020 08:00:00 5.31667 C 6.66 g/m*3 5.32 C 4.14167 km/h
2362 14-02-2020 09:00:00 5.81667 C 6.75 g/m*3 4.26 C 7.375 km/h
2363 14-02-2020 10:00:00 6.18333 C 6.71 g/m*3 3.7 C 11.96667 km/h
2364 14-02-2020 11:00:00 6.69167 C 6.81 g/m*3 4.51 C 10.89167 km/h
2365 14-02-2020 12:00:00 7.21667 C 6.88 g/m*3 5.63 C 8.46667 km/h
2366 14-02-2020 13:00:00 7.71667 C 6.77 g/m*3 6.51 C 7.25 km/h
2367 14-02-2020 14:00:00 8.16667 C 6.79 g/m*3 7.07 C 7.1 km/h
2368 14-02-2020 15:00:00 8.25 C 6.58 g/m*3 7.3 C 6.56667 km/h
2369 14-02-2020 16:00:00 8.39167 C 6.83 g/m*3 8.39 C 0.93333 km/h
2370 14-02-2020 17:00:00 7.725 C 7.05 g/m*3 7.73 C 0.13333 km/h
2371 14-02-2020 18:00:00 6.8 C 6.89 g/m*3 6.8 C 0 km/h
2372 14-02-2020 19:00:00 5.975 C 6.55 g/m*3 5.98 C 2.4 km/h
2373 14-02-2020 20:00:00 4.91667 C 6.25 g/m*3 4.92 C 1.2 km/h
2374 14-02-2020 21:00:00 4.23333 C 6.06 g/m*3 4.23 C 0 km/h
2375 14-02-2020 22:00:00 3.49167 C 5.81 g/m*3 3.49 C 0 km/h
Sensor: Nr:Datum:Temp:Abs-Feuchte:Windchill:Wind:
Aussen-T/F 2376 14-02-2020 23:00:00 3.13333 C 5.7 g/m*3 3.13 C 0 km/h
2377 15-02-2020 00:00:00 2.75 C 5.57 g/m*3 2.75 C 0 km/h
2378 15-02-2020 01:00:00 3.19167 C 5.78 g/m*3 3.19 C 0.13333 km/h
2379 15-02-2020 02:00:00 3.25833 C 5.81 g/m*3 3.26 C 0 km/h
2380 15-02-2020 03:00:00 2.69167 C 5.59 g/m*3 2.69 C 0 km/h
2381 15-02-2020 04:00:00 2.46667 C 5.52 g/m*3 2.47 C 0 km/h
2382 15-02-2020 05:00:00 2.25 C 5.44 g/m*3 2.25 C 0 km/h
2383 15-02-2020 06:00:00 1.85833 C 5.3 g/m*3 1.86 C 0 km/h
2384 15-02-2020 07:00:00 1.725 C 5.28 g/m*3 1.73 C 0.8 km/h
2385 15-02-2020 08:00:00 2.34167 C 5.52 g/m*3 2.34 C 0.26667 km/h
2386 15-02-2020 09:00:00 3.675 C 6.04 g/m*3 3.68 C 0 km/h
2387 15-02-2020 10:00:00 4.83333 C 6.56 g/m*3 4.83 C 0.26667 km/h
2388 15-02-2020 11:00:00 6.5 C 7.3 g/m*3 6.5 C 0.13333 km/h
2389 15-02-2020 12:00:00 8.80833 C 8 g/m*3 8.81 C 2.8 km/h
2390 15-02-2020 13:00:00 11.19167 C 7.86 g/m*3 11.19 C 9.4 km/h
2391 15-02-2020 14:00:00 11.45 C 7.6 g/m*3 11.45 C 8.475 km/h
2392 15-02-2020 15:00:00 11.50833 C 7.6 g/m*3 11.51 C 7.79167 km/h
2393 15-02-2020 16:00:00 10.95 C 7.63 g/m*3 10.95 C 2.4 km/h
2394 15-02-2020 17:00:00 8.89167 C 7.33 g/m*3 8.89 C 1.86667 km/h
2395 15-02-2020 18:00:00 7.575 C 7.12 g/m*3 7.58 C 3.2 km/h
2396 15-02-2020 19:00:00 7.35 C 7.11 g/m*3 7.35 C 1.86667 km/h
2397 15-02-2020 20:00:00 7.61667 C 7.16 g/m*3 7.62 C 2.26667 km/h
2398 15-02-2020 21:00:00 8.1 C 7.16 g/m*3 8.1 C 0.8 km/h
2399 15-02-2020 22:00:00 8.64167 C 7.16 g/m*3 8.64 C 2.00833 km/h
2400 15-02-2020 23:00:00 10 C 7.3 g/m*3 9.73 C 5.08333 km/h
Sensor: Nr:Datum:Temp:Abs-Feuchte:Windchill:Wind:
Aussen-T/F 2401 16-02-2020 00:00:00 10.275 C 7.33 g/m*3 9.43 C 7.5 km/h
2402 16-02-2020 01:00:00 10.58333 C 7.47 g/m*3 9.97 C 6.7 km/h
2403 16-02-2020 02:00:00 11.20833 C 7.73 g/m*3 11.21 C 5.90833 km/h
2404 16-02-2020 03:00:00 12.35833 C 7.89 g/m*3 12.36 C 8.46667 km/h
2405 16-02-2020 04:00:00 12.58333 C 7.77 g/m*3 12.58 C 7.76667 km/h
2406 16-02-2020 05:00:00 12.15833 C 7.68 g/m*3 12.16 C 4.69167 km/h
2407 16-02-2020 06:00:00 13.19167 C 7.74 g/m*3 13.19 C 11.69167 km/h
2408 16-02-2020 07:00:00 13.9 C 8.33 g/m*3 13.9 C 19.45 km/h
2409 16-02-2020 08:00:00 13.75833 C 8.79 g/m*3 13.76 C 21.58333 km/h
2410 16-02-2020 09:00:00 13.95833 C 8.75 g/m*3 13.96 C 19.04167 km/h
2411 16-02-2020 10:00:00 14.4 C 8.62 g/m*3 14.4 C 14.1 km/h
2412 16-02-2020 11:00:00 15.44167 C 8.48 g/m*3 15.44 C 13.425 km/h
2413 16-02-2020 12:00:00 16.43333 C 8.17 g/m*3 16.43 C 13.56667 km/h
2414 16-02-2020 13:00:00 17.26667 C 8.03 g/m*3 17.27 C 18.76667 km/h
2415 16-02-2020 14:00:00 17.83333 C 7.96 g/m*3 17.83 C 19.3 km/h
2416 16-02-2020 15:00:00 17.69167 C 8.04 g/m*3 17.69 C 11.29167 km/h
2417 16-02-2020 16:00:00 17.75833 C 7.91 g/m*3 17.76 C 17.43333 km/h
2418 16-02-2020 17:00:00 16.25 C 7.9 g/m*3 16.25 C 7.93333 km/h
2419 16-02-2020 18:00:00 15.45833 C 7.67 g/m*3 15.46 C 12.1 km/h
2420 16-02-2020 19:00:00 15.81667 C 7.68 g/m*3 15.82 C 11.95833 km/h
2421 16-02-2020 20:00:00 16.125 C 7.86 g/m*3 16.13 C 16.9 km/h
2422 16-02-2020 21:00:00 16.425 C 8.07 g/m*3 16.43 C 28.68333 km/h
2423 16-02-2020 22:00:00 16.33333 C 8.47 g/m*3 16.33 C 26.95 km/h
2424 16-02-2020 23:00:00 12.95833 C 8.88 g/m*3 12.96 C 18.775 km/h
2425 17-02-2020 00:00:00 9.95833 C 8.26 g/m*3 8.66 C 9.53333 km/h
Sensor: Nr:Datum:Temp:Abs-Feuchte:Windchill:Wind:
Aussen-T/F 2426 17-02-2020 01:00:00 9.46667 C 7.94 g/m*3 7.74 C 11.55 km/h
2427 17-02-2020 02:00:00 8.51667 C 7.35 g/m*3 5.96 C 15.95833 km/h
2428 17-02-2020 03:00:00 8.31667 C 6.94 g/m*3 6.1 C 13.15833 km/h
2429 17-02-2020 04:00:00 8.28333 C 6.95 g/m*3 6.12 C 12.75833 km/h
2430 17-02-2020 05:00:00 8.03333 C 7 g/m*3 6.66 C 8.18333 km/h
2431 17-02-2020 06:00:00 8.05 C 7.1 g/m*3 6.47 C 9.13333 km/h
2432 17-02-2020 07:00:00 8.175 C 7.14 g/m*3 7.21 C 6.58333 km/h
2433 17-02-2020 08:00:00 8.1 C 7.14 g/m*3 7.57 C 5.08333 km/h
2434 17-02-2020 09:00:00 8.7 C 7.22 g/m*3 7.69 C 7.10833 km/h
2435 17-02-2020 10:00:00 8.96667 C 7.26 g/m*3 7.58 C 9.00833 km/h
2436 17-02-2020 11:00:00 9.43333 C 7.15 g/m*3 7.19 C 15.16667 km/h
2437 17-02-2020 12:00:00 9.55833 C 6.94 g/m*3 7.43 C 14.5 km/h
2438 17-02-2020 13:00:00 10.03333 C 6.94 g/m*3 7.74 C 16.9 km/h
2439 17-02-2020 14:00:00 10.45833 C 7.15 g/m*3 7.92 C 20.375 km/h
2440 17-02-2020 15:00:00 10.73333 C 7.22 g/m*3 8.58 C 17.16667 km/h
2441 17-02-2020 16:00:00 10.96667 C 7.18 g/m*3 8.9 C 16.9 km/h
2442 17-02-2020 17:00:00 9.54167 C 7.05 g/m*3 7.31 C 15.3 km/h
2443 17-02-2020 18:00:00 7.29167 C 6.65 g/m*3 4.46 C 15.84167 km/h
2444 17-02-2020 19:00:00 6.71667 C 6.5 g/m*3 4.8 C 9.54167 km/h
2445 17-02-2020 20:00:00 5.5 C 6.25 g/m*3 5.5 C 2 km/h
2446 17-02-2020 21:00:00 5.35833 C 6.47 g/m*3 5.36 C 1.86667 km/h
2447 17-02-2020 22:00:00 6.875 C 6.93 g/m*3 4.86 C 10.2 km/h
2448 17-02-2020 23:00:00 8.01667 C 6.92 g/m*3 5.96 C 11.69167 km/h
2449 18-02-2020 00:00:00 8.025 C 6.65 g/m*3 5.68 C 13.55 km/h
2450 18-02-2020 01:00:00 8.06667 C 6.6 g/m*3 6.02 C 11.69167 km/h
Sensor: Nr:Datum:Temp:Abs-Feuchte:Windchill:Wind:
Aussen-T/F 2451 18-02-2020 02:00:00 7.58333 C 6.53 g/m*3 5.48 C 11.43333 km/h
2452 18-02-2020 03:00:00 7.41667 C 6.47 g/m*3 5.13 C 12.35833 km/h
2453 18-02-2020 04:00:00 6.81667 C 6.3 g/m*3 4.44 C 12.09167 km/h
2454 18-02-2020 05:00:00 6.38333 C 6.17 g/m*3 3.23 C 16.63333 km/h
2455 18-02-2020 06:00:00 6.13333 C 6.17 g/m*3 3.3 C 13.96667 km/h
2456 18-02-2020 07:00:00 5.84167 C 6.09 g/m*3 3.36 C 11.56667 km/h
2457 18-02-2020 08:00:00 5.75 C 6.08 g/m*3 3.33 C 11.14167 km/h
2458 18-02-2020 09:00:00 6.11667 C 6.18 g/m*3 3.72 C 11.41667 km/h
2459 18-02-2020 10:00:00 6.775 C 6.14 g/m*3 3.86 C 15.56667 km/h
2460 18-02-2020 11:00:00 7.45 C 6.22 g/m*3 4.73 C 15.3 km/h
2461 18-02-2020 12:00:00 8.06667 C 6.29 g/m*3 5.44 C 15.7 km/h
2462 18-02-2020 13:00:00 8.55833 C 6.36 g/m*3 5.66 C 19.04167 km/h
2463 18-02-2020 14:00:00 8.29167 C 6.34 g/m*3 5.52 C 17.3 km/h
2464 18-02-2020 15:00:00 8.6 C 6.27 g/m*3 6.15 C 15.3 km/h
2465 18-02-2020 16:00:00 8.40833 C 6.24 g/m*3 6.5 C 11.29167 km/h
2466 18-02-2020 17:00:00 8.125 C 6.31 g/m*3 6.53 C 9.275 km/h
2467 18-02-2020 18:00:00 7.40833 C 6.29 g/m*3 6.01 C 7.79167 km/h
2468 18-02-2020 19:00:00 6.325 C 6.15 g/m*3 6.33 C 1.86667 km/h
2469 18-02-2020 20:00:00 6.54167 C 6.24 g/m*3 5.1 C 7.38333 km/h
2470 18-02-2020 21:00:00 6.84167 C 6.31 g/m*3 5.49 C 7.25 km/h
2471 18-02-2020 22:00:00 7.29167 C 6.51 g/m*3 6.05 C 7.11667 km/h
2472 18-02-2020 23:00:00 7.175 C 6.54 g/m*3 5.58 C 8.46667 km/h
2473 19-02-2020 00:00:00 7.31667 C 6.46 g/m*3 4.57 C 15.29167 km/h
2474 19-02-2020 01:00:00 7.43333 C 6.38 g/m*3 5.02 C 13.15 km/h
2475 19-02-2020 02:00:00 7.60833 C 6.46 g/m*3 4.67 C 17.3 km/h
Sensor: Nr:Datum:Temp:Abs-Feuchte:Windchill:Wind:
Aussen-T/F 2476 19-02-2020 03:00:00 7.38333 C 6.57 g/m*3 4.47 C 16.63333 km/h
2477 19-02-2020 04:00:00 6.85833 C 6.72 g/m*3 3.94 C 15.7 km/h
2478 19-02-2020 05:00:00 6.825 C 6.62 g/m*3 3.67 C 17.44167 km/h
2479 19-02-2020 06:00:00 6.41667 C 6.3 g/m*3 4.03 C 11.7 km/h
2480 19-02-2020 07:00:00 6 C 6.09 g/m*3 3.22 C 13.43333 km/h
2481 19-02-2020 08:00:00 5.575 C 5.87 g/m*3 2.96 C 11.96667 km/h
2482 19-02-2020 09:00:00 5.55 C 5.83 g/m*3 4.14 C 6.69167 km/h
2483 19-02-2020 10:00:00 5.66667 C 5.84 g/m*3 3.74 C 8.725 km/h
2484 19-02-2020 11:00:00 6.5 C 5.72 g/m*3 3.75 C 13.96667 km/h
2485 19-02-2020 12:00:00 7.01667 C 5.46 g/m*3 4.25 C 14.9 km/h
2486 19-02-2020 13:00:00 7.39167 C 5.26 g/m*3 4.38 C 17.43333 km/h
2487 19-02-2020 14:00:00 7.70833 C 5.25 g/m*3 4.94 C 16.1 km/h
2488 19-02-2020 15:00:00 7.88333 C 5.21 g/m*3 5.28 C 15.16667 km/h
2489 19-02-2020 16:00:00 7.91667 C 5.16 g/m*3 5.55 C 13.56667 km/h
2490 19-02-2020 17:00:00 7.06667 C 5.06 g/m*3 5.36 C 8.86667 km/h
2491 19-02-2020 18:00:00 5.05 C 5.18 g/m*3 5.05 C 0 km/h
2492 19-02-2020 19:00:00 3.35833 C 5.03 g/m*3 3.36 C 0 km/h
2493 19-02-2020 20:00:00 2.76667 C 4.93 g/m*3 2.77 C 0.4 km/h
2494 19-02-2020 21:00:00 3.59167 C 5.11 g/m*3 3.59 C 2.8 km/h
2495 19-02-2020 22:00:00 5.49167 C 5.44 g/m*3 2.56 C 13.68333 km/h
2496 19-02-2020 23:00:00 5.50833 C 5.93 g/m*3 2.9 C 11.825 km/h
2497 20-02-2020 00:00:00 5.675 C 6.15 g/m*3 3.06 C 12.09167 km/h
2498 20-02-2020 01:00:00 5.85833 C 6.36 g/m*3 4.66 C 6.16667 km/h
2499 20-02-2020 02:00:00 6.225 C 6.39 g/m*3 4.14 C 9.93333 km/h
2500 20-02-2020 03:00:00 6.675 C 6.52 g/m*3 4.44 C 11.15833 km/h
Sensor: Nr:Datum:Temp:Abs-Feuchte:Windchill:Wind:
Aussen-T/F 2501 20-02-2020 04:00:00 6.95833 C 6.65 g/m*3 4.8 C 11.025 km/h
2502 20-02-2020 05:00:00 7.09167 C 6.72 g/m*3 5.3 C 9.28333 km/h
2503 20-02-2020 06:00:00 7.16667 C 6.85 g/m*3 6.51 C 5.09167 km/h
2504 20-02-2020 07:00:00 7.2 C 6.95 g/m*3 7.2 C 2.81667 km/h
2505 20-02-2020 08:00:00 7.23333 C 7.05 g/m*3 7.23 C 0.66667 km/h
2506 20-02-2020 09:00:00 7.80833 C 7.21 g/m*3 7.81 C 4.15 km/h
2507 20-02-2020 10:00:00 8.65833 C 7.21 g/m*3 7.45 C 7.91667 km/h
2508 20-02-2020 11:00:00 9.56667 C 7.25 g/m*3 7.57 C 13.55833 km/h
2509 20-02-2020 12:00:00 9.65 C 7.18 g/m*3 8.06 C 10.89167 km/h
2510 20-02-2020 13:00:00 9.725 C 7.41 g/m*3 8.14 C 11 km/h
2511 20-02-2020 14:00:00 10.15833 C 7.16 g/m*3 7.98 C 16.1 km/h
2512 20-02-2020 15:00:00 9.98333 C 7.18 g/m*3 8.11 C 13.3 km/h
2513 20-02-2020 16:00:00 9.575 C 7 g/m*3 7.81 C 11.95 km/h
2514 20-02-2020 17:00:00 9.39167 C 6.86 g/m*3 7.56 C 12.1 km/h
2515 20-02-2020 18:00:00 9.34167 C 6.86 g/m*3 7.59 C 11.54167 km/h
2516 20-02-2020 19:00:00 8.66667 C 6.79 g/m*3 6.65 C 12.33333 km/h
2517 20-02-2020 20:00:00 9.5 C 6.78 g/m*3 6.91 C 18.36667 km/h
2518 20-02-2020 21:00:00 9.13333 C 7 g/m*3 6.09 C 21.975 km/h
2519 20-02-2020 22:00:00 8.13333 C 7.14 g/m*3 5.11 C 19.175 km/h
2520 20-02-2020 23:00:00 6.6 C 6.56 g/m*3 3.96 C 13.425 km/h
2521 21-02-2020 00:00:00 5.43333 C 6.11 g/m*3 2.2 C 15.56667 km/h
2522 21-02-2020 01:00:00 4.84167 C 5.58 g/m*3 1.95 C 12.63333 km/h
2523 21-02-2020 02:00:00 4.225 C 5.43 g/m*3 2.06 C 8.60833 km/h
2524 21-02-2020 03:00:00 3.83333 C 5.36 g/m*3 2.32 C 6.16667 km/h
2525 21-02-2020 04:00:00 2.85833 C 5.26 g/m*3 1.35 C 5.75833 km/h
Sensor: Nr:Datum:Temp:Abs-Feuchte:Windchill:Wind:
Aussen-T/F 2526 21-02-2020 05:00:00 2.81667 C 5.26 g/m*3 1.25 C 5.9 km/h
2527 21-02-2020 06:00:00 2.6 C 5.17 g/m*3 1.06 C 5.75 km/h
2528 21-02-2020 07:00:00 2.89167 C 5.15 g/m*3 0.8 C 7.525 km/h
2529 21-02-2020 08:00:00 2.6 C 5.08 g/m*3 2.6 C 3.74167 km/h
2530 21-02-2020 09:00:00 3.33333 C 5.33 g/m*3 1.48 C 6.975 km/h
2531 21-02-2020 10:00:00 4.35833 C 5.52 g/m*3 2.16 C 8.85833 km/h
2532 21-02-2020 11:00:00 5.825 C 5.83 g/m*3 3.19 C 12.36667 km/h
2533 21-02-2020 12:00:00 7.175 C 6.11 g/m*3 4.37 C 15.43333 km/h
2534 21-02-2020 13:00:00 7.76667 C 6.18 g/m*3 4.85 C 17.43333 km/h
2535 21-02-2020 14:00:00 7.99167 C 6.22 g/m*3 5.58 C 13.95833 km/h
2536 21-02-2020 15:00:00 8.36667 C 6.17 g/m*3 6.24 C 12.625 km/h
2537 21-02-2020 16:00:00 8.225 C 6.05 g/m*3 6.45 C 10.35 km/h
2538 21-02-2020 17:00:00 7.73333 C 5.89 g/m*3 6.6 C 6.96667 km/h
2539 21-02-2020 18:00:00 6.16667 C 5.75 g/m*3 6.17 C 2.8 km/h
2540 21-02-2020 19:00:00 4.98333 C 5.61 g/m*3 4.98 C 2.40833 km/h
2541 21-02-2020 20:00:00 5.35 C 5.62 g/m*3 3.99 C 6.43333 km/h
2542 21-02-2020 21:00:00 5.73333 C 5.69 g/m*3 4.88 C 5.08333 km/h
2543 21-02-2020 22:00:00 4.68333 C 5.62 g/m*3 4.68 C 2.4 km/h
2544 21-02-2020 23:00:00 4.43333 C 5.69 g/m*3 4.43 C 3.475 km/h
2545 22-02-2020 00:00:00 4.54167 C 5.71 g/m*3 4.54 C 4.14167 km/h
2546 22-02-2020 01:00:00 4.55833 C 5.69 g/m*3 4.56 C 3.74167 km/h
2547 22-02-2020 02:00:00 5.025 C 5.78 g/m*3 2.32 C 11.81667 km/h
2548 22-02-2020 03:00:00 5.41667 C 5.79 g/m*3 2.61 C 12.875 km/h
2549 22-02-2020 04:00:00 5.28333 C 5.76 g/m*3 3.01 C 9.94167 km/h
2550 22-02-2020 05:00:00 5.70833 C 5.87 g/m*3 2.3 C 17.3 km/h
Sensor: Nr:Datum:Temp:Abs-Feuchte:Windchill:Wind:
Aussen-T/F 2551 22-02-2020 06:00:00 5.825 C 5.88 g/m*3 2.41 C 17.575 km/h
2552 22-02-2020 07:00:00 5.78333 C 5.86 g/m*3 2.96 C 13.425 km/h
2553 22-02-2020 08:00:00 6.04167 C 5.91 g/m*3 3.39 C 12.76667 km/h
2554 22-02-2020 09:00:00 6.69167 C 6 g/m*3 3.46 C 17.83333 km/h
2555 22-02-2020 10:00:00 7.43333 C 6.02 g/m*3 3.9 C 22.25 km/h
2556 22-02-2020 11:00:00 7.9 C 6.06 g/m*3 4.94 C 18.10833 km/h
2557 22-02-2020 12:00:00 8.80833 C 6.05 g/m*3 7.75 C 7.36667 km/h
2558 22-02-2020 13:00:00 9.89167 C 6.22 g/m*3 8.76 C 8.60833 km/h
2559 22-02-2020 14:00:00 10.29167 C 6.29 g/m*3 8.16 C 15.96667 km/h
2560 22-02-2020 15:00:00 10.59167 C 6.58 g/m*3 8.35 C 17.7 km/h
2561 22-02-2020 16:00:00 10.71667 C 6.85 g/m*3 8.46 C 18.1 km/h
2562 22-02-2020 17:00:00 10.31667 C 6.93 g/m*3 8.22 C 15.7 km/h
2563 22-02-2020 18:00:00 10.11667 C 7.17 g/m*3 8.01 C 15.43333 km/h
2564 22-02-2020 19:00:00 9.94167 C 7.49 g/m*3 7.67 C 16.5 km/h
2565 22-02-2020 20:00:00 10.23333 C 7.76 g/m*3 8.18 C 15.16667 km/h
2566 22-02-2020 21:00:00 10.39167 C 7.93 g/m*3 8.46 C 14.49167 km/h
2567 22-02-2020 22:00:00 10.8 C 8.1 g/m*3 8.53 C 18.5 km/h
2568 22-02-2020 23:00:00 10.9 C 8.16 g/m*3 8.89 C 16.23333 km/h
2569 23-02-2020 00:00:00 10.8 C 8.14 g/m*3 8.94 C 14.625 km/h
2570 23-02-2020 01:00:00 9.90833 C 8.34 g/m*3 8.27 C 11.56667 km/h
2571 23-02-2020 02:00:00 10.1 C 8.3 g/m*3 8.24 C 13.43333 km/h
2572 23-02-2020 03:00:00 10.2 C 8.09 g/m*3 8.26 C 14.23333 km/h
2573 23-02-2020 04:00:00 10.25833 C 7.98 g/m*3 8.36 C 13.96667 km/h
2574 23-02-2020 05:00:00 10.34167 C 8.21 g/m*3 8.36 C 14.76667 km/h
2575 23-02-2020 06:00:00 10.28333 C 8.17 g/m*3 8.53 C 12.89167 km/h
Sensor: Nr:Datum:Temp:Abs-Feuchte:Windchill:Wind:
Aussen-T/F 2576 23-02-2020 07:00:00 10.25 C 8.31 g/m*3 8.02 C 16.78333 km/h
2577 23-02-2020 08:00:00 10.525 C 8.55 g/m*3 7.92 C 21.3 km/h
2578 23-02-2020 09:00:00 10.58333 C 8.64 g/m*3 8.32 C 17.825 km/h
2579 23-02-2020 10:00:00 10.91667 C 8.73 g/m*3 8.34 C 22.24167 km/h
2580 23-02-2020 11:00:00 11.325 C 8.79 g/m*3 11.33 C 20.91667 km/h
2581 23-02-2020 12:00:00 11.775 C 8.97 g/m*3 11.78 C 24.66667 km/h
2582 23-02-2020 13:00:00 12.03333 C 8.98 g/m*3 12.03 C 23.175 km/h
2583 23-02-2020 14:00:00 12.05833 C 9.09 g/m*3 12.06 C 23.74167 km/h
2584 23-02-2020 15:00:00 12.175 C 9.27 g/m*3 12.18 C 23.30833 km/h
2585 23-02-2020 16:00:00 12.1 C 9.29 g/m*3 12.1 C 18.5 km/h
2586 23-02-2020 17:00:00 11.9 C 9.36 g/m*3 11.9 C 18.24167 km/h
2587 23-02-2020 18:00:00 11.34167 C 9.46 g/m*3 11.34 C 13.83333 km/h
2588 23-02-2020 19:00:00 10.65 C 9.11 g/m*3 8.62 C 15.825 km/h
2589 23-02-2020 20:00:00 8.6 C 7.84 g/m*3 6.2 C 14.9 km/h
2590 23-02-2020 21:00:00 8.30833 C 7.44 g/m*3 5.79 C 15.3 km/h
2591 23-02-2020 22:00:00 8.175 C 7.09 g/m*3 5.84 C 13.7 km/h
2592 23-02-2020 23:00:00 7.55 C 6.48 g/m*3 6.02 C 8.46667 km/h
2593 24-02-2020 00:00:00 7.13333 C 6.25 g/m*3 7.13 C 4.80833 km/h
2594 24-02-2020 01:00:00 6.325 C 6.15 g/m*3 6.33 C 4.68333 km/h
2595 24-02-2020 02:00:00 5.21667 C 5.91 g/m*3 5.22 C 1.73333 km/h
2596 24-02-2020 03:00:00 5.175 C 5.92 g/m*3 5.18 C 1.875 km/h
2597 24-02-2020 04:00:00 5.075 C 5.93 g/m*3 5.08 C 0.66667 km/h
2598 24-02-2020 05:00:00 4.68333 C 6.02 g/m*3 4.68 C 0 km/h
2599 24-02-2020 06:00:00 4.68333 C 6.11 g/m*3 4.68 C 0 km/h
2600 24-02-2020 07:00:00 4.85833 C 6.19 g/m*3 4.86 C 0.53333 km/h
Sensor: Nr:Datum:Temp:Abs-Feuchte:Windchill:Wind:
Aussen-T/F 2601 24-02-2020 08:00:00 5.61667 C 6.36 g/m*3 5.62 C 3.34167 km/h
2602 24-02-2020 09:00:00 6.49167 C 6.47 g/m*3 6.49 C 1.86667 km/h
2603 24-02-2020 10:00:00 6.525 C 6.69 g/m*3 6.53 C 1.46667 km/h
2604 24-02-2020 11:00:00 6.39167 C 6.92 g/m*3 6.39 C 1.2 km/h
2605 24-02-2020 12:00:00 6.88333 C 7.27 g/m*3 6.88 C 1.46667 km/h
2606 24-02-2020 13:00:00 7.90833 C 7.82 g/m*3 7.91 C 0.4 km/h
2607 24-02-2020 14:00:00 9.40833 C 8.66 g/m*3 8.74 C 6.175 km/h
2608 24-02-2020 15:00:00 11.13333 C 9.25 g/m*3 11.13 C 19.3 km/h
2609 24-02-2020 16:00:00 11.9 C 9.37 g/m*3 11.9 C 21.575 km/h
2610 24-02-2020 17:00:00 11.68333 C 8.92 g/m*3 11.68 C 24.93333 km/h
2611 24-02-2020 18:00:00 11.375 C 8.48 g/m*3 11.38 C 22.78333 km/h
2612 24-02-2020 19:00:00 11.26667 C 8.3 g/m*3 11.27 C 17.56667 km/h
2613 24-02-2020 20:00:00 11.40833 C 8.09 g/m*3 11.41 C 19.03333 km/h
2614 24-02-2020 21:00:00 11.16667 C 8.21 g/m*3 11.17 C 18.24167 km/h
2615 24-02-2020 22:00:00 11.15 C 8.29 g/m*3 11.15 C 20.23333 km/h
2616 24-02-2020 23:00:00 11.175 C 8.39 g/m*3 11.18 C 21.84167 km/h
2617 25-02-2020 00:00:00 10.89167 C 8.48 g/m*3 9.17 C 13.69167 km/h
2618 25-02-2020 01:00:00 10.8 C 8.5 g/m*3 8.99 C 14.23333 km/h
2619 25-02-2020 02:00:00 10.70833 C 8.52 g/m*3 9.03 C 13.03333 km/h
2620 25-02-2020 03:00:00 10.38333 C 8.46 g/m*3 9.05 C 10.225 km/h
2621 25-02-2020 04:00:00 10.3 C 8.39 g/m*3 8.55 C 12.9 km/h
2622 25-02-2020 05:00:00 10.14167 C 8.26 g/m*3 8.25 C 13.7 km/h
2623 25-02-2020 06:00:00 9.925 C 8.15 g/m*3 7.22 C 20.65 km/h
2624 25-02-2020 07:00:00 9.50833 C 8.11 g/m*3 7.41 C 14.23333 km/h
2625 25-02-2020 08:00:00 8.81667 C 8.14 g/m*3 7.69 C 7.66667 km/h
Sensor: Nr:Datum:Temp:Abs-Feuchte:Windchill:Wind:
Aussen-T/F 2626 25-02-2020 09:00:00 8.71667 C 8.09 g/m*3 8.03 C 5.89167 km/h
2627 25-02-2020 10:00:00 8.59167 C 7.21 g/m*3 6.41 C 13.3 km/h
2628 25-02-2020 11:00:00 8.73333 C 6.81 g/m*3 6.64 C 12.9 km/h
2629 25-02-2020 12:00:00 9.51667 C 6.55 g/m*3 7.47 C 13.825 km/h
2630 25-02-2020 13:00:00 10.15 C 6.68 g/m*3 7.8 C 17.7 km/h
2631 25-02-2020 14:00:00 10.28333 C 6.43 g/m*3 7.93 C 17.96667 km/h
2632 25-02-2020 15:00:00 10.125 C 6.42 g/m*3 8.25 C 13.56667 km/h
2633 25-02-2020 16:00:00 10.43333 C 6.33 g/m*3 8.81 C 12.23333 km/h
2634 25-02-2020 17:00:00 9.875 C 6.38 g/m*3 8.09 C 12.48333 km/h
2635 25-02-2020 18:00:00 8.85 C 6.37 g/m*3 7.22 C 10.21667 km/h
2636 25-02-2020 19:00:00 7.40833 C 6.54 g/m*3 7.41 C 3.21667 km/h
2637 25-02-2020 20:00:00 6.54167 C 6.72 g/m*3 6.54 C 3.88333 km/h
2638 25-02-2020 21:00:00 6.38333 C 6.58 g/m*3 4.92 C 7.36667 km/h
2639 25-02-2020 22:00:00 5.85833 C 5.67 g/m*3 2.97 C 13.94167 km/h
2640 25-02-2020 23:00:00 4.93333 C 5.58 g/m*3 3.42 C 6.70833 km/h
2641 26-02-2020 00:00:00 5.7 C 5.83 g/m*3 5.7 C 3.89167 km/h
2642 26-02-2020 01:00:00 5.9 C 6.01 g/m*3 3.26 C 12.48333 km/h
2643 26-02-2020 02:00:00 5.575 C 5.71 g/m*3 2.82 C 12.76667 km/h
2644 26-02-2020 03:00:00 5.01667 C 5.33 g/m*3 2.23 C 12.23333 km/h
2645 26-02-2020 04:00:00 4.36667 C 5.27 g/m*3 1.14 C 13.96667 km/h
2646 26-02-2020 05:00:00 4.41667 C 5.18 g/m*3 0.6 C 17.96667 km/h
2647 26-02-2020 06:00:00 4.28333 C 5.03 g/m*3 -0.01 C 21.45 km/h
2648 26-02-2020 07:00:00 3.95 C 5.06 g/m*3 0.01 C 17.975 km/h
2649 26-02-2020 08:00:00 4.09167 C 5.15 g/m*3 0.13 C 18.36667 km/h
2650 26-02-2020 09:00:00 3.90833 C 5.29 g/m*3 0.03 C 17.43333 km/h
Sensor: Nr:Datum:Temp:Abs-Feuchte:Windchill:Wind:
Aussen-T/F 2651 26-02-2020 10:00:00 4.25833 C 5.48 g/m*3 0.43 C 17.7 km/h
2652 26-02-2020 11:00:00 5.23333 C 5.56 g/m*3 1.51 C 18.76667 km/h
2653 26-02-2020 12:00:00 6.025 C 5.62 g/m*3 2.44 C 19.3 km/h
2654 26-02-2020 13:00:00 6.00833 C 5.6 g/m*3 2.45 C 19.03333 km/h
2655 26-02-2020 14:00:00 5.69167 C 5.77 g/m*3 2.35 C 16.76667 km/h
2656 26-02-2020 15:00:00 6.28333 C 5.77 g/m*3 2.83 C 18.775 km/h
2657 26-02-2020 16:00:00 5.96667 C 5.42 g/m*3 2.64 C 17.16667 km/h
2658 26-02-2020 17:00:00 5.55 C 5.31 g/m*3 2.38 C 15.3 km/h
2659 26-02-2020 18:00:00 4.53333 C 5.23 g/m*3 1.83 C 11.3 km/h
2660 26-02-2020 19:00:00 4.425 C 5.34 g/m*3 2.34 C 8.46667 km/h
2661 26-02-2020 20:00:00 4.01667 C 5.26 g/m*3 1.75 C 8.875 km/h
2662 26-02-2020 21:00:00 3.99167 C 5.31 g/m*3 2.09 C 7.50833 km/h
2663 26-02-2020 22:00:00 3.9 C 5.36 g/m*3 2.14 C 6.96667 km/h
2664 26-02-2020 23:00:00 3.625 C 5.37 g/m*3 1.39 C 8.475 km/h
2665 27-02-2020 00:00:00 3.5 C 5.29 g/m*3 1.28 C 8.325 km/h
2666 27-02-2020 01:00:00 3.01667 C 5.16 g/m*3 1.8 C 5.08333 km/h
2667 27-02-2020 02:00:00 3.19167 C 5.23 g/m*3 0.45 C 10.225 km/h
2668 27-02-2020 03:00:00 3.51667 C 5.42 g/m*3 0.66 C 11.025 km/h
2669 27-02-2020 04:00:00 3.3 C 5.38 g/m*3 0.8 C 9.275 km/h
2670 27-02-2020 05:00:00 2.725 C 5.21 g/m*3 1.36 C 5.34167 km/h
2671 27-02-2020 06:00:00 2.725 C 5.15 g/m*3 0.37 C 8.33333 km/h
2672 27-02-2020 07:00:00 3.08333 C 5.22 g/m*3 3.08 C 4.55 km/h
2673 27-02-2020 08:00:00 3.50833 C 5.44 g/m*3 3.51 C 0.53333 km/h
2674 27-02-2020 09:00:00 4.6 C 5.6 g/m*3 4.6 C 3.06667 km/h
2675 27-02-2020 10:00:00 5.33333 C 5.62 g/m*3 5.33 C 3.475 km/h
Sensor: Nr:Datum:Temp:Abs-Feuchte:Windchill:Wind:
Aussen-T/F 2676 27-02-2020 11:00:00 5.00833 C 5.67 g/m*3 3.77 C 5.89167 km/h
2677 27-02-2020 12:00:00 4.475 C 5.82 g/m*3 3.07 C 6.15 km/h
2678 27-02-2020 13:00:00 3.725 C 5.7 g/m*3 3.73 C 4.41667 km/h
2679 27-02-2020 14:00:00 3.23333 C 5.63 g/m*3 1.36 C 6.975 km/h
2680 27-02-2020 15:00:00 2.98333 C 5.58 g/m*3 1.07 C 6.98333 km/h
2681 27-02-2020 16:00:00 2.15833 C 5.28 g/m*3 2.16 C 0.66667 km/h
2682 27-02-2020 17:00:00 1.18333 C 4.96 g/m*3 1.18 C 0.53333 km/h
2683 27-02-2020 18:00:00 1.175 C 5.01 g/m*3 1.18 C 0.4 km/h
2684 27-02-2020 19:00:00 1.58333 C 5.18 g/m*3 -0.55 C 6.975 km/h
2685 27-02-2020 20:00:00 1.725 C 5.18 g/m*3 -0.3 C 6.71667 km/h
2686 27-02-2020 21:00:00 1.69167 C 5.17 g/m*3 0.07 C 5.625 km/h
2687 27-02-2020 22:00:00 1.725 C 5.21 g/m*3 1.73 C 3.73333 km/h
2688 27-02-2020 23:00:00 2.30833 C 5.4 g/m*3 -0.48 C 9.675 km/h
2689 28-02-2020 00:00:00 2.75 C 5.42 g/m*3 0.52 C 7.90833 km/h
2690 28-02-2020 01:00:00 2.425 C 5.35 g/m*3 2.42 C 3.6 km/h
2691 28-02-2020 02:00:00 2.16667 C 5.29 g/m*3 2.17 C 4.13333 km/h
2692 28-02-2020 03:00:00 1.9 C 5.19 g/m*3 1.9 C 4.80833 km/h
2693 28-02-2020 04:00:00 1.81667 C 5.16 g/m*3 1.82 C 4.675 km/h
2694 28-02-2020 05:00:00 1.73333 C 5.13 g/m*3 -0.19 C 6.43333 km/h
2695 28-02-2020 06:00:00 1.41667 C 5 g/m*3 -0.97 C 7.65 km/h
2696 28-02-2020 07:00:00 1.15833 C 4.88 g/m*3 -0.95 C 6.70833 km/h
2697 28-02-2020 08:00:00 1.15 C 4.92 g/m*3 -0.38 C 5.20833 km/h
2698 28-02-2020 09:00:00 1.975 C 5.17 g/m*3 -0.39 C 7.91667 km/h
2699 28-02-2020 10:00:00 3.00833 C 5.35 g/m*3 0.1 C 10.76667 km/h
2700 28-02-2020 11:00:00 3.78333 C 5.43 g/m*3 0.56 C 13.16667 km/h
Sensor: Nr:Datum:Temp:Abs-Feuchte:Windchill:Wind:
Aussen-T/F 2701 28-02-2020 12:00:00 4.6 C 5.62 g/m*3 1.4 C 14.1 km/h
2702 28-02-2020 13:00:00 6.05833 C 5.81 g/m*3 3.62 C 11.56667 km/h
2703 28-02-2020 14:00:00 7.36667 C 5.84 g/m*3 5.3 C 11.01667 km/h
2704 28-02-2020 15:00:00 7.45 C 5.76 g/m*3 5.97 C 8.19167 km/h
2705 28-02-2020 16:00:00 7.225 C 5.92 g/m*3 7.23 C 3.75 km/h
2706 28-02-2020 17:00:00 6.425 C 6.08 g/m*3 6.43 C 1.46667 km/h
2707 28-02-2020 18:00:00 5.375 C 5.76 g/m*3 5.38 C 3.34167 km/h
2708 28-02-2020 19:00:00 5.64167 C 5.62 g/m*3 5.64 C 4.425 km/h
2709 28-02-2020 20:00:00 5.5 C 5.72 g/m*3 4.08 C 6.71667 km/h
2710 28-02-2020 21:00:00 5.025 C 5.9 g/m*3 4.08 C 5.09167 km/h
2711 28-02-2020 22:00:00 4.975 C 5.96 g/m*3 4.97 C 3.46667 km/h
2712 28-02-2020 23:00:00 4.41667 C 6.06 g/m*3 4.42 C 2.4 km/h
2713 29-02-2020 00:00:00 5.13333 C 6.42 g/m*3 5.13 C 4.95833 km/h
2714 29-02-2020 01:00:00 5.69167 C 6.66 g/m*3 5.69 C 1.6 km/h
2715 29-02-2020 02:00:00 6.10833 C 6.94 g/m*3 6.11 C 3.74167 km/h
2716 29-02-2020 03:00:00 8.4 C 7.83 g/m*3 6.54 C 11.03333 km/h
2717 29-02-2020 04:00:00 9.725 C 8.1 g/m*3 7.41 C 16.36667 km/h
2718 29-02-2020 05:00:00 9.60833 C 7.9 g/m*3 8.32 C 9.14167 km/h
2719 29-02-2020 06:00:00 9.30833 C 7.73 g/m*3 8.24 C 7.78333 km/h
2720 29-02-2020 07:00:00 8.775 C 7.55 g/m*3 8.78 C 4.54167 km/h
2721 29-02-2020 08:00:00 8.23333 C 7.5 g/m*3 8.23 C 2.13333 km/h
2722 29-02-2020 09:00:00 8.975 C 7.69 g/m*3 8.98 C 3.61667 km/h
2723 29-02-2020 10:00:00 10.13333 C 7.37 g/m*3 10.13 C 4.00833 km/h
2724 29-02-2020 11:00:00 11.54167 C 7.5 g/m*3 11.54 C 6.84167 km/h
2725 29-02-2020 12:00:00 13.95833 C 7.71 g/m*3 13.96 C 9.55 km/h
Sensor: Nr:Datum:Temp:Abs-Feuchte:Windchill:Wind:
Aussen-T/F 2726 29-02-2020 13:00:00 14.65833 C 8.01 g/m*3 14.66 C 9.55 km/h
2727 29-02-2020 14:00:00 14.68333 C 8.51 g/m*3 14.68 C 17.56667 km/h
2728 29-02-2020 15:00:00 11.33333 C 9.11 g/m*3 11.33 C 12.35833 km/h
2729 29-02-2020 16:00:00 11.325 C 8.7 g/m*3 11.33 C 21.7 km/h
2730 29-02-2020 17:00:00 9.30833 C 7.34 g/m*3 7.11 C 14.63333 km/h
2731 29-02-2020 18:00:00 8.50833 C 7.03 g/m*3 6.18 C 14.24167 km/h
2732 29-02-2020 19:00:00 6.65 C 6.3 g/m*3 4.11 C 12.89167 km/h
2733 29-02-2020 20:00:00 6.6 C 6 g/m*3 4.22 C 11.83333 km/h
2734 29-02-2020 21:00:00 5.69167 C 5.67 g/m*3 4.3 C 6.70833 km/h
2735 29-02-2020 22:00:00 4.54167 C 5.66 g/m*3 4.54 C 4 km/h
2736 29-02-2020 23:00:00 5.20833 C 5.97 g/m*3 4 C 5.89167 km/h
2737 01-03-2020 00:00:00 6.86667 C 6.18 g/m*3 3.88 C 16.23333 km/h
2738 01-03-2020 01:00:00 6.38333 C 6.1 g/m*3 3.76 C 13.025 km/h
2739 01-03-2020 02:00:00 6.35833 C 6.16 g/m*3 3.77 C 12.76667 km/h
2740 01-03-2020 03:00:00 7.10833 C 6.35 g/m*3 4.94 C 11.26667 km/h
2741 01-03-2020 04:00:00 7.30833 C 6.18 g/m*3 4.86 C 13.16667 km/h
2742 01-03-2020 05:00:00 7.45833 C 6.14 g/m*3 4.99 C 13.55833 km/h
2743 01-03-2020 06:00:00 7.425 C 6.21 g/m*3 5.32 C 11.28333 km/h
2744 01-03-2020 07:00:00 6.71667 C 6.55 g/m*3 6.72 C 4.95833 km/h
2745 01-03-2020 08:00:00 5.74167 C 6.49 g/m*3 2.93 C 13.275 km/h
2746 01-03-2020 09:00:00 5.05 C 6.32 g/m*3 2.09 C 13.29167 km/h
2747 01-03-2020 10:00:00 6.3 C 6.75 g/m*3 3.99 C 11.15 km/h
2748 01-03-2020 11:00:00 8.44167 C 6.78 g/m*3 5.51 C 19.04167 km/h
2749 01-03-2020 12:00:00 9.01667 C 6.53 g/m*3 6.65 C 15.425 km/h
2750 01-03-2020 13:00:00 10.00833 C 6.5 g/m*3 7.99 C 14.5 km/h
Sensor: Nr:Datum:Temp:Abs-Feuchte:Windchill:Wind:
Aussen-T/F 2751 01-03-2020 14:00:00 10.19167 C 6.5 g/m*3 8.42 C 12.9 km/h
2752 01-03-2020 15:00:00 10.65833 C 6.54 g/m*3 9.74 C 8.2 km/h
2753 01-03-2020 16:00:00 10.8 C 6.78 g/m*3 10.8 C 1.46667 km/h
2754 01-03-2020 17:00:00 9.25833 C 7.59 g/m*3 9.26 C 4.68333 km/h
2755 01-03-2020 18:00:00 7.64167 C 7.45 g/m*3 7.64 C 2.66667 km/h
2756 01-03-2020 19:00:00 7.25 C 7.41 g/m*3 7.25 C 0.66667 km/h
2757 01-03-2020 20:00:00 6.84167 C 7.29 g/m*3 6.84 C 2.26667 km/h
2758 01-03-2020 21:00:00 6.28333 C 7.04 g/m*3 6.28 C 0 km/h
2759 01-03-2020 22:00:00 6.725 C 7.31 g/m*3 6.73 C 0 km/h
2760 01-03-2020 23:00:00 5.44167 C 6.55 g/m*3 2.39 C 14.35833 km/h
2761 02-03-2020 00:00:00 4.08333 C 6 g/m*3 0.91 C 13.3 km/h
2762 02-03-2020 01:00:00 4.30833 C 6.04 g/m*3 1.21 C 13.15833 km/h
2763 02-03-2020 02:00:00 4.25 C 6.01 g/m*3 1.49 C 11.3 km/h
2764 02-03-2020 03:00:00 3.89167 C 5.86 g/m*3 2.18 C 6.825 km/h
2765 02-03-2020 04:00:00 3.225 C 5.67 g/m*3 3.23 C 4.40833 km/h
2766 02-03-2020 05:00:00 2.49167 C 5.41 g/m*3 2.49 C 4.13333 km/h
2767 02-03-2020 06:00:00 2.23333 C 5.37 g/m*3 2.23 C 3.2 km/h
2768 02-03-2020 07:00:00 2.675 C 5.58 g/m*3 2.68 C 0.8 km/h
2769 02-03-2020 08:00:00 3.525 C 5.93 g/m*3 3.53 C 0.4 km/h
2770 02-03-2020 09:00:00 4.825 C 6.43 g/m*3 3.85 C 5.1 km/h
2771 02-03-2020 10:00:00 6.95 C 6.75 g/m*3 5.48 C 7.78333 km/h
2772 02-03-2020 11:00:00 9.475 C 7.06 g/m*3 8.27 C 8.59167 km/h
2773 02-03-2020 12:00:00 10.8 C 6.86 g/m*3 9.74 C 9.11667 km/h
2774 02-03-2020 13:00:00 11.58333 C 7 g/m*3 11.58 C 8.06667 km/h
2775 02-03-2020 14:00:00 11.09167 C 6.86 g/m*3 11.09 C 8.86667 km/h
Sensor: Nr:Datum:Temp:Abs-Feuchte:Windchill:Wind:
Aussen-T/F 2776 02-03-2020 15:00:00 10.41667 C 6.95 g/m*3 10.42 C 3.74167 km/h
2777 02-03-2020 16:00:00 9.01667 C 7.7 g/m*3 9.02 C 0.8 km/h
2778 02-03-2020 17:00:00 7.63333 C 7.42 g/m*3 7.63 C 0 km/h
2779 02-03-2020 18:00:00 6.99167 C 7.25 g/m*3 6.99 C 0 km/h
2780 02-03-2020 19:00:00 6.53333 C 7.11 g/m*3 6.53 C 0 km/h
2781 02-03-2020 20:00:00 6.35833 C 7.06 g/m*3 6.36 C 0 km/h
2782 02-03-2020 21:00:00 6.225 C 7.02 g/m*3 6.23 C 0 km/h
2783 02-03-2020 22:00:00 6.15833 C 7.04 g/m*3 6.16 C 0.26667 km/h
2784 02-03-2020 23:00:00 5.95 C 6.94 g/m*3 5.95 C 1.86667 km/h
2785 03-03-2020 00:00:00 5.79167 C 6.87 g/m*3 5.79 C 4.14167 km/h
2786 03-03-2020 01:00:00 5.60833 C 6.7 g/m*3 3.15 C 11.14167 km/h
2787 03-03-2020 02:00:00 5.2 C 6.31 g/m*3 3.53 C 7.39167 km/h
2788 03-03-2020 03:00:00 4.43333 C 5.91 g/m*3 3.3 C 5.35 km/h
2789 03-03-2020 04:00:00 3.65 C 5.71 g/m*3 2.07 C 6.28333 km/h
2790 03-03-2020 05:00:00 3.41667 C 5.66 g/m*3 1.58 C 6.98333 km/h
2791 03-03-2020 06:00:00 3.28333 C 5.65 g/m*3 1.55 C 6.56667 km/h
2792 03-03-2020 07:00:00 3.275 C 5.63 g/m*3 1.25 C 7.51667 km/h
2793 03-03-2020 08:00:00 3.50833 C 5.69 g/m*3 0.74 C 10.6 km/h
2794 03-03-2020 09:00:00 4.025 C 5.73 g/m*3 1.19 C 11.41667 km/h
2795 03-03-2020 10:00:00 5.24167 C 5.81 g/m*3 2 C 15.3 km/h
2796 03-03-2020 11:00:00 5.45 C 5.82 g/m*3 3.15 C 10.225 km/h
2797 03-03-2020 12:00:00 6.23333 C 6.01 g/m*3 4.23 C 9.55 km/h
2798 03-03-2020 13:00:00 7.33333 C 6.02 g/m*3 5.16 C 11.55833 km/h
2799 03-03-2020 14:00:00 6.50833 C 6.28 g/m*3 5.06 C 7.38333 km/h
2800 03-03-2020 15:00:00 6.11667 C 6.28 g/m*3 4.43 C 8.06667 km/h
Sensor: Nr:Datum:Temp:Abs-Feuchte:Windchill:Wind:
Aussen-T/F 2801 03-03-2020 16:00:00 7.39167 C 6.28 g/m*3 6.13 C 7.24167 km/h
2802 03-03-2020 17:00:00 7.00833 C 6.22 g/m*3 7.01 C 4.28333 km/h
2803 03-03-2020 18:00:00 5.16667 C 5.86 g/m*3 3.82 C 6.28333 km/h
2804 03-03-2020 19:00:00 3.73333 C 5.63 g/m*3 2.35 C 5.75833 km/h
2805 03-03-2020 20:00:00 2.88333 C 5.41 g/m*3 2.88 C 1.6 km/h
2806 03-03-2020 21:00:00 2.34167 C 5.32 g/m*3 2.34 C 0 km/h
2807 03-03-2020 22:00:00 2.34167 C 5.35 g/m*3 2.34 C 0 km/h
2808 03-03-2020 23:00:00 2.675 C 5.52 g/m*3 2.68 C 3.86667 km/h
2809 04-03-2020 00:00:00 3.175 C 5.64 g/m*3 3.18 C 3.46667 km/h
2810 04-03-2020 01:00:00 2.93333 C 5.49 g/m*3 0.85 C 7.525 km/h
2811 04-03-2020 02:00:00 3.29167 C 5.57 g/m*3 0.63 C 9.95833 km/h
2812 04-03-2020 03:00:00 3.825 C 5.67 g/m*3 3.83 C 4.15833 km/h
2813 04-03-2020 04:00:00 3.95833 C 5.73 g/m*3 1.55 C 9.41667 km/h
2814 04-03-2020 05:00:00 4.10833 C 5.87 g/m*3 1.73 C 9.40833 km/h
2815 04-03-2020 06:00:00 4.13333 C 5.95 g/m*3 1.57 C 10.225 km/h
2816 04-03-2020 07:00:00 4.425 C 5.99 g/m*3 2.01 C 9.81667 km/h
2817 04-03-2020 08:00:00 4.39167 C 5.94 g/m*3 2.37 C 8.19167 km/h
2818 04-03-2020 09:00:00 5.00833 C 6.07 g/m*3 2.08 C 13.01667 km/h
2819 04-03-2020 10:00:00 6.30833 C 6.25 g/m*3 3.24 C 15.83333 km/h
2820 04-03-2020 11:00:00 7.475 C 6.42 g/m*3 4.85 C 14.63333 km/h
2821 04-03-2020 12:00:00 8.89167 C 6.58 g/m*3 6.68 C 13.96667 km/h
2822 04-03-2020 13:00:00 9.10833 C 6.46 g/m*3 6.71 C 15.83333 km/h
2823 04-03-2020 14:00:00 9.59167 C 6.45 g/m*3 7.03 C 18.36667 km/h
2824 04-03-2020 15:00:00 9.13333 C 6.51 g/m*3 6.58 C 17.16667 km/h
2825 04-03-2020 16:00:00 9.03333 C 6.41 g/m*3 6.74 C 14.9 km/h
Sensor: Nr:Datum:Temp:Abs-Feuchte:Windchill:Wind:
Aussen-T/F 2826 04-03-2020 17:00:00 8.7 C 6.29 g/m*3 7.62 C 7.38333 km/h
2827 04-03-2020 18:00:00 5.73333 C 5.96 g/m*3 5.73 C 4.8 km/h
2828 04-03-2020 19:00:00 4.24167 C 5.77 g/m*3 4.24 C 4.8 km/h
2829 04-03-2020 20:00:00 3.95 C 5.76 g/m*3 3.95 C 2.8 km/h
2830 04-03-2020 21:00:00 3.35 C 5.62 g/m*3 3.35 C 3.73333 km/h
2831 04-03-2020 22:00:00 3.31667 C 5.65 g/m*3 3.32 C 0.4 km/h
2832 04-03-2020 23:00:00 3.81667 C 5.9 g/m*3 3.82 C 0.4 km/h
2833 05-03-2020 00:00:00 4.4 C 6.17 g/m*3 4.4 C 0.66667 km/h
2834 05-03-2020 01:00:00 4.29167 C 6.14 g/m*3 4.29 C 0.8 km/h
2835 05-03-2020 02:00:00 4.51667 C 6.19 g/m*3 4.52 C 3.475 km/h
2836 05-03-2020 03:00:00 4.85833 C 6.16 g/m*3 4.86 C 2.93333 km/h
2837 05-03-2020 04:00:00 4.94167 C 6.18 g/m*3 4.94 C 4.55 km/h
2838 05-03-2020 05:00:00 4.925 C 6.18 g/m*3 4.93 C 3.2 km/h
2839 05-03-2020 06:00:00 5.01667 C 6.2 g/m*3 5.02 C 4.55 km/h
2840 05-03-2020 07:00:00 5.275 C 6.29 g/m*3 5.28 C 4.95 km/h
2841 05-03-2020 08:00:00 5.64167 C 6.43 g/m*3 3.88 C 8.05 km/h
2842 05-03-2020 09:00:00 6.175 C 6.58 g/m*3 5.02 C 6.15833 km/h
2843 05-03-2020 10:00:00 6.55 C 6.67 g/m*3 5.37 C 6.45 km/h
2844 05-03-2020 11:00:00 6.89167 C 6.87 g/m*3 5.81 C 6.29167 km/h
2845 05-03-2020 12:00:00 7.325 C 7.01 g/m*3 7.33 C 4.81667 km/h
2846 05-03-2020 13:00:00 7.25 C 7.24 g/m*3 7.25 C 4.94167 km/h
2847 05-03-2020 14:00:00 7.025 C 7.26 g/m*3 7.03 C 2.53333 km/h
2848 05-03-2020 15:00:00 6.96667 C 7.31 g/m*3 6.97 C 1.46667 km/h
2849 05-03-2020 16:00:00 7.11667 C 7.41 g/m*3 5.8 C 7.25833 km/h
2850 05-03-2020 17:00:00 6.78333 C 7.26 g/m*3 6.78 C 4.01667 km/h
Sensor: Nr:Datum:Temp:Abs-Feuchte:Windchill:Wind:
Aussen-T/F 2851 05-03-2020 18:00:00 6.60833 C 7.19 g/m*3 6.61 C 0.93333 km/h
2852 05-03-2020 19:00:00 6.35833 C 7.13 g/m*3 6.36 C 0.93333 km/h
2853 05-03-2020 20:00:00 6.65833 C 7.27 g/m*3 6.66 C 2.13333 km/h
2854 05-03-2020 21:00:00 6.8 C 7.34 g/m*3 6.8 C 0.93333 km/h
2855 05-03-2020 22:00:00 6.8 C 7.4 g/m*3 6.8 C 0 km/h
2856 05-03-2020 23:00:00 6.8 C 7.42 g/m*3 6.8 C 0 km/h
2857 06-03-2020 00:00:00 6.83333 C 7.43 g/m*3 6.83 C 0 km/h
2858 06-03-2020 01:00:00 7.25 C 7.64 g/m*3 6.03 C 6.975 km/h
2859 06-03-2020 02:00:00 7.04167 C 7.34 g/m*3 5.3 C 9 km/h
2860 06-03-2020 03:00:00 6.7 C 7.07 g/m*3 5.71 C 5.89167 km/h
2861 06-03-2020 04:00:00 6.40833 C 7.01 g/m*3 6.41 C 2.26667 km/h
2862 06-03-2020 05:00:00 6.33333 C 7.05 g/m*3 4.93 C 7.11667 km/h
2863 06-03-2020 06:00:00 6.54167 C 7.2 g/m*3 4.77 C 8.725 km/h
2864 06-03-2020 07:00:00 6.7 C 7.29 g/m*3 5.89 C 5.35833 km/h
2865 06-03-2020 08:00:00 6 C 6.78 g/m*3 4.04 C 9.125 km/h
2866 06-03-2020 09:00:00 5.725 C 6.65 g/m*3 3.9 C 8.325 km/h
2867 06-03-2020 10:00:00 5.68333 C 6.46 g/m*3 3.4 C 10.36667 km/h
2868 06-03-2020 11:00:00 5.825 C 6.47 g/m*3 3.69 C 9.8 km/h
2869 06-03-2020 12:00:00 5.575 C 6.39 g/m*3 3.14 C 11.025 km/h
2870 06-03-2020 13:00:00 5.68333 C 6.44 g/m*3 3.24 C 11.15 km/h
2871 06-03-2020 14:00:00 5.775 C 6.46 g/m*3 3.74 C 9.28333 km/h
2872 06-03-2020 15:00:00 6.1 C 6.48 g/m*3 4.38 C 8.19167 km/h
2873 06-03-2020 16:00:00 6.675 C 6.52 g/m*3 5.15 C 7.78333 km/h
2874 06-03-2020 17:00:00 7.1 C 6.66 g/m*3 5.32 C 9.275 km/h
2875 06-03-2020 18:00:00 7.03333 C 6.52 g/m*3 5.89 C 6.58333 km/h
Sensor: Nr:Datum:Temp:Abs-Feuchte:Windchill:Wind:
Aussen-T/F 2876 06-03-2020 19:00:00 6.76667 C 6.42 g/m*3 5.13 C 8.33333 km/h
2877 06-03-2020 20:00:00 6.34167 C 6.24 g/m*3 4.44 C 9.15 km/h
2878 06-03-2020 21:00:00 5.675 C 6.09 g/m*3 3.34 C 10.625 km/h
2879 06-03-2020 22:00:00 5.525 C 6.07 g/m*3 3.74 C 8.05 km/h
2880 06-03-2020 23:00:00 5.88333 C 6.09 g/m*3 3.81 C 9.53333 km/h
2881 07-03-2020 00:00:00 5.81667 C 6.01 g/m*3 4.33 C 7.10833 km/h
2882 07-03-2020 01:00:00 5.81667 C 6.08 g/m*3 4.33 C 7.1 km/h
2883 07-03-2020 02:00:00 5.88333 C 6.18 g/m*3 3.96 C 8.86667 km/h
2884 07-03-2020 03:00:00 5.58333 C 6.11 g/m*3 4.34 C 6.175 km/h
2885 07-03-2020 04:00:00 5.41667 C 6.02 g/m*3 3.9 C 6.98333 km/h
2886 07-03-2020 05:00:00 5.39167 C 5.96 g/m*3 4.4 C 5.35 km/h
2887 07-03-2020 06:00:00 5.3 C 6 g/m*3 3.73 C 7.11667 km/h
2888 07-03-2020 07:00:00 5.21667 C 5.96 g/m*3 5.22 C 2.54167 km/h
2889 07-03-2020 08:00:00 4.89167 C 6.1 g/m*3 4.89 C 2.26667 km/h
2890 07-03-2020 09:00:00 5.61667 C 6.15 g/m*3 5.62 C 4.53333 km/h
2891 07-03-2020 10:00:00 6.59167 C 6.23 g/m*3 5.5 C 6.16667 km/h
2892 07-03-2020 11:00:00 7.5 C 6.1 g/m*3 5.82 C 9.15 km/h
2893 07-03-2020 12:00:00 7.84167 C 5.89 g/m*3 7.1 C 5.63333 km/h
2894 07-03-2020 13:00:00 8.58333 C 5.85 g/m*3 7.13 C 9.00833 km/h
2895 07-03-2020 14:00:00 9.65833 C 5.56 g/m*3 8.05 C 11.00833 km/h
2896 07-03-2020 15:00:00 9.9 C 5.31 g/m*3 8.74 C 8.725 km/h
2897 07-03-2020 16:00:00 9.38333 C 5.28 g/m*3 8.11 C 8.85833 km/h
2898 07-03-2020 17:00:00 9 C 5.65 g/m*3 8.43 C 5.61667 km/h
2899 07-03-2020 18:00:00 6.98333 C 5.82 g/m*3 6.04 C 5.86667 km/h
2900 07-03-2020 19:00:00 5.025 C 5.65 g/m*3 5.03 C 4.26667 km/h
Sensor: Nr:Datum:Temp:Abs-Feuchte:Windchill:Wind:
Aussen-T/F 2901 07-03-2020 20:00:00 5.00833 C 5.81 g/m*3 5.01 C 0.4 km/h
2902 07-03-2020 21:00:00 5.15833 C 5.94 g/m*3 5.16 C 0.13333 km/h
2903 07-03-2020 22:00:00 5.70833 C 5.96 g/m*3 5.71 C 1.2 km/h
2904 07-03-2020 23:00:00 6.5 C 5.92 g/m*3 6.5 C 4.81667 km/h
2905 08-03-2020 00:00:00 6.99167 C 6.12 g/m*3 5.85 C 6.56667 km/h
2906 08-03-2020 01:00:00 7.325 C 6.29 g/m*3 6.05 C 7.23333 km/h
2907 08-03-2020 02:00:00 7.40833 C 6.38 g/m*3 6.01 C 7.8 km/h
2908 08-03-2020 03:00:00 7.35833 C 6.36 g/m*3 6.27 C 6.56667 km/h
2909 08-03-2020 04:00:00 7.39167 C 6.34 g/m*3 5.23 C 11.55833 km/h
2910 08-03-2020 05:00:00 7.30833 C 6.3 g/m*3 5.99 C 7.39167 km/h
2911 08-03-2020 06:00:00 7.15833 C 6.35 g/m*3 7.16 C 3.20833 km/h
2912 08-03-2020 07:00:00 8.03333 C 6.6 g/m*3 8.03 C 4.41667 km/h
2913 08-03-2020 08:00:00 8.63333 C 6.79 g/m*3 8.63 C 4.81667 km/h
2914 08-03-2020 09:00:00 9 C 6.91 g/m*3 9 C 3.875 km/h
2915 08-03-2020 10:00:00 10.21667 C 7.18 g/m*3 8.64 C 11.56667 km/h
2916 08-03-2020 11:00:00 11.50833 C 7.27 g/m*3 11.51 C 11.83333 km/h
2917 08-03-2020 12:00:00 12.35833 C 7.19 g/m*3 12.36 C 14.76667 km/h
2918 08-03-2020 13:00:00 12.30833 C 7.14 g/m*3 12.31 C 17.44167 km/h
2919 08-03-2020 14:00:00 12.31667 C 7.19 g/m*3 12.32 C 14.23333 km/h
2920 08-03-2020 15:00:00 12.225 C 7.14 g/m*3 12.23 C 10.08333 km/h
2921 08-03-2020 16:00:00 12.15833 C 7.27 g/m*3 12.16 C 6.425 km/h
2922 08-03-2020 17:00:00 12.16667 C 7.48 g/m*3 12.17 C 7.10833 km/h
2923 08-03-2020 18:00:00 11.13333 C 7.73 g/m*3 11.13 C 11.03333 km/h
2924 08-03-2020 19:00:00 10.13333 C 7.89 g/m*3 9.3 C 7.375 km/h
2925 08-03-2020 20:00:00 9.76667 C 7.92 g/m*3 8.86 C 7.39167 km/h
Sensor: Nr:Datum:Temp:Abs-Feuchte:Windchill:Wind:
Aussen-T/F 2926 08-03-2020 21:00:00 9.74167 C 7.93 g/m*3 8.99 C 6.70833 km/h
2927 08-03-2020 22:00:00 9.71667 C 7.89 g/m*3 8.5 C 8.875 km/h
2928 08-03-2020 23:00:00 9 C 7.71 g/m*3 7.09 C 12.09167 km/h
2929 09-03-2020 00:00:00 7.9 C 7.42 g/m*3 7.26 C 5.35 km/h
2930 09-03-2020 01:00:00 7.40833 C 7.38 g/m*3 6.29 C 6.7 km/h
2931 09-03-2020 02:00:00 7.24167 C 7.32 g/m*3 7.24 C 2.13333 km/h
2932 09-03-2020 03:00:00 7.09167 C 7.26 g/m*3 7.09 C 3.06667 km/h
2933 09-03-2020 04:00:00 6.7 C 7.1 g/m*3 6.7 C 2.8 km/h
2934 09-03-2020 05:00:00 6.53333 C 7.03 g/m*3 6.53 C 4.14167 km/h
2935 09-03-2020 06:00:00 5.725 C 6.64 g/m*3 4.51 C 6.14167 km/h
2936 09-03-2020 07:00:00 5.85833 C 6.65 g/m*3 5.86 C 3.61667 km/h
2937 09-03-2020 08:00:00 6.09167 C 6.76 g/m*3 6.09 C 3.34167 km/h
2938 09-03-2020 09:00:00 7.775 C 7.1 g/m*3 5.93 C 10.225 km/h
2939 09-03-2020 10:00:00 8.56667 C 7.14 g/m*3 6.36 C 13.43333 km/h
2940 09-03-2020 11:00:00 8.86667 C 7.06 g/m*3 7.24 C 10.21667 km/h
2941 09-03-2020 12:00:00 10.05 C 6.33 g/m*3 8.29 C 12.625 km/h
2942 09-03-2020 13:00:00 9.85 C 6.67 g/m*3 8.14 C 11.94167 km/h
2943 09-03-2020 14:00:00 10.8 C 6.63 g/m*3 9.76 C 9.00833 km/h
2944 09-03-2020 15:00:00 11.24167 C 5.84 g/m*3 11.24 C 14.36667 km/h
2945 09-03-2020 16:00:00 10.85833 C 6.08 g/m*3 9.25 C 12.75833 km/h
2946 09-03-2020 17:00:00 10.80833 C 6.09 g/m*3 9.89 C 8.325 km/h
2947 09-03-2020 18:00:00 9.59167 C 6.35 g/m*3 9 C 6.025 km/h
2948 09-03-2020 19:00:00 7.81667 C 6.36 g/m*3 6.55 C 7.525 km/h
2949 09-03-2020 20:00:00 7.05833 C 6.33 g/m*3 5.54 C 8.04167 km/h
2950 09-03-2020 21:00:00 6.4 C 6.21 g/m*3 6.4 C 4.96667 km/h
Sensor: Nr:Datum:Temp:Abs-Feuchte:Windchill:Wind:
Aussen-T/F 2951 09-03-2020 22:00:00 5.95 C 6.2 g/m*3 5.95 C 4.55 km/h
2952 09-03-2020 23:00:00 5.7 C 6.19 g/m*3 5.7 C 1.2 km/h
2953 10-03-2020 00:00:00 5.55833 C 6.27 g/m*3 5.56 C 2 km/h
2954 10-03-2020 01:00:00 6.58333 C 6.49 g/m*3 6.58 C 4.95 km/h
2955 10-03-2020 02:00:00 7.325 C 6.54 g/m*3 7.33 C 4.40833 km/h
2956 10-03-2020 03:00:00 7.3 C 6.76 g/m*3 4.51 C 15.55833 km/h
2957 10-03-2020 04:00:00 6.73333 C 6.75 g/m*3 4.61 C 10.61667 km/h
2958 10-03-2020 05:00:00 6.26667 C 6.66 g/m*3 3.08 C 16.65 km/h
2959 10-03-2020 06:00:00 5.825 C 6.57 g/m*3 2.95 C 13.81667 km/h
2960 10-03-2020 07:00:00 6.15833 C 6.75 g/m*3 2.89 C 17.03333 km/h
2961 10-03-2020 08:00:00 6.825 C 7.03 g/m*3 3.42 C 19.575 km/h
2962 10-03-2020 09:00:00 7.325 C 7.32 g/m*3 4.2 C 18.23333 km/h
2963 10-03-2020 10:00:00 7.91667 C 7.67 g/m*3 4.91 C 18.5 km/h
2964 10-03-2020 11:00:00 8.80833 C 8.14 g/m*3 6.24 C 16.63333 km/h
2965 10-03-2020 12:00:00 9.525 C 8.55 g/m*3 6.97 C 18.1 km/h
2966 10-03-2020 13:00:00 9.99167 C 8.8 g/m*3 7.57 C 17.96667 km/h
2967 10-03-2020 14:00:00 10.68333 C 9.2 g/m*3 8.68 C 15.7 km/h
2968 10-03-2020 15:00:00 11.78333 C 9.62 g/m*3 11.78 C 22.66667 km/h
2969 10-03-2020 16:00:00 12.64167 C 9.93 g/m*3 12.64 C 19.96667 km/h
2970 10-03-2020 17:00:00 12.78333 C 10.07 g/m*3 12.78 C 16.1 km/h
2971 10-03-2020 18:00:00 12.7 C 10.1 g/m*3 12.7 C 17.83333 km/h
2972 10-03-2020 19:00:00 12.70833 C 10.14 g/m*3 12.71 C 18.76667 km/h
2973 10-03-2020 20:00:00 12.95 C 10.25 g/m*3 12.95 C 19.575 km/h
2974 10-03-2020 21:00:00 13.33333 C 10.42 g/m*3 13.33 C 18.5 km/h
2975 10-03-2020 22:00:00 13.275 C 10.55 g/m*3 13.28 C 18.1 km/h
Sensor: Nr:Datum:Temp:Abs-Feuchte:Windchill:Wind:
Aussen-T/F 2976 10-03-2020 23:00:00 13.25833 C 10.52 g/m*3 13.26 C 15.7 km/h
2977 11-03-2020 00:00:00 13.65833 C 10.33 g/m*3 13.66 C 16.1 km/h
2978 11-03-2020 01:00:00 13.65833 C 10.48 g/m*3 13.66 C 18.9 km/h
2979 11-03-2020 02:00:00 13.45 C 10.55 g/m*3 13.45 C 14.5 km/h
2980 11-03-2020 03:00:00 13.65833 C 10.57 g/m*3 13.66 C 19.43333 km/h
2981 11-03-2020 04:00:00 13.65 C 10.49 g/m*3 13.65 C 19.7 km/h
2982 11-03-2020 05:00:00 13.53333 C 10.43 g/m*3 13.53 C 17.7 km/h
2983 11-03-2020 06:00:00 13.43333 C 10.3 g/m*3 13.43 C 16.76667 km/h
2984 11-03-2020 07:00:00 13.40833 C 10.14 g/m*3 13.41 C 17.16667 km/h
2985 11-03-2020 08:00:00 13.1 C 9.98 g/m*3 13.1 C 18.36667 km/h
2986 11-03-2020 09:00:00 13.43333 C 10.24 g/m*3 13.43 C 18.65 km/h
2987 11-03-2020 10:00:00 13.98333 C 10.44 g/m*3 13.98 C 18.9 km/h
2988 11-03-2020 11:00:00 14.83333 C 10.76 g/m*3 14.83 C 19.96667 km/h
2989 11-03-2020 12:00:00 15.575 C 10.88 g/m*3 15.58 C 20.10833 km/h
2990 11-03-2020 13:00:00 15.85 C 10.96 g/m*3 15.85 C 21.7 km/h
2991 11-03-2020 14:00:00 15.83333 C 10.79 g/m*3 15.83 C 24.125 km/h
2992 11-03-2020 15:00:00 15.3 C 10.7 g/m*3 15.3 C 19.56667 km/h
2993 11-03-2020 16:00:00 14.8 C 10.82 g/m*3 14.8 C 14.23333 km/h
2994 11-03-2020 17:00:00 14.125 C 10.71 g/m*3 14.13 C 11.94167 km/h
2995 11-03-2020 18:00:00 13.66667 C 10.43 g/m*3 13.67 C 11.69167 km/h
2996 11-03-2020 19:00:00 13.61667 C 10.39 g/m*3 13.62 C 10.34167 km/h
2997 11-03-2020 20:00:00 13.71667 C 10.35 g/m*3 13.72 C 13.28333 km/h
2998 11-03-2020 21:00:00 13.79167 C 10.2 g/m*3 13.79 C 19.70833 km/h
2999 11-03-2020 22:00:00 14.14167 C 9.89 g/m*3 14.14 C 23.46667 km/h
3000 11-03-2020 23:00:00 13.95 C 9.62 g/m*3 13.95 C 28.03333 km/h
Sensor: Nr:Datum:Temp:Abs-Feuchte:Windchill:Wind:
Aussen-T/F 3001 12-03-2020 00:00:00 13.84167 C 9.53 g/m*3 13.84 C 20.775 km/h
3002 12-03-2020 01:00:00 14.01667 C 9.53 g/m*3 14.02 C 20.76667 km/h
3003 12-03-2020 02:00:00 13.825 C 9.38 g/m*3 13.83 C 16.76667 km/h
3004 12-03-2020 03:00:00 13.575 C 8.96 g/m*3 13.58 C 17.7 km/h
3005 12-03-2020 04:00:00 13.23333 C 8.71 g/m*3 13.23 C 15.43333 km/h
3006 12-03-2020 05:00:00 12.85833 C 8.75 g/m*3 12.86 C 16.5 km/h
3007 12-03-2020 06:00:00 12.35 C 8.84 g/m*3 12.35 C 14.63333 km/h
3008 12-03-2020 07:00:00 12.15 C 9.1 g/m*3 12.15 C 16.23333 km/h
3009 12-03-2020 08:00:00 11.16667 C 9.09 g/m*3 11.17 C 12.09167 km/h
3010 12-03-2020 09:00:00 10.56667 C 8.55 g/m*3 9.14 C 11.03333 km/h
3011 12-03-2020 10:00:00 11.50833 C 8.09 g/m*3 11.51 C 17.43333 km/h
3012 12-03-2020 11:00:00 11.39167 C 6.55 g/m*3 11.39 C 21.59167 km/h
3013 12-03-2020 12:00:00 12.05833 C 5.47 g/m*3 12.06 C 20.90833 km/h
3014 12-03-2020 13:00:00 12.04167 C 5.55 g/m*3 12.04 C 18.76667 km/h
3015 12-03-2020 14:00:00 12.10833 C 5.89 g/m*3 12.11 C 20.90833 km/h
3016 12-03-2020 15:00:00 11.825 C 6.21 g/m*3 11.83 C 16.9 km/h
3017 12-03-2020 16:00:00 11.675 C 5.94 g/m*3 11.68 C 16.64167 km/h
3018 12-03-2020 17:00:00 11.5 C 5.96 g/m*3 11.5 C 10.75 km/h
3019 12-03-2020 18:00:00 10.48333 C 6.43 g/m*3 10.02 C 6.04167 km/h
3020 12-03-2020 19:00:00 7.78333 C 6.3 g/m*3 7.78 C 4.40833 km/h
3021 12-03-2020 20:00:00 7.275 C 6.26 g/m*3 6.25 C 6.29167 km/h
3022 12-03-2020 21:00:00 7.41667 C 6.34 g/m*3 6.09 C 7.51667 km/h
3023 12-03-2020 22:00:00 7.75833 C 6.48 g/m*3 6.18 C 8.875 km/h
3024 12-03-2020 23:00:00 7.475 C 6.09 g/m*3 5.71 C 9.525 km/h
3025 13-03-2020 00:00:00 6.725 C 5.43 g/m*3 4.24 C 12.63333 km/h
Sensor: Nr:Datum:Temp:Abs-Feuchte:Windchill:Wind:
Aussen-T/F 3026 13-03-2020 01:00:00 5.85833 C 5.37 g/m*3 3.23 C 12.36667 km/h
3027 13-03-2020 02:00:00 5.35833 C 5.4 g/m*3 2.88 C 11.01667 km/h
3028 13-03-2020 03:00:00 5.61667 C 5.43 g/m*3 2.08 C 18.10833 km/h
3029 13-03-2020 04:00:00 5.575 C 5.48 g/m*3 2.73 C 13.3 km/h
3030 13-03-2020 05:00:00 5.74167 C 5.45 g/m*3 2.95 C 13.16667 km/h
3031 13-03-2020 06:00:00 5.875 C 5.54 g/m*3 3.21 C 12.63333 km/h
3032 13-03-2020 07:00:00 5.95833 C 5.67 g/m*3 3.38 C 12.23333 km/h
3033 13-03-2020 08:00:00 6.34167 C 5.89 g/m*3 4.06 C 11.025 km/h
3034 13-03-2020 09:00:00 7.13333 C 6.09 g/m*3 4.85 C 11.96667 km/h
3035 13-03-2020 10:00:00 8.03333 C 6.26 g/m*3 5.45 C 15.3 km/h
3036 13-03-2020 11:00:00 8.51667 C 6.58 g/m*3 5.86 C 16.76667 km/h
3037 13-03-2020 12:00:00 9 C 6.41 g/m*3 6.46 C 16.76667 km/h
3038 13-03-2020 13:00:00 9.325 C 6.63 g/m*3 7.01 C 15.56667 km/h
3039 13-03-2020 14:00:00 9.74167 C 6.58 g/m*3 7.76 C 13.7 km/h
3040 13-03-2020 15:00:00 10.11667 C 6.21 g/m*3 8.46 C 11.96667 km/h
3041 13-03-2020 16:00:00 9.99167 C 6.22 g/m*3 8.18 C 12.9 km/h
3042 13-03-2020 17:00:00 9.54167 C 6.44 g/m*3 8.17 C 9.54167 km/h
3043 13-03-2020 18:00:00 8.93333 C 6.45 g/m*3 7.66 C 8.45 km/h
3044 13-03-2020 19:00:00 7.975 C 6.43 g/m*3 7.98 C 4.4 km/h
3045 13-03-2020 20:00:00 7.225 C 6.41 g/m*3 7.23 C 4.94167 km/h
3046 13-03-2020 21:00:00 6.475 C 6.31 g/m*3 5.54 C 5.61667 km/h
3047 13-03-2020 22:00:00 5.925 C 6.28 g/m*3 5.93 C 3.33333 km/h
3048 13-03-2020 23:00:00 6.03333 C 6.36 g/m*3 6.03 C 1.33333 km/h
3049 14-03-2020 00:00:00 5.28333 C 6.12 g/m*3 5.28 C 2.4 km/h
3050 14-03-2020 01:00:00 3.725 C 5.65 g/m*3 3.73 C 0 km/h
Sensor: Nr:Datum:Temp:Abs-Feuchte:Windchill:Wind:
Aussen-T/F 3051 14-03-2020 02:00:00 3.76667 C 5.83 g/m*3 3.77 C 0.8 km/h
3052 14-03-2020 03:00:00 2.83333 C 5.44 g/m*3 2.83 C 0.13333 km/h
3053 14-03-2020 04:00:00 2.48333 C 5.39 g/m*3 2.48 C 0 km/h
3054 14-03-2020 05:00:00 1.99167 C 5.23 g/m*3 1.99 C 0.13333 km/h
3055 14-03-2020 06:00:00 1.59167 C 5.11 g/m*3 1.59 C 0.13333 km/h
3056 14-03-2020 07:00:00 1.58333 C 5.13 g/m*3 1.58 C 0 km/h
3057 14-03-2020 08:00:00 2.06667 C 5.35 g/m*3 2.07 C 0 km/h
3058 14-03-2020 09:00:00 3.55833 C 5.93 g/m*3 3.56 C 0.66667 km/h
3059 14-03-2020 10:00:00 5.68333 C 6.59 g/m*3 5.68 C 0.53333 km/h
3060 14-03-2020 11:00:00 8.38333 C 6.95 g/m*3 8.38 C 1.86667 km/h
3061 14-03-2020 12:00:00 10.15833 C 6.89 g/m*3 10.16 C 3.74167 km/h
3062 14-03-2020 13:00:00 10.93333 C 6.54 g/m*3 10.68 C 5.48333 km/h
3063 14-03-2020 14:00:00 11.70833 C 6.36 g/m*3 11.71 C 9.01667 km/h
3064 14-03-2020 15:00:00 11.19167 C 6.04 g/m*3 11.19 C 6.03333 km/h
3065 14-03-2020 16:00:00 10.75 C 6.16 g/m*3 10.5 C 5.35833 km/h
3066 14-03-2020 17:00:00 10.38333 C 6.31 g/m*3 10.38 C 2.53333 km/h
3067 14-03-2020 18:00:00 8.53333 C 6.22 g/m*3 8.53 C 1.33333 km/h
3068 14-03-2020 19:00:00 5.95833 C 6.06 g/m*3 5.96 C 4.4 km/h
3069 14-03-2020 20:00:00 5.43333 C 6.07 g/m*3 5.43 C 3.86667 km/h
3070 14-03-2020 21:00:00 5.91667 C 6.2 g/m*3 5.92 C 1.6 km/h
3071 14-03-2020 22:00:00 5.55 C 6.12 g/m*3 5.55 C 3.33333 km/h
3072 14-03-2020 23:00:00 5.925 C 6.28 g/m*3 5.93 C 0.4 km/h
3073 15-03-2020 00:00:00 6.31667 C 6.32 g/m*3 6.32 C 0.53333 km/h
3074 15-03-2020 01:00:00 5.91667 C 6.21 g/m*3 5.92 C 0 km/h
3075 15-03-2020 02:00:00 5.50833 C 6.17 g/m*3 5.51 C 1.33333 km/h
Sensor: Nr:Datum:Temp:Abs-Feuchte:Windchill:Wind:
Aussen-T/F 3076 15-03-2020 03:00:00 4.95833 C 5.93 g/m*3 4.96 C 4.26667 km/h
3077 15-03-2020 04:00:00 4.26667 C 5.76 g/m*3 4.27 C 4.66667 km/h
3078 15-03-2020 05:00:00 4.05 C 5.68 g/m*3 4.05 C 2.8 km/h
3079 15-03-2020 06:00:00 3.88333 C 5.59 g/m*3 3.88 C 3.06667 km/h
3080 15-03-2020 07:00:00 3.79167 C 5.61 g/m*3 3.79 C 3.73333 km/h
3081 15-03-2020 08:00:00 5.08333 C 6.16 g/m*3 5.08 C 0.26667 km/h
3082 15-03-2020 09:00:00 7.25833 C 6.66 g/m*3 7.26 C 0.8 km/h
3083 15-03-2020 10:00:00 10.025 C 6.8 g/m*3 10.03 C 2.13333 km/h
3084 15-03-2020 11:00:00 12.9 C 6.88 g/m*3 12.9 C 9.93333 km/h
3085 15-03-2020 12:00:00 13.9 C 6.7 g/m*3 13.9 C 11.28333 km/h
3086 15-03-2020 13:00:00 14.8 C 6.71 g/m*3 14.8 C 11.425 km/h
3087 15-03-2020 14:00:00 15.19167 C 6.65 g/m*3 15.19 C 10.75 km/h
3088 15-03-2020 15:00:00 15.625 C 6.59 g/m*3 15.63 C 9.275 km/h
3089 15-03-2020 16:00:00 16.29167 C 6.55 g/m*3 16.29 C 7.53333 km/h
3090 15-03-2020 17:00:00 16.06667 C 6.79 g/m*3 16.07 C 5.1 km/h
3091 15-03-2020 18:00:00 12.35 C 6.97 g/m*3 12.35 C 4.66667 km/h
3092 15-03-2020 19:00:00 9.23333 C 6.59 g/m*3 8.48 C 6.4 km/h
3093 15-03-2020 20:00:00 8.125 C 6.49 g/m*3 7.39 C 5.73333 km/h
3094 15-03-2020 21:00:00 7.28333 C 6.35 g/m*3 7.28 C 4.8 km/h
3095 15-03-2020 22:00:00 6.15 C 6.02 g/m*3 6.15 C 0.13333 km/h
3096 15-03-2020 23:00:00 5.25833 C 5.94 g/m*3 5.26 C 0.13333 km/h
3097 16-03-2020 00:00:00 4.5 C 5.73 g/m*3 4.5 C 0 km/h
3098 16-03-2020 01:00:00 3.80833 C 5.6 g/m*3 3.81 C 0 km/h
3099 16-03-2020 02:00:00 3.50833 C 5.56 g/m*3 3.51 C 0 km/h
3100 16-03-2020 03:00:00 3.33333 C 5.48 g/m*3 3.33 C 0 km/h
Sensor: Nr:Datum:Temp:Abs-Feuchte:Windchill:Wind:
Aussen-T/F 3101 16-03-2020 04:00:00 2.74167 C 5.37 g/m*3 2.74 C 0 km/h
3102 16-03-2020 05:00:00 2.425 C 5.28 g/m*3 2.42 C 0 km/h
3103 16-03-2020 06:00:00 1.86667 C 5.12 g/m*3 1.87 C 0 km/h
3104 16-03-2020 07:00:00 2.06667 C 5.25 g/m*3 2.07 C 0 km/h
3105 16-03-2020 08:00:00 2.86667 C 5.59 g/m*3 2.87 C 0 km/h
3106 16-03-2020 09:00:00 4.21667 C 6.12 g/m*3 4.22 C 0 km/h
3107 16-03-2020 10:00:00 7.075 C 7.09 g/m*3 7.08 C 0 km/h
3108 16-03-2020 11:00:00 12.10833 C 8.17 g/m*3 12.11 C 3.33333 km/h
3109 16-03-2020 12:00:00 15.2 C 8.43 g/m*3 15.2 C 5.21667 km/h
3110 16-03-2020 13:00:00 16.525 C 8.53 g/m*3 16.52 C 3.6 km/h
3111 16-03-2020 14:00:00 17.4 C 8.72 g/m*3 17.4 C 5.75 km/h
3112 16-03-2020 15:00:00 17.8 C 8.8 g/m*3 17.8 C 8.06667 km/h
3113 16-03-2020 16:00:00 18.45 C 8.81 g/m*3 18.45 C 8.06667 km/h
3114 16-03-2020 17:00:00 18.5 C 8.79 g/m*3 18.5 C 8.46667 km/h
3115 16-03-2020 18:00:00 15.41667 C 8.83 g/m*3 15.42 C 5.6 km/h
3116 16-03-2020 19:00:00 12.325 C 8.49 g/m*3 12.33 C 6.13333 km/h
3117 16-03-2020 20:00:00 11.16667 C 8.28 g/m*3 11.17 C 3.46667 km/h
3118 16-03-2020 21:00:00 10.23333 C 8.14 g/m*3 10.23 C 2.93333 km/h
3119 16-03-2020 22:00:00 9.95 C 8.09 g/m*3 9.95 C 1.73333 km/h
3120 16-03-2020 23:00:00 9.71667 C 8.14 g/m*3 9.72 C 0.4 km/h
3121 17-03-2020 00:00:00 9.75833 C 8.19 g/m*3 9.76 C 0 km/h
3122 17-03-2020 01:00:00 9.40833 C 8.12 g/m*3 9.41 C 0 km/h
3123 17-03-2020 02:00:00 9.24167 C 8.13 g/m*3 9.24 C 0 km/h
3124 17-03-2020 03:00:00 8.99167 C 8.03 g/m*3 8.99 C 0 km/h
3125 17-03-2020 04:00:00 9 C 8.13 g/m*3 9 C 0.4 km/h
Sensor: Nr:Datum:Temp:Abs-Feuchte:Windchill:Wind:
Aussen-T/F 3126 17-03-2020 05:00:00 9.06667 C 8.09 g/m*3 9.07 C 0.93333 km/h
3127 17-03-2020 06:00:00 8.66667 C 7.88 g/m*3 8.67 C 0.13333 km/h
3128 17-03-2020 07:00:00 9.11667 C 8.07 g/m*3 9.12 C 1.33333 km/h
3129 17-03-2020 08:00:00 9.98333 C 8.16 g/m*3 9.98 C 1.46667 km/h
3130 17-03-2020 09:00:00 10.30833 C 8.1 g/m*3 10.31 C 0.4 km/h
3131 17-03-2020 10:00:00 10.9 C 8.25 g/m*3 10.9 C 1.2 km/h
3132 17-03-2020 11:00:00 12.05833 C 8.4 g/m*3 12.06 C 2.8 km/h
3133 17-03-2020 12:00:00 13.75 C 8.5 g/m*3 13.75 C 4.95 km/h
3134 17-03-2020 13:00:00 15.025 C 8.56 g/m*3 15.03 C 5.08333 km/h
3135 17-03-2020 14:00:00 15.6 C 8.4 g/m*3 15.6 C 4.825 km/h
3136 17-03-2020 15:00:00 16.14167 C 8.02 g/m*3 16.14 C 5.075 km/h
3137 17-03-2020 16:00:00 17.5 C 8.05 g/m*3 17.5 C 5.35833 km/h
3138 17-03-2020 17:00:00 18.05833 C 8.28 g/m*3 18.06 C 1.46667 km/h
3139 17-03-2020 18:00:00 14.55833 C 8.52 g/m*3 14.56 C 4.13333 km/h
3140 17-03-2020 19:00:00 11.35 C 8.08 g/m*3 11.35 C 4.53333 km/h
3141 17-03-2020 20:00:00 10.20833 C 7.91 g/m*3 10.21 C 3.61667 km/h
3142 17-03-2020 21:00:00 9.44167 C 7.69 g/m*3 9.44 C 0.53333 km/h
3143 17-03-2020 22:00:00 7.98333 C 7.23 g/m*3 7.98 C 0 km/h
3144 17-03-2020 23:00:00 7.00833 C 7.01 g/m*3 7.01 C 0 km/h
3145 18-03-2020 00:00:00 6.625 C 6.95 g/m*3 6.63 C 0 km/h
3146 18-03-2020 01:00:00 6.38333 C 6.9 g/m*3 6.38 C 0.13333 km/h
3147 18-03-2020 02:00:00 5.79167 C 6.66 g/m*3 5.79 C 0.4 km/h
3148 18-03-2020 03:00:00 4.975 C 6.37 g/m*3 4.97 C 0 km/h
3149 18-03-2020 04:00:00 4.50833 C 6.23 g/m*3 4.51 C 0 km/h
3150 18-03-2020 05:00:00 4.19167 C 6.12 g/m*3 4.19 C 0.26667 km/h
Sensor: